[[{"header":{"parameterUnit":"m.s-1","parameterCategory":1,"la1":30.6,"la2":28.766,"lo1":-90.7593,"lo2":-88.6598,"dy":0.0162,"dx":0.0183,"nx":116,"ny":114,"refTime":"2024-04-02T18:00:00:Z","depth":0,"parameterNumber":2,"parameterNumberName":"U-component_of_WINDS"},"data":[0.0,0.0,0.0,0.0,0.0,0.0,0.0,0.0,0.0,0.0,0.0,0.0,0.0,0.0,0.0,0.0,0.0,0.0,0.0,0.0,0.0,0.0,0.0,0.0,0.0,0.0,0.0,0.0,0.0,0.0,0.0,0.0,0.0,0.0,0.0,0.0,0.0,0.0,0.0,0.0,0.0,0.0,0.0,0.0,0.0,0.0,0.0,0.0,0.0,0.0,0.0,0.0,0.0,0.0,0.0,0.0,0.0,0.0,0.0,0.0,0.0,0.0,0.0,0.0,0.0,0.0,0.0,0.0,0.0,0.0,0.0,0.0,0.0,0.0,0.0,0.0,0.0,0.0,0.0,0.0,0.0,0.0,0.0,0.0,0.0,0.0,0.0,0.0,0.0,0.0,0.0,0.0,0.0,0.0,0.0,0.0,0.0,0.0,0.0,0.0,0.0,0.0,0.0,0.0,0.0,0.0,0.0,0.0,0.0,0.0,0.0,0.0,0.0,0.0,0.0,0.0,0.0,0.0,0.0,0.0,0.0,0.0,0.0,0.0,0.0,0.0,0.0,0.0,0.0,0.0,0.0,0.0,0.0,0.0,0.0,0.0,0.0,0.0,0.0,0.0,0.0,0.0,0.0,0.0,0.0,0.0,0.0,0.0,0.0,0.0,0.0,0.0,0.0,0.0,0.0,0.0,0.0,0.0,0.0,0.0,0.0,0.0,0.0,0.0,0.0,0.0,0.0,0.0,0.0,0.0,0.0,0.0,0.0,0.0,0.0,0.0,0.0,0.0,0.0,0.0,0.0,0.0,0.0,0.0,0.0,0.0,0.0,0.0,0.0,0.0,0.0,0.0,0.0,0.0,0.0,0.0,0.0,0.0,0.0,0.0,0.0,0.0,0.0,0.0,0.0,0.0,0.0,0.0,0.0,0.0,0.0,0.0,0.0,0.0,0.0,0.0,0.0,0.0,0.0,0.0,0.0,0.0,0.0,0.0,0.0,0.0,0.0,0.0,0.0,0.0,0.0,0.0,0.0,0.0,0.0,0.0,0.0,0.0,0.0,0.0,0.0,0.0,0.0,0.0,0.0,0.0,0.0,0.0,0.0,0.0,0.0,0.0,0.0,0.0,0.0,0.0,0.0,0.0,0.0,0.0,0.0,0.0,0.0,0.0,0.0,0.0,0.0,0.0,0.0,0.0,0.0,0.0,0.0,0.0,0.0,0.0,0.0,0.0,0.0,0.0,0.0,0.0,0.0,0.0,0.0,0.0,0.0,0.0,0.0,0.0,0.0,0.0,0.0,0.0,0.0,0.0,0.0,0.0,0.0,0.0,0.0,0.0,0.0,0.0,0.0,0.0,0.0,0.0,0.0,0.0,0.0,0.0,0.0,0.0,0.0,0.0,0.0,0.0,0.0,0.0,0.0,0.0,0.0,0.0,0.0,0.0,0.0,0.0,0.0,0.0,0.0,0.0,0.0,0.0,0.0,0.0,0.0,0.0,0.0,0.0,0.0,0.0,0.0,0.0,0.0,0.0,0.0,0.0,0.0,0.0,0.0,0.0,0.0,0.0,0.0,0.0,0.0,0.0,0.0,0.0,0.0,0.0,0.0,0.0,0.0,0.0,0.0,0.0,0.0,0.0,0.0,0.0,0.0,0.0,0.0,0.0,0.0,0.0,0.0,0.0,0.0,0.0,0.0,0.0,0.0,0.0,0.0,0.0,0.0,0.0,0.0,0.0,0.0,0.0,0.0,0.0,0.0,0.0,0.0,0.0,0.0,0.0,0.0,0.0,0.0,0.0,0.0,0.0,0.0,0.0,0.0,0.0,0.0,0.0,0.0,0.0,0.0,0.0,0.0,0.0,0.0,0.0,0.0,0.0,0.0,0.0,0.0,0.0,0.0,0.0,0.0,0.0,0.0,0.0,0.0,0.0,0.0,0.0,0.0,0.0,0.0,0.0,0.0,0.0,0.0,0.0,0.0,0.0,0.0,0.0,0.0,0.0,0.0,0.0,0.0,0.0,0.0,0.0,0.0,0.0,0.0,0.0,0.0,0.0,0.0,0.0,0.0,0.0,0.0,0.0,0.0,0.0,0.0,0.0,0.0,0.0,0.0,0.0,0.0,0.0,0.0,0.0,0.0,0.0,0.0,0.0,0.0,0.0,0.0,0.0,0.0,0.0,0.0,0.0,0.0,0.0,0.0,0.0,0.0,0.0,0.0,0.0,0.0,0.0,0.0,0.0,0.0,0.0,0.0,0.0,0.0,0.0,0.0,0.0,0.0,0.0,0.0,0.0,0.0,0.0,0.0,0.0,0.0,0.0,0.0,0.0,0.0,0.0,0.0,0.0,0.0,0.0,0.0,0.0,0.0,0.0,0.0,0.0,0.0,0.0,0.0,0.0,0.0,0.0,0.0,0.0,0.0,0.0,0.0,0.0,0.0,0.0,0.0,0.0,0.0,0.0,0.0,0.0,0.0,0.0,0.0,0.0,0.0,0.0,0.0,0.0,0.0,0.0,0.0,0.0,0.0,0.0,0.0,0.0,0.0,0.0,0.0,0.0,0.0,0.0,0.0,0.0,0.0,0.0,0.0,0.0,0.0,0.0,0.0,0.0,0.0,0.0,0.0,0.0,0.0,0.0,0.0,0.0,0.0,0.0,0.0,0.0,0.0,0.0,0.0,0.0,0.0,0.0,0.0,0.0,0.0,0.0,0.0,0.0,0.0,0.0,0.0,0.0,0.0,0.0,0.0,0.0,0.0,0.0,0.0,0.0,0.0,0.0,0.0,0.0,0.0,0.0,0.0,0.0,0.0,0.0,0.0,0.0,0.0,0.0,0.0,0.0,0.0,0.0,0.0,0.0,0.0,0.0,0.0,0.0,0.0,0.0,0.0,0.0,0.0,0.0,0.0,0.0,0.0,0.0,0.0,0.0,0.0,0.0,0.0,0.0,0.0,0.0,0.0,0.0,0.0,0.0,0.0,0.0,0.0,0.0,0.0,0.0,0.0,0.0,0.0,0.0,0.0,0.0,0.0,0.0,0.0,0.0,0.0,0.0,0.0,0.0,0.0,0.0,0.0,0.0,0.0,0.0,0.0,0.0,0.0,0.0,0.0,0.0,0.0,0.0,0.0,0.0,0.0,0.0,0.0,0.0,0.0,0.0,0.0,0.0,0.0,0.0,0.0,0.0,0.0,0.0,0.0,0.0,0.0,0.0,0.0,0.0,0.0,0.0,0.0,0.0,0.0,0.0,0.0,0.0,0.0,0.0,0.0,0.0,0.0,0.0,0.0,0.0,0.0,0.0,0.0,0.0,0.0,0.0,0.0,0.0,0.0,0.0,0.0,0.0,0.0,0.0,0.0,0.0,0.0,0.0,0.0,0.0,0.0,0.0,0.0,0.0,0.0,0.0,0.0,0.0,0.0,0.0,0.0,0.0,0.0,0.0,0.0,0.0,0.0,0.0,0.0,0.0,0.0,0.0,0.0,0.0,0.0,0.0,0.0,0.0,0.0,0.0,0.0,0.0,0.0,0.0,0.0,0.0,0.0,0.0,0.0,0.0,0.0,0.0,0.0,0.0,0.0,0.0,0.0,0.0,0.0,0.0,0.0,0.0,0.0,0.0,0.0,0.0,0.0,0.0,0.0,0.0,0.0,0.0,0.0,0.0,0.0,0.0,0.0,0.0,0.0,0.0,0.0,0.0,0.0,0.0,0.0,0.0,0.0,0.0,0.0,0.0,0.0,0.0,0.0,0.0,0.0,0.0,0.0,0.0,0.0,0.0,0.0,0.0,0.0,0.0,0.0,0.0,0.0,0.0,0.0,0.0,0.0,0.0,0.0,0.0,0.0,0.0,0.0,0.0,0.0,0.0,0.0,0.0,0.0,0.0,0.0,0.0,0.0,0.0,0.0,0.0,0.0,0.0,0.0,0.0,0.0,0.0,0.0,0.0,0.0,0.0,0.0,0.0,0.0,0.0,0.0,0.0,0.0,0.0,0.0,0.0,0.0,0.0,0.0,0.0,0.0,0.0,0.0,0.0,0.0,0.0,0.0,0.0,0.0,0.0,0.0,0.0,0.0,0.0,0.0,0.0,0.0,0.0,0.0,0.0,0.0,0.0,0.0,0.0,0.0,0.0,0.0,0.0,0.0,0.0,0.0,0.0,0.0,0.0,0.0,0.0,0.0,0.0,0.0,0.0,0.0,0.0,0.0,0.0,0.0,0.0,0.0,0.0,0.0,0.0,0.0,0.0,0.0,0.0,0.0,0.0,0.0,0.0,0.0,0.0,0.0,0.0,0.0,0.0,0.0,0.0,0.0,0.0,0.0,0.0,0.0,0.0,0.0,0.0,0.0,0.0,0.0,0.0,0.0,0.0,0.0,0.0,0.0,0.0,0.0,0.0,0.0,0.0,0.0,0.0,0.0,0.0,0.0,0.0,0.0,0.0,0.0,0.0,0.0,0.0,0.0,0.0,0.0,0.0,0.0,0.0,0.0,0.0,0.0,0.0,0.0,0.0,0.0,0.0,0.0,0.0,0.0,0.0,0.0,0.0,0.0,0.0,0.0,0.0,0.0,0.0,0.0,0.0,0.0,0.0,0.0,0.0,0.0,0.0,0.0,0.0,0.0,0.0,0.0,0.0,0.0,0.0,0.0,0.0,0.0,0.0,0.0,0.0,0.0,0.0,0.0,0.0,0.0,0.0,0.0,0.0,0.0,0.0,0.0,0.0,0.0,0.0,0.0,0.0,0.0,0.0,0.0,0.0,0.0,0.0,0.0,0.0,0.0,0.0,0.0,0.0,0.0,0.0,0.0,0.0,0.0,0.0,0.0,0.0,0.0,0.0,0.0,0.0,0.0,0.0,0.0,0.0,0.0,0.0,0.0,0.0,0.0,0.0,0.0,0.0,0.0,0.0,0.0,0.0,0.0,0.0,0.0,0.0,0.0,0.0,0.0,0.0,0.0,0.0,0.0,0.0,0.0,0.0,0.0,0.0,0.0,0.0,0.0,0.0,0.0,0.0,0.0,0.0,0.0,0.0,0.0,0.0,0.0,0.0,0.0,0.0,0.0,0.0,0.0,0.0,0.0,0.0,0.0,0.0,0.0,0.0,0.0,0.0,0.0,0.0,0.0,0.0,0.0,0.0,0.0,0.0,0.0,0.0,0.0,0.0,0.0,0.0,0.0,0.0,0.0,0.0,0.0,0.0,0.0,0.0,0.0,0.0,0.0,0.0,0.0,0.0,0.0,0.0,0.0,0.0,0.0,0.0,0.0,0.0,0.0,0.0,0.0,0.0,0.0,0.0,0.0,0.0,0.0,0.0,0.0,0.0,0.0,0.0,0.0,0.0,0.0,0.0,0.0,0.0,0.0,0.0,0.0,0.0,0.0,0.0,0.0,0.0,0.0,0.0,0.0,0.0,0.0,0.0,0.0,0.0,0.0,0.0,0.0,0.0,0.0,0.0,0.0,0.0,0.0,0.0,0.0,0.0,0.0,0.0,0.0,0.0,0.0,0.0,0.0,0.0,0.0,0.0,0.0,0.0,0.0,0.0,0.0,0.0,0.0,0.0,0.0,0.0,0.0,0.0,0.0,0.0,0.0,0.0,0.0,0.0,0.0,0.0,0.0,0.0,0.0,0.0,0.0,0.0,0.0,0.0,0.0,0.0,0.0,0.0,0.0,0.0,0.0,0.0,0.0,0.0,0.0,0.0,0.0,0.0,0.0,0.0,0.0,0.0,0.0,0.0,0.0,0.0,0.0,0.0,0.0,0.0,0.0,0.0,0.0,0.0,0.0,0.0,0.0,0.0,0.0,0.0,0.0,0.0,0.0,0.0,0.0,0.0,0.0,0.0,0.0,0.0,0.0,0.0,0.0,0.0,0.0,0.0,0.0,0.0,0.0,0.0,0.0,0.0,0.0,0.0,0.0,0.0,0.0,0.0,0.0,0.0,0.0,0.0,0.0,0.0,0.0,0.0,0.0,0.0,0.0,0.0,0.0,0.0,0.0,0.0,0.0,0.0,0.0,0.0,0.0,0.0,0.0,0.0,0.0,0.0,0.0,0.0,0.0,0.0,0.0,0.0,0.0,0.0,0.0,0.0,0.0,0.0,3.835,0.0,0.0,0.0,0.0,0.0,0.0,0.0,0.0,0.0,0.0,0.0,0.0,0.0,0.0,0.0,0.0,0.0,0.0,0.0,0.0,0.0,0.0,0.0,0.0,2.0096,2.042,2.106,2.1439,2.1616,2.1616,0.0,0.0,0.0,0.0,0.0,2.4381,2.4393,2.4657,2.5315,2.5367,2.565,2.6127,2.631,2.644,2.6518,0.0,0.0,0.0,0.0,0.0,0.0,0.0,0.0,0.0,0.0,0.0,0.0,0.0,0.0,0.0,0.0,0.0,0.0,0.0,0.0,0.0,0.0,0.0,0.0,0.0,0.0,0.0,0.0,0.0,0.0,0.0,0.0,0.0,0.0,0.0,0.0,0.0,0.0,0.0,0.0,0.0,0.0,0.0,0.0,0.0,0.0,0.0,0.0,0.0,0.0,0.0,0.0,0.0,0.0,0.0,0.0,0.0,0.0,0.0,0.0,0.0,0.0,0.0,0.0,0.0,0.0,0.0,0.0,0.0,0.0,0.0,3.8384,0.0,0.0,0.0,0.0,0.0,0.0,0.0,0.0,0.0,0.0,0.0,0.0,0.0,0.0,0.0,0.0,0.0,0.0,0.0,0.0,0.0,1.933,1.9846,1.9518,1.9649,2.0677,2.0869,2.1031,2.125,2.1745,2.2423,2.3308,2.3332,2.3858,2.4946,2.4958,2.5222,2.5816,2.587,2.6324,2.7079,2.7403,2.7469,0.0,2.7469,0.0,0.0,0.0,0.0,0.0,0.0,0.0,0.0,0.0,0.0,0.0,0.0,0.0,0.0,0.0,0.0,0.0,0.0,0.0,0.0,0.0,0.0,0.0,0.0,0.0,0.0,0.0,0.0,0.0,0.0,0.0,0.0,0.0,0.0,0.0,0.0,0.0,0.0,0.0,0.0,0.0,0.0,0.0,0.0,0.0,0.0,0.0,0.0,0.0,0.0,0.0,0.0,0.0,0.0,0.0,0.0,0.0,0.0,0.0,0.0,0.0,0.0,0.0,3.8504,3.8678,3.8995,3.9279,3.9401,3.9335,3.8338,3.827,3.8891,0.0,0.0,0.0,0.0,0.0,0.0,0.0,0.0,0.0,0.0,0.0,0.0,0.0,0.0,0.0,0.0,0.0,0.0,0.0,0.0,1.9131,1.9198,1.9649,1.9781,1.9396,1.9911,2.0651,2.1709,2.1874,2.2704,2.4489,2.4578,2.4893,2.5485,2.5485,2.5841,2.6531,2.6883,2.7191,2.7469,0.0,0.0,0.0,2.7456,2.7523,0.0,0.0,0.0,0.0,0.0,0.0,0.0,0.0,0.0,0.0,0.0,0.0,0.0,0.0,0.0,0.0,0.0,0.0,0.0,0.0,0.0,0.0,0.0,0.0,0.0,0.0,0.0,0.0,0.0,0.0,0.0,0.0,0.0,0.0,0.0,0.0,0.0,0.0,0.0,0.0,0.0,0.0,3.5284,3.5379,0.0,0.0,0.0,0.0,0.0,0.0,0.0,0.0,0.0,0.0,0.0,0.0,0.0,0.0,3.7799,3.8423,3.875,3.875,3.904,3.9202,3.9255,3.9309,3.9309,3.9309,3.9163,0.0,3.9732,3.9682,0.0,0.0,0.0,0.0,0.0,0.0,0.0,0.0,0.0,0.0,0.0,0.0,0.0,0.0,0.0,0.0,0.0,0.0,0.0,0.0,0.0,1.933,1.9396,1.9131,1.9961,2.0532,2.0728,2.1329,2.2377,2.3919,2.3614,2.4273,2.6076,2.5654,2.5983,2.7183,2.7472,2.7915,0.0,0.0,0.0,0.0,2.8516,2.815,0.0,0.0,0.0,0.0,0.0,0.0,0.0,0.0,0.0,0.0,0.0,0.0,0.0,0.0,0.0,0.0,0.0,0.0,0.0,0.0,0.0,0.0,0.0,0.0,0.0,0.0,0.0,0.0,0.0,0.0,0.0,0.0,0.0,0.0,0.0,0.0,0.0,0.0,0.0,0.0,0.0,3.5774,3.6121,3.6516,3.6564,3.6564,0.0,0.0,0.0,0.0,0.0,0.0,0.0,0.0,0.0,3.748,3.7626,3.7685,3.7685,3.7918,3.8091,3.8091,3.8205,3.8262,3.8319,3.8672,3.8782,3.8838,3.9164,3.9379,3.959,3.959,3.9884,4.037,0.0,0.0,0.0,0.0,0.0,4.1318,0.0,0.0,0.0,0.0,0.0,0.0,0.0,0.0,0.0,0.0,0.0,0.0,1.9075,1.9075,1.9116,1.9297,2.0027,2.0529,2.0439,2.1269,2.2284,2.3523,2.3213,2.4035,2.6,2.5922,2.6473,2.7761,2.8055,0.0,0.0,0.0,0.0,0.0,0.0,0.0,0.0,0.0,0.0,0.0,0.0,0.0,0.0,0.0,0.0,0.0,0.0,0.0,0.0,0.0,0.0,0.0,0.0,0.0,0.0,0.0,0.0,0.0,0.0,0.0,0.0,0.0,0.0,0.0,0.0,0.0,0.0,0.0,0.0,0.0,0.0,0.0,0.0,0.0,0.0,0.0,0.0,3.6579,3.6896,3.7417,3.748,3.748,0.0,0.0,0.0,0.0,0.0,0.0,3.748,3.748,3.748,3.748,3.748,3.748,3.748,3.7583,3.7583,3.7583,3.7875,3.7971,3.803,3.873,3.8943,3.878,3.9336,3.9454,3.9272,3.9272,3.9537,3.9901,3.9798,4.0003,4.0417,4.0628,4.0789,4.0913,0.0,0.0,0.0,0.0,0.0,0.0,0.0,0.0,0.0,0.0,0.0,1.9075,1.9075,1.9075,1.9251,1.9754,1.9817,2.054,2.2067,2.2226,2.2795,2.3979,2.4755,2.5075,2.4906,2.6502,2.7576,2.804,0.0,0.0,0.0,0.0,0.0,0.0,0.0,0.0,0.0,0.0,0.0,0.0,0.0,0.0,0.0,0.0,0.0,0.0,0.0,0.0,0.0,0.0,0.0,0.0,0.0,0.0,0.0,0.0,0.0,0.0,0.0,0.0,0.0,0.0,0.0,0.0,0.0,0.0,0.0,0.0,0.0,0.0,0.0,0.0,0.0,0.0,0.0,0.0,0.0,0.0,0.0,3.748,3.748,0.0,0.0,0.0,0.0,3.748,3.748,3.748,3.748,3.748,3.748,3.748,3.748,3.748,3.748,3.7727,3.7886,3.7902,3.8866,3.9305,3.9321,4.0335,4.0418,3.9829,4.0222,3.9918,3.9272,3.9272,3.9537,3.9849,3.9484,3.9747,4.0351,4.007,4.0154,4.0497,0.0,0.0,0.0,0.0,0.0,1.9075,1.9075,1.9075,1.9075,1.9075,1.9075,1.9075,1.9075,1.9401,1.965,1.9817,2.0296,2.0917,2.1523,2.1829,2.236,2.3338,2.3425,2.3809,2.4426,2.6281,2.7235,2.7393,0.0,0.0,0.0,0.0,0.0,0.0,0.0,0.0,0.0,0.0,0.0,0.0,0.0,0.0,0.0,0.0,0.0,0.0,0.0,0.0,0.0,0.0,0.0,0.0,0.0,0.0,0.0,0.0,0.0,0.0,0.0,0.0,0.0,0.0,0.0,0.0,0.0,0.0,0.0,0.0,0.0,0.0,0.0,0.0,0.0,0.0,0.0,0.0,0.0,0.0,0.0,3.748,3.748,0.0,3.748,3.748,3.748,3.748,3.748,3.748,3.748,3.748,3.748,3.748,3.7907,3.8144,3.8144,3.8676,3.8944,3.8944,3.9304,3.9553,3.981,4.0351,4.0645,4.0607,4.0932,4.0895,4.0647,4.0647,4.0209,3.9484,3.9379,3.9468,3.9713,3.9833,3.9986,4.0104,0.0,0.0,0.0,0.0,1.9075,1.9075,1.9075,1.9075,1.9075,1.9075,1.9075,1.9075,1.9075,1.9557,1.982,1.9975,2.0679,2.1186,2.1342,2.1631,2.2098,2.2788,2.3019,2.3647,2.477,2.6267,2.7002,0.0,0.0,0.0,0.0,0.0,0.0,0.0,0.0,0.0,0.0,0.0,0.0,0.0,0.0,0.0,2.9836,0.0,0.0,0.0,0.0,0.0,0.0,0.0,0.0,0.0,0.0,0.0,0.0,0.0,0.0,0.0,0.0,0.0,0.0,0.0,0.0,0.0,0.0,0.0,0.0,0.0,0.0,0.0,0.0,0.0,0.0,0.0,0.0,0.0,0.0,0.0,3.748,3.748,3.748,3.748,3.748,3.748,3.748,3.748,3.748,3.748,3.748,3.7701,3.7828,3.7828,3.8491,3.8855,3.8855,3.9281,3.9503,3.9503,3.9756,3.9992,4.0196,4.0791,4.1079,4.1151,4.1502,4.1526,4.1409,4.1409,4.0845,3.9984,3.9736,3.9653,3.9674,3.9673,3.9694,3.9781,0.0,0.0,0.0,1.9075,1.9075,1.9075,1.9075,1.9075,1.9075,1.9075,1.9075,1.9075,1.9085,1.9567,1.9955,2.041,2.0866,2.1331,2.1776,2.1818,2.2035,2.2522,2.3625,2.4692,2.5781,2.6405,0.0,0.0,0.0,0.0,0.0,0.0,0.0,0.0,0.0,0.0,0.0,0.0,0.0,0.0,0.0,0.0,3.0934,0.0,0.0,0.0,0.0,0.0,0.0,0.0,0.0,0.0,0.0,0.0,0.0,0.0,0.0,0.0,0.0,0.0,0.0,0.0,0.0,0.0,0.0,0.0,0.0,0.0,0.0,0.0,0.0,0.0,0.0,0.0,0.0,0.0,3.748,3.748,3.748,3.748,3.748,3.748,3.748,3.748,3.7496,3.7512,3.7512,3.7512,3.7543,3.8175,3.8539,3.8539,3.9187,3.9534,3.9534,3.9534,3.9534,3.9534,4.023,4.0561,4.0657,4.1614,4.1868,4.1549,4.1896,4.1815,4.1475,4.1475,4.1475,4.1409,4.0696,4.0415,4.0315,3.9603,3.9392,3.9481,0.0,0.0,1.8998,1.9075,1.9075,1.9075,1.9075,1.9075,1.9075,1.9075,1.9075,1.9199,1.9599,1.9975,2.042,2.0886,2.1352,2.1662,2.1797,2.2118,2.2735,2.3709,2.3585,2.4101,2.5365,0.0,0.0,0.0,0.0,0.0,0.0,0.0,0.0,0.0,0.0,0.0,0.0,0.0,0.0,0.0,0.0,0.0,3.096,0.0,0.0,0.0,0.0,0.0,0.0,0.0,0.0,0.0,0.0,0.0,0.0,0.0,0.0,0.0,0.0,0.0,0.0,0.0,0.0,0.0,0.0,0.0,0.0,0.0,0.0,0.0,0.0,0.0,0.0,0.0,0.0,3.748,3.748,3.748,3.748,3.748,3.748,3.748,3.748,3.748,3.7686,3.8191,3.8239,3.8444,3.8918,3.9123,3.9234,3.9234,3.9929,4.0293,4.0293,4.0293,4.0293,4.0293,3.9961,4.0054,4.0562,4.08,4.1422,4.2209,4.2327,4.2584,4.3015,4.3015,4.3015,4.2883,4.1624,4.1127,4.111,4.0895,4.0829,4.0868,0.0,1.8942,1.9075,1.9075,1.9075,1.9075,1.9075,1.9075,1.9075,1.9075,1.9075,1.9251,1.9775,2.0162,2.0617,2.1073,2.1538,2.1807,2.1807,2.2418,2.3109,2.3731,2.3856,2.4242,0.0,0.0,0.0,0.0,0.0,0.0,0.0,0.0,0.0,0.0,0.0,0.0,0.0,0.0,0.0,0.0,0.0,0.0,3.0986,3.0986,3.0986,3.0986,3.0986,3.0764,3.049,3.0564,0.0,0.0,0.0,0.0,0.0,0.0,0.0,0.0,0.0,0.0,0.0,0.0,0.0,0.0,0.0,0.0,0.0,0.0,0.0,0.0,0.0,0.0,0.0,0.0,3.748,3.748,3.748,3.748,3.748,3.748,3.7733,3.7923,3.7923,3.816,3.8491,3.8902,3.8934,3.9092,3.9487,3.9787,3.9819,3.9518,4.0214,4.0451,4.0151,4.0451,4.0609,4.0609,4.0451,4.0563,4.0956,4.1142,4.1659,0.0,4.267,4.3261,4.4075,4.4075,4.4075,0.0,0.0,0.0,0.0,0.0,4.1409,4.1465,0.0,1.9008,1.9075,1.9075,1.9075,1.9075,1.9075,1.9075,1.9075,1.9075,1.9075,1.9328,1.9779,2.0193,2.0627,2.1145,2.1569,2.1828,2.188,2.2656,2.3153,2.3338,2.4273,2.4734,0.0,0.0,0.0,0.0,0.0,0.0,0.0,0.0,0.0,0.0,0.0,0.0,0.0,0.0,0.0,0.0,0.0,0.0,3.0986,3.0986,3.0986,3.0986,3.0986,3.0986,3.1061,3.1198,0.0,0.0,0.0,0.0,0.0,0.0,0.0,0.0,0.0,0.0,0.0,0.0,0.0,0.0,0.0,0.0,0.0,0.0,0.0,0.0,0.0,0.0,0.0,0.0,3.748,3.748,3.748,3.7543,3.7591,3.7591,3.8144,3.8539,3.8618,3.9155,3.9534,3.9629,3.955,3.9534,3.9629,0.0,0.0,0.0,0.0,4.0293,3.9629,4.0277,4.0609,4.0609,4.1193,4.1543,4.1609,4.2013,4.2397,4.2824,4.315,4.3883,4.4804,4.4804,4.4804,4.4671,4.3214,4.2634,4.2568,4.1905,4.1674,0.0,0.0,1.9075,1.9075,1.9075,1.9075,1.9075,1.9075,1.9075,1.9075,1.9075,1.9075,1.9385,2.0203,2.0369,2.0762,2.16,2.1756,2.1963,2.2335,0.0,2.3047,2.396,0.0,0.0,0.0,0.0,0.0,0.0,0.0,0.0,0.0,0.0,0.0,0.0,0.0,0.0,0.0,0.0,0.0,0.0,0.0,0.0,3.0986,3.0986,3.0986,3.0986,3.0986,3.0986,3.0986,3.1061,3.1061,3.1061,3.1272,0.0,0.0,0.0,0.0,0.0,0.0,0.0,0.0,0.0,0.0,0.0,0.0,0.0,0.0,0.0,0.0,0.0,0.0,0.0,0.0,3.748,3.748,3.748,3.748,3.7954,3.8318,3.8318,3.8428,3.8728,3.925,3.9424,3.9756,4.034,3.9835,3.9756,4.0356,3.9961,0.0,3.9503,4.0214,4.053,4.0388,4.053,4.0609,4.0609,0.0,0.0,4.1606,4.2217,4.316,4.429,4.4351,4.4842,4.5582,4.5582,4.5582,4.5433,4.3976,4.3413,4.3396,4.3247,4.3197,4.3197,0.0,1.9075,1.9075,1.9075,1.9075,1.9075,1.9075,1.9075,1.9075,1.9075,1.9075,1.9417,2.0327,2.042,2.0793,2.1725,2.1883,2.1977,0.0,2.2444,2.3039,2.3822,0.0,0.0,0.0,0.0,0.0,0.0,0.0,0.0,0.0,0.0,0.0,0.0,0.0,0.0,0.0,0.0,0.0,0.0,0.0,0.0,3.0419,3.0823,3.0986,3.0986,3.0986,3.0986,3.0986,3.0986,3.0986,3.0986,3.1123,3.1286,3.1522,0.0,0.0,0.0,0.0,0.0,0.0,0.0,0.0,0.0,0.0,0.0,0.0,0.0,0.0,3.7076,3.7241,0.0,3.748,3.748,3.748,3.7607,3.7938,3.8302,3.8507,3.8507,3.9123,3.9692,4.0024,4.0056,4.0198,4.0577,3.9914,3.9661,4.004,3.9708,3.9503,3.9503,3.9866,4.0056,4.0056,4.0751,4.1099,4.1099,4.181,4.2407,4.2993,4.346,4.4201,4.4986,4.5173,4.5665,4.6344,4.6344,4.6344,4.6228,4.5135,4.4705,4.4705,4.4705,4.4705,4.4655,0.0,1.894,1.8961,1.9054,1.9075,1.9075,1.9075,1.9142,1.9142,1.9075,1.9142,1.9453,2.0203,2.0379,2.0793,2.18,2.2025,2.2025,0.0,2.2475,2.3014,2.3486,2.3794,0.0,0.0,0.0,0.0,0.0,0.0,0.0,0.0,0.0,0.0,0.0,0.0,0.0,0.0,0.0,0.0,0.0,0.0,0.0,2.9781,3.0508,3.0823,3.0986,3.0986,3.0986,3.0986,3.0986,3.0986,3.0986,3.1061,3.1286,3.1535,3.1609,3.2286,0.0,0.0,0.0,0.0,0.0,0.0,0.0,0.0,0.0,3.6492,3.6554,3.6816,3.7015,3.7076,3.7301,3.748,3.748,3.7591,3.7875,3.8428,3.8744,3.8918,3.8918,3.9914,4.0609,4.0609,4.0609,4.0546,4.0403,3.9724,3.9313,3.9313,3.9313,3.9313,3.9313,3.9692,3.9914,3.9914,4.1304,4.1999,4.1999,4.3295,4.4119,4.4581,4.4994,4.5456,4.5846,4.6102,4.656,4.7106,4.7106,4.7106,4.7057,4.646,4.6228,4.6179,4.5897,4.5798,4.5715,0.0,1.8454,1.8589,1.9003,1.9075,1.9075,1.9075,1.9208,1.9208,1.9142,1.9208,1.9473,1.9996,2.0263,2.0866,2.1941,2.2111,0.0,2.2327,2.2618,2.3014,2.3486,2.3958,2.4252,0.0,0.0,0.0,0.0,0.0,0.0,0.0,0.0,0.0,0.0,0.0,0.0,0.0,0.0,0.0,0.0,0.0,0.0,2.9704,2.9781,3.0343,3.0986,3.0986,3.0986,3.0986,3.0986,3.0986,3.1061,3.1198,3.1272,3.1421,3.1743,0.0,3.2359,3.3768,3.5255,3.6414,3.6492,3.6492,3.6492,0.0,0.0,3.6554,3.6877,3.6938,3.706,3.7361,3.748,3.748,3.748,3.8002,3.8428,3.8507,3.9582,4.0372,4.0372,4.0498,4.0609,4.0609,4.0609,4.0324,3.9677,3.9013,3.8618,3.8618,3.8618,3.8618,3.8618,4.0403,4.1351,4.1351,4.2774,4.3469,4.3453,4.4227,4.4941,4.5643,4.6358,4.7057,4.7687,4.7752,4.7802,4.7885,4.7885,4.7885,4.7868,4.7785,4.7752,4.7603,4.6278,4.5798,4.5781,0.0,0.0,1.8444,1.864,1.8955,1.9208,1.9131,1.9341,1.9407,1.9131,1.9208,1.9463,1.9933,2.0684,2.1376,2.2048,2.2327,0.0,2.2402,2.2594,2.3107,2.3865,2.3928,2.4302,2.485,0.0,0.0,0.0,0.0,0.0,0.0,0.0,0.0,0.0,0.0,0.0,0.0,0.0,0.0,0.0,0.0,0.0,2.9057,3.0101,3.0659,3.0986,3.0986,3.0986,0.0,0.0,3.1061,3.1198,3.1272,3.1434,3.1656,3.1817,3.1963,0.0,3.3905,3.5059,0.0,0.0,3.6492,3.6492,3.6492,3.6492,3.6554,3.68,3.6938,3.706,3.727,3.7405,3.7607,0.0,3.8318,3.8792,3.9613,4.023,4.0735,4.113,4.1178,4.102,4.064,4.0214,3.9677,3.8981,3.8302,3.7907,3.7907,3.8302,3.8886,3.9708,4.0941,4.1983,4.2821,4.3801,4.429,4.429,4.5001,4.5761,4.6439,4.6747,4.7302,4.8001,4.8001,4.8001,4.8001,4.8001,4.8001,4.8001,4.8001,4.8001,4.7934,4.7305,4.7073,4.7023,0.0,0.0,0.0,1.8415,1.8856,1.9194,1.9187,1.9407,1.9539,1.9274,1.9341,1.953,1.9933,2.096,2.17,2.2019,2.2478,0.0,0.0,2.2628,2.2993,2.3978,2.3902,0.0,2.4998,2.4967,0.0,0.0,0.0,0.0,0.0,0.0,0.0,0.0,0.0,0.0,0.0,0.0,0.0,0.0,0.0,0.0,2.8505,2.9781,3.0583,3.0986,3.0986,3.0986,0.0,0.0,3.1123,3.1347,3.136,3.1582,3.189,3.1963,3.2372,3.2974,3.4041,0.0,0.0,3.6367,3.6492,3.6492,3.6492,3.6554,3.6616,3.6723,3.6923,3.7105,3.7254,3.7405,3.7701,3.8397,3.8665,3.9202,4.0435,4.0751,4.1051,4.1525,4.143,4.1051,4.0356,3.9819,3.9155,3.8302,3.7765,3.7559,3.7749,3.8602,3.9645,4.0846,4.1904,4.2947,4.399,4.467,4.5017,4.5017,4.5555,4.6223,4.6892,4.7098,4.7504,4.8001,4.8001,4.8001,4.8001,4.8001,4.8001,4.8001,4.8001,4.8001,4.8001,4.8001,4.8001,4.7918,0.0,0.0,0.0,0.0,1.8797,1.9019,1.9278,1.9483,1.9605,1.9605,1.9605,1.973,2.0002,2.0754,2.1517,2.197,0.0,0.0,2.3001,2.2628,2.2691,2.3414,2.372,2.4121,2.4541,2.4977,0.0,0.0,0.0,0.0,0.0,0.0,0.0,0.0,0.0,0.0,0.0,0.0,0.0,0.0,0.0,0.0,2.8426,2.8426,2.9537,3.0986,3.0986,0.0,0.0,0.0,3.1123,3.1347,3.1522,3.1757,0.0,3.2109,3.3185,3.4245,3.4312,0.0,3.6492,3.6492,3.6492,3.6492,3.6492,3.66,3.6723,3.6938,3.7105,3.7254,3.7464,3.748,3.7701,3.8397,3.906,3.974,4.0498,4.1146,4.1573,4.1588,4.102,4.034,0.0,3.9518,3.895,3.7607,3.7496,3.7765,3.8444,3.9787,4.0846,4.1541,4.3548,4.4638,4.4685,4.5412,4.5776,4.5776,4.5807,4.6223,4.6945,4.7654,4.8001,4.8001,4.8001,4.8001,4.8001,4.8001,4.8001,4.8001,4.8001,4.8001,4.8001,4.8001,4.8001,4.8001,0.0,0.0,0.0,0.0,0.0,1.8956,1.9201,1.9619,1.9878,1.9605,1.9736,0.0,0.0,0.0,0.0,0.0,0.0,0.0,2.2756,2.2777,2.2994,2.3403,2.3654,2.4029,2.4652,2.4812,2.4965,0.0,0.0,0.0,0.0,0.0,0.0,0.0,0.0,0.0,0.0,0.0,0.0,0.0,0.0,0.0,2.8505,2.9704,3.0508,3.0986,0.0,0.0,0.0,0.0,3.1211,3.1522,3.1596,0.0,3.2109,3.2182,3.2832,3.3699,3.4177,3.4993,3.5879,3.6352,3.6492,3.6492,3.6492,3.6554,3.6677,3.6938,3.706,3.7165,3.748,3.748,3.7859,3.8981,3.936,3.9914,4.1099,4.1446,4.1588,4.1588,4.1004,0.0,0.0,0.0,0.0,3.7543,3.748,3.797,3.9108,4.0087,4.1336,4.2947,4.4117,4.4938,4.5444,4.5697,4.5807,4.5807,4.5799,4.6027,4.6484,4.7061,4.7272,4.7305,4.7785,4.8001,4.7968,4.7471,4.7272,4.7222,4.6725,4.6527,4.6527,4.6527,4.6841,4.7338,0.0,0.0,0.0,0.0,0.0,0.0,0.0,0.0,0.0,0.0,0.0,0.0,0.0,0.0,0.0,0.0,0.0,0.0,0.0,0.0,2.2993,2.3232,2.3481,2.3861,2.4389,2.4573,2.4812,2.5029,0.0,0.0,0.0,0.0,0.0,0.0,0.0,0.0,0.0,0.0,0.0,0.0,0.0,0.0,2.8991,3.0101,3.0748,0.0,0.0,0.0,0.0,0.0,0.0,3.1683,3.1683,3.1963,3.2182,3.2182,3.2832,3.3699,3.4177,3.5059,3.5879,3.6352,3.6492,3.6492,3.6492,3.6554,3.6616,3.6862,3.6984,3.7244,3.7692,3.7654,3.8017,3.9629,3.9677,3.9993,4.1399,4.1588,4.1494,4.1257,4.0625,3.9929,0.0,0.0,0.0,3.7512,3.7701,3.8444,3.9819,4.0814,4.2189,4.4022,4.4749,4.5333,4.5807,4.5807,4.5753,4.5556,4.552,4.5635,4.5947,4.635,4.6643,4.6908,4.7123,4.7355,4.7554,4.6808,4.651,4.646,4.598,4.5798,4.5798,4.5798,4.6096,4.6609,0.0,0.0,0.0,0.0,0.0,0.0,0.0,0.0,0.0,0.0,0.0,0.0,0.0,0.0,0.0,0.0,0.0,0.0,0.0,0.0,0.0,2.3001,2.3221,2.347,2.3733,2.4239,2.4538,2.4783,0.0,0.0,0.0,0.0,0.0,0.0,0.0,0.0,0.0,0.0,0.0,0.0,0.0,0.0,2.9704,2.9781,0.0,0.0,0.0,0.0,0.0,0.0,0.0,3.189,3.189,3.2036,3.2182,3.2182,3.3185,3.4245,3.4312,3.5335,3.6429,3.6492,3.6492,3.6492,3.6492,3.66,3.6723,3.6723,3.6984,3.7461,0.0,0.0,3.8239,4.0277,4.0008,4.0024,4.1399,4.1588,4.1351,0.0,0.0,0.0,0.0,0.0,0.0,3.7528,0.0,3.9139,4.0577,4.1952,4.3327,4.4717,4.5444,4.5807,4.5807,4.5776,4.5611,4.5261,4.4946,4.4919,4.5306,4.5606,4.6129,4.6742,4.6079,4.6195,4.6792,4.6046,4.5732,4.5732,4.5698,4.5682,4.5682,4.5715,4.5765,4.5897,0.0,0.0,0.0,0.0,0.0,0.0,0.0,0.0,0.0,0.0,0.0,0.0,0.0,0.0,0.0,0.0,0.0,0.0,0.0,0.0,0.0,0.0,0.0,0.0,0.0,0.0,0.0,0.0,0.0,0.0,0.0,0.0,0.0,0.0,0.0,0.0,0.0,0.0,0.0,0.0,0.0,0.0,2.9781,0.0,0.0,0.0,0.0,0.0,0.0,0.0,0.0,3.1963,3.2109,3.2182,3.2182,3.2182,3.2832,3.363,3.4177,3.4993,3.58,3.6352,3.6492,3.6492,3.6492,3.6554,3.6616,3.6877,3.7389,3.7903,0.0,0.0,0.0,4.0419,4.0451,0.0,4.1462,4.1588,0.0,4.0688,0.0,3.925,3.8586,3.7875,0.0,0.0,3.8412,3.9345,4.1241,4.2205,4.3564,4.5476,4.5713,4.5807,4.5807,4.5484,4.5453,4.5656,4.4773,4.4505,4.4847,4.497,4.5069,4.5268,4.5632,4.5897,4.6013,4.5268,4.497,4.492,4.439,4.4175,4.4241,4.4771,4.5317,4.596,0.0,0.0,0.0,0.0,0.0,0.0,0.0,0.0,0.0,0.0,0.0,0.0,0.0,0.0,0.0,0.0,0.0,0.0,0.0,0.0,0.0,0.0,0.0,0.0,0.0,0.0,0.0,0.0,0.0,0.0,0.0,0.0,0.0,0.0,0.0,0.0,0.0,0.0,0.0,0.0,0.0,0.0,0.0,0.0,0.0,0.0,0.0,0.0,0.0,0.0,0.0,3.2036,3.2182,3.2182,3.2241,3.2574,3.3157,3.3837,3.4581,3.5335,3.6006,3.6414,3.6492,3.6492,3.6492,3.6554,3.6662,3.68,3.753,0.0,3.8763,3.9188,0.0,0.0,0.0,0.0,4.1494,4.1336,4.0893,0.0,3.9487,0.0,3.8128,3.7986,3.8096,0.0,3.9076,4.0198,4.1983,4.3026,4.4259,4.576,4.5807,4.5737,4.5548,4.5043,4.4857,4.5082,4.415,4.392,4.4224,4.4224,4.439,4.4688,0.0,4.5019,4.5251,4.4522,4.4406,4.4655,4.4241,4.4291,4.4622,4.5019,4.5433,4.591,0.0,0.0,0.0,0.0,0.0,0.0,0.0,0.0,0.0,0.0,2.0772,0.0,0.0,0.0,0.0,0.0,0.0,0.0,0.0,0.0,0.0,0.0,0.0,0.0,0.0,0.0,0.0,0.0,0.0,0.0,0.0,0.0,0.0,0.0,0.0,0.0,0.0,0.0,0.0,0.0,0.0,0.0,0.0,0.0,0.0,0.0,0.0,0.0,0.0,0.0,3.2182,3.2182,3.2182,3.2241,3.2444,3.3017,3.3754,3.4581,3.527,3.5943,3.6492,3.6492,3.6492,3.6492,3.6492,3.66,3.6723,3.6723,0.0,3.8654,3.922,3.9598,4.0166,4.1399,0.0,4.0941,4.1509,4.1099,4.0435,3.9598,3.8997,3.8381,3.7686,3.816,3.8618,3.8902,4.0135,4.1415,4.2616,4.3974,4.5049,4.5792,4.5807,4.5635,4.5352,4.4621,4.4316,4.4311,4.3522,4.3295,4.3628,4.3628,4.3959,4.4506,0.0,0.0,4.4638,4.4026,4.4191,4.4837,4.4837,4.5235,4.5798,4.596,4.6055,4.6117,0.0,0.0,0.0,0.0,0.0,0.0,0.0,0.0,0.0,0.0,2.0251,2.0699,0.0,0.0,0.0,0.0,0.0,0.0,0.0,0.0,0.0,0.0,0.0,0.0,0.0,0.0,0.0,0.0,0.0,0.0,0.0,0.0,0.0,0.0,0.0,0.0,0.0,0.0,0.0,0.0,0.0,0.0,0.0,0.0,0.0,0.0,0.0,0.0,0.0,0.0,3.2182,3.2182,3.2182,3.2561,3.3017,3.3157,3.4177,3.527,3.54,3.5943,3.6492,3.6492,3.6492,3.6492,3.6492,3.66,0.0,0.0,3.8106,3.9188,3.9424,4.0451,4.1304,4.1541,4.1494,4.1462,4.1573,4.1494,4.0941,0.0,3.9408,3.906,3.8397,0.0,0.0,0.0,0.0,4.2426,4.2679,4.3974,4.5049,4.5792,4.5807,4.5873,4.6109,4.5134,4.4772,4.5095,4.4014,4.3552,4.3628,4.3628,4.3694,4.3794,0.0,0.0,4.4671,4.4556,4.4937,4.5599,4.5599,4.5682,4.5926,4.6943,4.7267,4.7474,0.0,0.0,0.0,0.0,0.0,0.0,0.0,1.931,1.9685,1.9964,2.0409,2.0807,2.102,2.1311,2.1411,0.0,0.0,0.0,0.0,0.0,0.0,0.0,0.0,0.0,0.0,0.0,0.0,0.0,0.0,0.0,0.0,0.0,0.0,0.0,0.0,0.0,0.0,0.0,0.0,0.0,0.0,0.0,0.0,0.0,0.0,0.0,0.0,0.0,0.0,0.0,3.2182,3.2182,3.2182,3.2444,3.2832,3.3561,3.4245,3.4993,3.5737,3.6211,3.6492,3.6492,3.6492,3.6492,3.6616,0.0,0.0,0.0,3.8309,3.944,3.9503,4.064,4.1588,4.1588,4.1588,4.1588,4.1588,4.1288,4.0688,3.9629,3.9187,3.8855,0.0,3.8823,0.0,0.0,0.0,4.3374,4.3722,4.4717,4.5444,4.5807,4.5807,4.5889,4.6035,4.5511,4.5391,4.553,4.5024,4.4556,4.4175,4.4175,4.3976,4.3645,4.4026,0.0,4.4721,4.5102,4.5698,4.6361,4.6361,4.6609,4.7038,4.786,4.7994,4.8044,0.0,0.0,0.0,0.0,0.0,0.0,0.0,1.942,1.9568,1.9944,2.0527,2.084,2.089,2.1533,2.1788,0.0,0.0,0.0,0.0,0.0,0.0,0.0,0.0,0.0,0.0,0.0,0.0,0.0,0.0,0.0,0.0,0.0,0.0,0.0,0.0,0.0,0.0,0.0,0.0,0.0,0.0,0.0,0.0,0.0,0.0,0.0,0.0,0.0,0.0,0.0,3.2314,3.2444,3.2444,3.2588,3.2917,3.4177,3.4647,3.4993,3.6211,3.6492,3.6492,3.6492,3.6492,3.6554,3.6662,3.6862,0.0,3.7194,3.8416,3.9503,3.9503,4.064,4.1588,0.0,4.1588,4.1588,4.1588,4.1146,4.0482,0.0,3.9029,0.0,3.8728,3.9187,0.0,0.0,0.0,0.0,4.4922,4.5507,4.5807,4.5807,4.5864,4.5936,4.6034,4.594,4.5914,4.603,4.5864,4.54,4.4688,4.4688,4.4373,4.3893,4.444,0.0,0.0,4.5906,4.6633,4.7315,4.7425,4.7775,4.8356,4.8827,4.881,4.8685,0.0,0.0,0.0,0.0,0.0,0.0,0.0,1.942,1.9433,1.9482,1.992,2.0447,2.0929,2.1991,2.2616,0.0,0.0,0.0,0.0,0.0,0.0,0.0,0.0,0.0,0.0,0.0,0.0,0.0,0.0,0.0,0.0,0.0,0.0,0.0,0.0,0.0,0.0,0.0,0.0,0.0,0.0,0.0,0.0,0.0,0.0,0.0,0.0,0.0,0.0,0.0,0.0,3.3157,3.3297,3.3699,3.4245,3.5059,3.58,0.0,3.6492,3.6492,3.6492,3.6492,3.6492,3.6554,3.6662,0.0,3.706,3.7194,3.8416,3.9503,3.9503,4.064,0.0,0.0,0.0,4.1588,4.1588,4.1541,4.1004,3.9661,0.0,0.0,3.9408,3.9455,0.0,0.0,0.0,0.0,4.5713,4.5776,4.5807,4.5807,4.612,4.641,4.6795,4.6452,4.6438,4.6792,4.6113,4.54,4.4688,4.4688,4.4655,4.4589,4.4655,0.0,0.0,4.7228,4.7866,4.8601,4.8999,4.9231,4.9342,4.9815,5.0085,5.0349,0.0,0.0,0.0,0.0,0.0,0.0,1.9733,1.9823,1.9875,1.9875,2.0366,2.0806,2.1033,2.2052,2.2739,2.2714,0.0,0.0,0.0,0.0,0.0,0.0,0.0,0.0,0.0,0.0,0.0,0.0,0.0,0.0,0.0,0.0,0.0,0.0,0.0,0.0,0.0,0.0,0.0,0.0,0.0,0.0,0.0,0.0,0.0,0.0,0.0,0.0,0.0,0.0,0.0,0.0,3.4298,3.4846,0.0,0.0,3.5706,3.6054,3.6523,3.6739,3.6816,3.6816,3.6816,3.6816,3.6952,0.0,3.715,3.7329,3.8493,3.9503,3.9503,4.064,0.0,0.0,0.0,0.0,4.1588,4.1588,4.1241,4.0277,3.9771,0.0,0.0,0.0,0.0,0.0,0.0,0.0,4.5807,4.5992,4.612,4.612,4.6458,4.686,4.7218,4.7059,4.7194,4.7554,4.7255,4.6742,4.6013,4.6013,4.5765,4.5367,4.6107,0.0,0.0,4.8186,4.8663,4.8765,4.9239,4.9402,4.9462,5.0142,5.0237,5.022,0.0,0.0,0.0,0.0,0.0,1.9965,2.0029,2.0131,2.0182,2.0182,2.0591,2.0925,2.1091,2.1963,2.2585,2.2695,2.2834,0.0,0.0,0.0,0.0,0.0,0.0,0.0,0.0,0.0,2.2864,2.3131,2.3553,0.0,0.0,0.0,0.0,0.0,0.0,0.0,0.0,0.0,0.0,0.0,0.0,0.0,0.0,0.0,0.0,0.0,0.0,0.0,0.0,0.0,0.0,0.0,0.0,0.0,0.0,0.0,3.6039,3.6117,3.6662,3.6877,3.7015,3.7015,3.7015,3.706,0.0,0.0,3.7254,3.7464,3.8397,3.9266,3.9455,4.0482,4.1367,0.0,0.0,4.1588,4.1588,4.1588,4.1351,4.0688,0.0,3.9708,0.0,0.0,0.0,0.0,0.0,0.0,0.0,4.612,4.6285,4.6285,4.6807,4.715,4.7404,4.7488,4.7704,4.8001,4.8001,4.7603,4.6891,4.6891,4.6609,4.6146,0.0,0.0,0.0,4.8775,4.9239,4.8995,4.9598,4.989,5.0045,5.055,5.0642,5.0607,0.0,0.0,0.0,0.0,0.0,0.0,2.0182,2.0182,2.0182,2.0182,2.0195,2.0463,2.1053,2.1591,2.2155,2.2744,2.3132,0.0,0.0,0.0,0.0,0.0,0.0,0.0,0.0,0.0,2.3779,2.4361,2.457,2.5742,2.7721,2.731,0.0,0.0,0.0,0.0,0.0,0.0,0.0,0.0,0.0,0.0,0.0,0.0,0.0,0.0,0.0,0.0,0.0,0.0,0.0,0.0,0.0,3.6477,0.0,0.0,3.7015,3.7015,3.7015,3.7015,3.7015,3.7015,3.7015,3.706,0.0,3.7194,3.7254,3.7464,3.8033,3.8728,3.9376,4.0103,4.083,4.1478,4.1588,0.0,4.1588,4.1588,4.1351,0.0,0.0,3.9503,3.9518,4.1415,0.0,0.0,0.0,0.0,0.0,4.612,4.6285,4.6285,4.6981,4.7421,4.7404,4.777,4.8001,4.8001,4.8001,4.7603,4.6891,4.6891,4.6891,0.0,0.0,0.0,0.0,4.8995,4.9419,4.9462,5.0509,5.1034,5.1281,5.1298,5.164,5.2084,0.0,0.0,0.0,0.0,0.0,0.0,0.0,2.0498,2.0549,2.0549,2.0549,2.0614,2.0809,2.1329,2.1848,2.2473,2.3135,0.0,0.0,0.0,0.0,0.0,0.0,0.0,0.0,0.0,2.4295,2.4458,2.4883,2.5432,2.6089,2.6715,2.7149,2.7537,0.0,0.0,0.0,0.0,0.0,0.0,0.0,0.0,0.0,0.0,0.0,0.0,0.0,0.0,0.0,0.0,0.0,0.0,0.0,0.0,0.0,3.7361,3.7225,3.715,3.715,3.7225,3.7361,3.7361,3.7361,3.7361,3.7405,3.7405,3.7405,3.748,3.8033,3.8713,3.9376,4.0103,4.0814,4.1478,4.1588,0.0,0.0,0.0,0.0,4.1304,4.0672,4.0245,0.0,0.0,0.0,0.0,0.0,0.0,0.0,4.6404,4.6738,4.6738,4.7134,4.7555,4.7787,4.7935,4.8001,4.8001,4.8001,4.8063,4.8115,4.8115,0.0,0.0,0.0,0.0,0.0,5.0022,5.0194,4.9948,5.0637,5.1034,5.1333,5.1505,5.179,5.215,0.0,0.0,0.0,0.0,0.0,0.0,0.0,2.0662,2.0699,2.0699,2.0699,2.0712,2.0775,2.1274,2.176,2.2154,2.3247,0.0,0.0,0.0,0.0,0.0,0.0,0.0,0.0,2.4754,2.4924,2.5204,2.5418,2.5775,2.6282,2.6928,2.7321,2.7499,2.8245,0.0,0.0,0.0,0.0,0.0,0.0,0.0,3.0017,0.0,0.0,0.0,0.0,0.0,0.0,0.0,0.0,0.0,0.0,0.0,0.0,0.0,3.7508,3.7329,3.7329,3.7405,3.748,3.748,3.748,3.7401,3.7148,3.7085,3.7006,3.6753,3.7243,3.7938,3.8618,3.9534,4.0403,4.1099,4.1415,4.1588,0.0,0.0,0.0,4.1241,0.0,0.0,0.0,0.0,0.0,0.0,0.0,0.0,0.0,4.6545,4.6945,4.7082,4.7421,4.7787,4.8001,4.8179,4.8227,4.8244,4.8403,4.8702,4.8934,4.8934,0.0,0.0,0.0,0.0,0.0,5.0268,5.0436,5.0159,5.0784,5.1193,5.1487,5.174,5.2036,5.2293,0.0,0.0,0.0,0.0,0.0,0.0,0.0,2.0699,2.0699,2.0699,2.0699,2.0762,2.0888,2.14,2.1756,2.195,2.3546,0.0,0.0,0.0,0.0,0.0,0.0,0.0,2.5508,2.5563,2.5837,2.6404,2.6094,2.6608,2.7837,2.7729,2.7885,2.831,2.8467,2.8685,0.0,0.0,0.0,0.0,3.0172,3.0355,0.0,0.0,0.0,0.0,0.0,0.0,0.0,0.0,0.0,0.0,0.0,0.0,0.0,0.0,0.0,0.0,0.0,3.7539,3.748,3.7539,3.7539,3.7306,3.6643,3.6469,0.0,0.0,3.5932,3.6579,3.7338,3.8555,3.9692,4.0467,4.1146,4.1588,0.0,4.1588,0.0,0.0,4.0024,0.0,0.0,0.0,0.0,0.0,0.0,0.0,0.0,4.6705,4.7082,4.7404,4.7836,4.8066,4.8066,4.8467,4.8702,4.8765,4.9178,4.9402,4.9462,4.9462,0.0,0.0,0.0,0.0,0.0,5.0005,5.0176,5.0289,5.0999,5.1505,5.174,5.2005,5.2246,5.2498,0.0,0.0,0.0,0.0,0.0,0.0,0.0,0.0,0.0,0.0,2.0838,2.0875,2.0961,2.1461,2.1937,0.0,0.0,0.0,0.0,0.0,0.0,0.0,0.0,0.0,2.6534,2.6916,2.71,2.7115,2.7049,2.7137,2.735,2.735,2.7386,2.7495,2.7993,2.8788,0.0,0.0,0.0,0.0,3.0836,3.0895,0.0,0.0,0.0,0.0,3.1902,3.244,0.0,0.0,0.0,0.0,0.0,0.0,0.0,0.0,3.7399,3.7472,3.8019,0.0,3.7524,3.7727,3.7626,3.7433,0.0,3.6817,0.0,0.0,0.0,3.6011,3.7259,3.8175,3.9155,4.0403,4.1146,4.1588,4.1588,0.0,0.0,4.1367,4.0751,0.0,0.0,0.0,0.0,0.0,0.0,0.0,0.0,4.6653,4.7337,4.7404,4.8129,4.853,4.853,4.8639,4.8889,4.9239,4.9359,4.958,4.993,4.993,0.0,0.0,0.0,0.0,5.0582,5.0692,5.0838,5.1052,5.1228,5.1589,5.1987,5.2102,5.2246,5.2498,0.0,0.0,0.0,0.0,0.0,0.0,0.0,0.0,0.0,0.0,2.0974,2.0961,2.1082,2.1589,2.2047,0.0,0.0,0.0,0.0,0.0,0.0,0.0,0.0,2.7408,2.7408,2.7625,2.774,2.7655,2.7655,2.7604,2.7488,2.7539,2.7488,2.7401,2.8002,2.8631,2.9286,0.0,0.0,0.0,3.097,0.0,0.0,0.0,0.0,0.0,3.2114,3.2703,0.0,3.4249,3.4651,3.495,0.0,0.0,0.0,0.0,3.6859,3.6967,3.7861,3.802,3.7934,3.8091,3.8033,3.7854,3.7502,0.0,0.0,0.0,0.0,3.5457,3.611,3.7308,3.8502,3.9471,4.0482,0.0,0.0,0.0,4.1588,4.1588,4.1004,0.0,0.0,0.0,0.0,0.0,0.0,0.0,0.0,4.647,4.7194,4.7194,4.798,4.8467,4.8702,4.9118,4.9462,4.9698,4.9965,5.0194,5.0492,5.0492,5.0637,0.0,0.0,0.0,5.1088,5.1088,5.1246,5.1487,5.164,5.184,5.2084,5.2246,5.2405,5.2498,0.0,0.0,0.0,0.0,0.0,0.0,0.0,0.0,0.0,0.0,0.0,0.0,0.0,0.0,0.0,0.0,0.0,0.0,0.0,0.0,0.0,0.0,2.8118,2.8118,2.8118,2.8118,2.8103,2.8103,2.8103,2.8005,2.784,2.7955,2.789,2.7705,2.821,2.8405,2.8517,2.9754,0.0,0.0,3.0997,0.0,0.0,0.0,0.0,0.0,0.0,0.0,0.0,3.4333,3.4546,3.4709,3.5579,0.0,0.0,0.0,0.0,0.0,3.7363,3.7992,3.8374,3.8432,3.8448,3.823,3.7598,0.0,0.0,0.0,0.0,0.0,0.0,3.6318,0.0,0.0,0.0,0.0,4.1494,4.1588,4.1588,4.1588,4.1099,0.0,0.0,0.0,0.0,0.0,0.0,0.0,0.0,4.6201,4.6852,4.6852,4.7678,4.8362,4.872,4.9588,5.0045,5.0233,5.0692,5.0891,5.0891,5.0891,5.0891,0.0,0.0,0.0,5.1281,5.1333,5.1538,5.179,5.1987,5.215,5.2198,5.2405,5.2498,5.2498,0.0,0.0,0.0,0.0,0.0,0.0,0.0,0.0,0.0,0.0,0.0,0.0,0.0,0.0,0.0,0.0,0.0,0.0,0.0,0.0,0.0,2.8668,2.87,2.87,2.87,2.87,2.8636,2.8525,2.8525,2.8381,2.8137,2.8137,2.8103,2.7955,2.8011,2.8359,2.8949,2.972,3.0371,3.089,3.1611,0.0,0.0,0.0,0.0,0.0,0.0,0.0,0.0,3.4787,3.4851,3.4868,3.5032,0.0,0.0,0.0,0.0,0.0,3.6967,3.7694,3.8298,3.8657,3.8544,3.8375,3.8262,0.0,0.0,0.0,0.0,0.0,0.0,3.5664,3.678,0.0,0.0,4.1103,0.0,0.0,4.1588,0.0,0.0,0.0,0.0,0.0,0.0,0.0,0.0,0.0,0.0,4.5779,4.6562,4.6562,4.8029,4.8885,4.8941,4.933,4.9948,5.0764,5.0873,5.0891,5.0891,5.0891,5.0891,0.0,0.0,5.1246,5.135,5.1538,5.179,5.2036,5.2084,5.2246,5.2452,5.2498,5.2498,5.2498,0.0,0.0,0.0,0.0,0.0,0.0,0.0,0.0,0.0,0.0,0.0,0.0,0.0,0.0,0.0,0.0,0.0,0.0,0.0,0.0,2.8213,2.8936,2.8967,2.892,2.8794,2.8794,2.8747,2.8684,2.8684,2.8636,2.8541,2.8429,2.8381,2.8348,2.8348,2.8419,2.8606,2.9378,2.9962,3.0524,0.0,0.0,0.0,0.0,0.0,0.0,0.0,0.0,0.0,0.0,3.5105,3.5105,3.5105,0.0,0.0,0.0,0.0,0.0,3.6406,3.6821,3.7233,3.8236,3.8706,3.8892,3.8892,0.0,0.0,0.0,0.0,0.0,0.0,0.0,3.6344,3.7883,0.0,4.0903,4.1437,0.0,0.0,0.0,0.0,0.0,0.0,0.0,0.0,0.0,0.0,0.0,0.0,0.0,4.5671,4.5925,4.7029,4.7866,4.8332,4.8907,4.9738,5.0891,5.0891,5.0891,5.0891,5.0891,5.0998,5.1141,0.0,5.1436,5.174,5.184,5.2084,5.2293,5.2293,5.2387,5.2498,5.2498,5.2498,5.2498,0.0,0.0,0.0,0.0,0.0,0.0,0.0,0.0,0.0,0.0,0.0,0.0,0.0,0.0,0.0,0.0,0.0,0.0,0.0,0.0,2.8237,2.9044,2.9075,2.9045,2.8873,2.8873,2.8873,2.8873,2.8873,2.8826,2.8826,2.8684,2.8636,2.8636,2.8636,2.8541,2.8394,2.9339,2.9884,3.0228,0.0,0.0,0.0,0.0,0.0,0.0,0.0,0.0,0.0,0.0,0.0,0.0,0.0,0.0,0.0,3.5291,3.5245,3.5268,3.5852,3.6022,3.6323,3.7468,3.8413,3.9073,3.9239,0.0,0.0,0.0,0.0,0.0,0.0,3.5578,0.0,3.7887,3.9356,0.0,0.0,0.0,0.0,0.0,0.0,0.0,0.0,0.0,0.0,0.0,0.0,0.0,0.0,0.0,4.4783,4.5267,4.6075,4.6908,4.7698,4.8516,4.948,5.061,5.0803,5.0945,5.0981,5.0981,5.1141,5.1402,5.1436,5.174,5.2084,5.215,5.2293,5.2498,5.2498,5.2498,5.2498,5.2498,5.2498,5.2498,0.0,0.0,0.0,0.0,0.0,0.0,0.0,0.0,0.0,0.0,0.0,0.0,0.0,0.0,0.0,0.0,0.0,0.0,0.0,2.7146,2.7762,2.9028,2.9075,2.9075,2.9091,2.9091,2.9091,2.9091,2.9091,2.9029,2.8873,2.8826,2.8794,2.8794,2.8794,2.8747,2.8825,3.0133,3.0658,3.0675,3.1975,0.0,0.0,0.0,0.0,0.0,0.0,0.0,0.0,0.0,0.0,0.0,0.0,0.0,3.5291,3.5291,3.5291,3.5308,3.5358,3.5783,3.6237,3.6337,3.7336,0.0,3.9123,3.9239,0.0,0.0,0.0,0.0,0.0,3.5594,3.6086,3.7523,3.9011,0.0,0.0,0.0,0.0,0.0,0.0,0.0,0.0,0.0,0.0,0.0,0.0,0.0,0.0,0.0,0.0,4.494,4.604,4.6899,4.7417,4.8223,4.9047,4.9785,5.0522,5.1034,5.1298,5.1298,5.1402,5.169,5.1938,5.2036,5.2102,5.2358,5.2498,5.2498,5.2498,5.2498,5.2498,5.2498,5.2498,5.2498,0.0,0.0,0.0,0.0,0.0,0.0,0.0,0.0,0.0,0.0,0.0,0.0,0.0,0.0,0.0,0.0,0.0,0.0,0.0,2.7306,2.7971,2.948,2.956,2.956,2.956,2.9259,2.9167,2.935,2.947,2.9499,2.9438,2.9409,2.9425,2.9425,2.9425,2.9635,2.9989,3.0322,3.095,3.1663,3.2008,3.2777,0.0,0.0,0.0,0.0,0.0,0.0,0.0,0.0,3.5728,3.5728,3.5728,3.5684,3.5594,3.5594,3.552,3.5446,3.5446,3.5445,3.5621,3.6104,0.0,0.0,0.0,0.0,0.0,0.0,0.0,0.0,0.0,0.0,3.5646,3.7114,3.8583,0.0,0.0,0.0,0.0,0.0,0.0,0.0,0.0,0.0,0.0,0.0,0.0,0.0,0.0,0.0,0.0,4.491,4.5346,4.5944,4.666,4.745,4.8096,4.8529,4.9799,5.0434,5.0555,5.1256,5.169,5.1938,5.2054,5.2198,5.234,5.2452,5.2498,5.2498,5.2498,5.2498,5.2498,5.2498,5.2498,5.2498,0.0,0.0,0.0,0.0,0.0,0.0,0.0,0.0,0.0,0.0,0.0,0.0,0.0,0.0,0.0,0.0,0.0,0.0,2.7304,2.74,2.811,2.9745,2.9793,2.9793,2.9793,2.9499,2.9425,2.9589,2.9722,2.9793,2.9793,2.9793,2.9793,2.981,3.0036,3.038,3.0774,3.0959,3.1563,3.2368,3.2404,3.3026,0.0,0.0,0.0,0.0,0.0,0.0,0.0,0.0,3.6019,3.6019,3.6019,3.5949,3.5861,3.5817,3.5701,3.5583,3.552,3.5337,3.5268,0.0,0.0,0.0,0.0,0.0,0.0,0.0,0.0,0.0,0.0,0.0,0.0,0.0,0.0,0.0,0.0,0.0,0.0,0.0,0.0,0.0,0.0,0.0,0.0,0.0,0.0,0.0,0.0,0.0,0.0,0.0,4.5125,4.5511,4.6319,4.6896,4.7258,4.7583,4.8928,4.9848,5.0396,5.1115,5.1754,5.2246,5.2246,5.234,5.2498,5.2498,5.2498,5.2498,5.2498,5.2498,5.2498,5.2498,5.2498,5.2498,0.0,0.0,0.0,0.0,0.0,0.0,0.0,0.0,2.4523,2.4589,2.4726,0.0,0.0,0.0,0.0,0.0,0.0,0.0,2.7304,2.74,2.811,2.9745,2.981,2.981,2.981,2.981,2.981,2.9793,2.981,2.981,2.981,2.981,2.981,2.9826,3.0554,3.0924,3.0992,3.2192,3.2588,3.252,3.346,3.4036,3.448,0.0,0.0,0.0,0.0,0.0,0.0,0.0,3.6019,3.6019,3.6019,3.6019,3.5975,3.5861,3.5817,3.5773,3.5622,3.5458,3.5291,0.0,0.0,0.0,3.7102,0.0,0.0,0.0,0.0,0.0,0.0,0.0,0.0,0.0,0.0,0.0,0.0,0.0,0.0,0.0,0.0,0.0,0.0,0.0,0.0,0.0,0.0,0.0,0.0,0.0,0.0,0.0,4.558,4.5938,4.659,4.659,4.6749,4.6998,4.7994,4.9333,5.0879,5.0879,5.147,5.248,5.248,5.248,5.2498,5.2498,5.2498,5.2498,5.2498,5.2498,5.2498,5.2498,5.2498,5.2498,0.0,0.0,0.0,0.0,0.0,0.0,0.0,0.0,2.3884,2.4527,2.463,0.0,0.0,0.0,0.0,0.0,0.0,0.0,2.7583,2.768,2.8461,3.0234,3.03,3.03,3.03,3.03,3.0215,3.0087,3.0215,3.03,3.03,3.03,3.03,3.0333,3.1057,3.1665,3.2192,3.2912,3.3453,3.3876,3.3987,3.4084,3.4267,0.0,0.0,0.0,0.0,0.0,0.0,0.0,0.0,0.0,3.6377,3.6276,3.6174,3.6122,3.5949,3.5773,3.5773,3.5594,0.0,3.5446,0.0,0.0,0.0,3.8218,0.0,0.0,0.0,0.0,0.0,0.0,0.0,0.0,0.0,0.0,0.0,0.0,0.0,0.0,0.0,0.0,0.0,0.0,0.0,0.0,0.0,0.0,0.0,0.0,0.0,0.0,4.558,4.5938,4.659,4.659,4.6824,4.7232,4.7509,4.8201,4.9243,4.9983,5.0841,5.1647,5.1647,5.1973,5.2498,5.2498,5.2498,5.2498,5.2498,5.2498,5.2498,5.2498,5.2498,5.2498,0.0,0.0,0.0,0.0,0.0,0.0,0.0,0.0,2.3496,2.4138,2.4418,2.471,0.0,0.0,0.0,0.0,2.5258,2.6094,2.7697,2.8037,2.8911,3.0418,3.0526,3.0526,3.0526,3.0568,3.0526,3.0401,3.0526,3.0568,3.0568,3.0651,3.0817,3.1133,3.1822,3.2508,3.3222,3.3672,3.4087,3.4497,3.4448,3.448,3.469,0.0,0.0,0.0,0.0,0.0,0.0,0.0,0.0,0.0,3.6602,3.6502,3.636,3.6268,3.6036,3.5861,3.5773,3.5611,0.0,3.5492,3.5572,3.6016,3.7585,0.0,0.0,0.0,0.0,0.0,0.0,0.0,0.0,0.0,0.0,0.0,0.0,0.0,0.0,0.0,0.0,0.0,0.0,0.0,0.0,0.0,0.0,0.0,0.0,0.0,0.0,0.0,4.6087,4.6381,4.6852,4.6852,4.708,4.7468,4.7468,4.772,4.8207,4.9195,5.0053,5.0832,5.1158,5.1574,5.2045,5.2371,5.2498,5.2498,5.2498,5.2498,5.2498,5.2498,5.2498,5.2498,0.0,0.0,1.902,1.9124,0.0,0.0,0.0,0.0,2.3255,2.3561,2.4169,2.471,0.0,0.0,0.0,0.0,2.5654,2.6557,2.7713,2.8426,2.9352,3.0452,3.0526,3.0526,3.0526,3.0609,3.0692,3.0692,3.0692,3.0733,3.0733,3.0831,3.1314,3.2027,3.2634,3.3323,3.4039,3.4442,3.4546,3.4594,3.4851,3.5102,3.5419,3.5968,0.0,0.0,0.0,0.0,0.0,0.0,0.0,0.0,3.6684,3.6643,3.6502,3.631,3.6122,3.5975,3.5711,3.5549,3.5492,3.5492,3.5954,0.0,3.8104,3.8922,3.9235,3.8479,0.0,0.0,0.0,0.0,0.0,0.0,0.0,0.0,0.0,0.0,0.0,0.0,0.0,0.0,0.0,0.0,0.0,0.0,0.0,0.0,0.0,0.0,0.0,4.6637,4.6888,4.7116,4.732,4.7302,4.7407,0.0,4.7717,4.7717,4.7735,4.8478,4.9238,5.0035,5.0832,5.1176,5.1249,5.2063,5.2389,5.2389,5.2462,5.2498,5.2498,5.2498,5.248,5.2526,0.0,0.0,1.9487,1.9545,0.0,0.0,0.0,0.0,0.0,0.0,0.0,0.0,0.0,0.0,0.0,0.0,0.0,2.6736,2.7729,2.8576,2.9486,3.0452,3.0526,3.0526,3.0526,3.0526,3.0609,3.0692,3.0831,3.0871,3.0871,3.0871,3.1314,3.2027,3.272,3.3456,3.422,3.4835,3.5152,3.5135,3.5198,3.5245,3.5412,3.6097,3.6308,0.0,0.0,0.0,0.0,0.0,0.0,0.0,3.6829,3.6748,3.6708,3.6502,3.6293,3.6122,3.5975,3.5756,0.0,3.5594,3.6168,3.6734,3.6863,3.7952,3.9008,3.9308,3.8355,0.0,0.0,0.0,0.0,0.0,0.0,0.0,0.0,0.0,0.0,0.0,0.0,0.0,0.0,0.0,0.0,0.0,0.0,0.0,0.0,0.0,0.0,4.6888,4.698,4.7116,4.732,4.7302,4.7407,0.0,4.7717,4.7717,4.7717,4.788,4.8405,4.9202,4.9999,5.0343,5.0397,5.1212,5.1556,5.1611,5.2245,5.2498,5.2498,5.2581,5.2563,5.2608,0.0,0.0,0.0,0.0,0.0,0.0,0.0,0.0,0.0,0.0,0.0,0.0,0.0,0.0,0.0,0.0,2.6349,2.7274,2.8232,2.9123,2.9905,3.0452,3.0526,3.0526,3.0526,3.0609,3.0733,3.079,3.0952,3.1032,3.0952,3.1032,3.1621,3.2681,3.2983,3.3772,3.4829,3.517,3.5291,3.5291,3.5291,3.5503,3.5854,3.6249,3.658,3.6878,3.7279,0.0,0.0,0.0,0.0,0.0,0.0,0.0,3.6891,3.6667,3.6419,3.6251,3.6122,3.5905,0.0,3.5622,0.0,3.627,3.6565,3.7525,3.8553,3.9211,3.8371,0.0,0.0,0.0,0.0,0.0,0.0,0.0,0.0,0.0,0.0,0.0,0.0,0.0,0.0,0.0,0.0,0.0,0.0,0.0,0.0,4.5918,4.6424,4.7098,4.7249,4.7399,4.7511,4.7511,4.7554,4.7717,4.7717,4.7717,4.7717,4.7717,4.7935,4.8387,4.9184,4.9528,4.9582,5.0379,5.0941,5.1339,5.1756,5.2182,5.2536,5.2608,5.2654,5.2698,0.0,0.0,0.0,0.0,0.0,0.0,0.0,0.0,0.0,0.0,0.0,0.0,0.0,0.0,0.0,0.0,0.0,0.0,2.8741,2.9711,3.0316,3.0468,3.0526,3.0526,3.0526,3.0733,3.0871,3.0912,3.1072,3.1112,3.1032,3.1286,3.2104,3.3406,3.3397,3.4179,3.5537,3.5383,3.5383,3.5458,3.5458,3.5854,3.6498,3.658,3.6995,0.0,3.7613,3.7631,3.7577,3.7577,0.0,0.0,0.0,0.0,3.7147,3.6829,3.6609,3.6385,3.6251,3.6036,3.5817,3.5711,3.5667,0.0,3.648,3.7208,3.7905,3.865,3.8267,0.0,0.0,0.0,0.0,0.0,0.0,0.0,0.0,0.0,0.0,0.0,0.0,0.0,0.0,0.0,0.0,0.0,0.0,0.0,4.5563,4.6,4.6566,4.7345,4.7554,4.7717,4.7717,4.7717,4.7717,4.7717,4.7717,4.7717,4.7717,4.7717,4.7717,4.7753,4.8424,4.8713,4.8768,4.9608,5.0315,5.0949,5.1239,5.1756,5.2453,5.2599,5.2743,5.285,0.0,0.0,0.0,0.0,0.0,0.0,0.0,0.0,0.0,0.0,2.3179,2.3959,0.0,2.5503,2.5898,2.5993,2.7618,2.8692,2.8773,0.0,0.0,3.0526,3.0526,3.0526,3.0526,3.0651,3.0773,3.0912,3.0992,3.1072,0.0,0.0,0.0,3.344,3.4066,3.4783,3.5577,3.5577,3.5783,3.6174,3.6174,3.6433,3.686,3.7228,3.7321,0.0,0.0,3.7739,3.7577,3.7577,3.7577,0.0,0.0,0.0,3.7466,3.7147,3.6935,3.6741,3.6367,3.6148,3.5975,0.0,3.5932,3.5966,0.0,0.0,3.725,0.0,3.8432,0.0,0.0,0.0,0.0,0.0,0.0,0.0,0.0,0.0,0.0,0.0,0.0,0.0,0.0,0.0,0.0,0.0,0.0,0.0,4.6,4.6954,4.7511,4.7657,4.7657,4.7717,4.7717,4.7717,4.7717,4.7717,4.7717,4.7717,4.7699,4.7819,4.7819,4.7717,4.7928,4.8024,4.8097,4.892,4.9325,4.9628,5.0937,5.158,5.1839,5.2638,5.2955,5.2999,0.0,0.0,0.0,0.0,0.0,0.0,0.0,0.0,0.0,0.0,0.0,2.3755,2.5392,2.5819,2.635,2.7254,2.8426,2.9338,2.9972,3.0344,3.0369,3.0116,2.9978,2.9938,3.0082,3.0172,3.043,3.0912,3.1032,0.0,0.0,3.2622,3.3298,0.0,0.0,0.0,0.0,3.6139,3.6156,3.5958,3.6343,3.6574,3.6759,0.0,0.0,0.0,0.0,0.0,0.0,0.0,3.7934,3.7934,3.781,0.0,0.0,0.0,3.7281,3.7073,3.6615,3.6343,3.6131,0.0,3.6019,3.5975,3.5949,3.6468,3.707,3.7271,3.8272,0.0,0.0,0.0,0.0,0.0,0.0,0.0,0.0,0.0,0.0,0.0,0.0,0.0,0.0,0.0,0.0,0.0,0.0,4.5463,4.6484,4.7017,4.7407,4.7699,4.7717,4.7717,4.7819,4.7819,4.7842,4.7847,4.7847,4.7847,4.7888,4.7947,4.7907,4.7819,4.7907,4.7947,4.7966,4.833,4.8771,4.9286,4.9974,5.0836,5.1743,5.2169,5.2676,5.3103,0.0,0.0,0.0,0.0,0.0,0.0,0.0,0.0,0.0,0.0,0.0,2.3831,2.5787,0.0,0.0,0.0,2.9139,2.9912,3.0673,3.049,3.0099,2.9525,2.9315,2.9399,2.9777,2.9883,3.023,3.0912,0.0,0.0,3.1224,3.3026,3.3727,0.0,3.5007,3.5666,0.0,0.0,0.0,0.0,0.0,0.0,0.0,0.0,0.0,0.0,0.0,0.0,0.0,0.0,0.0,0.0,0.0,0.0,0.0,0.0,0.0,3.7301,3.6856,3.6632,3.6426,3.6191,3.6105,3.6105,0.0,0.0,3.6881,0.0,3.7887,0.0,0.0,0.0,0.0,0.0,0.0,0.0,0.0,0.0,0.0,0.0,0.0,0.0,0.0,0.0,0.0,0.0,0.0,4.4878,4.6387,4.6783,4.7196,4.7783,4.7783,4.7824,4.7925,4.7925,4.7947,4.7992,4.7992,4.7992,4.7992,4.805,4.801,4.7984,4.8028,4.805,4.805,4.805,4.8397,4.9003,4.9182,5.0085,5.1266,5.1486,5.2113,5.2913,0.0,0.0,0.0,0.0,0.0,0.0,0.0,0.0,0.0,0.0,0.0,2.4312,2.5851,2.7194,2.8204,2.8835,2.9723,3.0186,2.995,2.9955,2.9563,2.879,2.872,0.0,2.976,3.0036,3.0425,3.0912,0.0,0.0,3.1224,3.2713,3.3622,3.4042,3.5968,3.6603,3.6301,0.0,0.0,0.0,0.0,0.0,0.0,0.0,0.0,0.0,0.0,0.0,0.0,0.0,0.0,0.0,0.0,0.0,0.0,0.0,0.0,0.0,3.7129,3.7009,3.6891,3.6585,3.6461,3.6419,0.0,0.0,3.6397,3.6966,3.7126,3.7194,0.0,0.0,0.0,0.0,0.0,0.0,0.0,0.0,0.0,0.0,0.0,0.0,0.0,0.0,0.0,0.0,0.0,4.4503,4.5247,4.6435,4.7371,4.7951,4.7992,4.7992,4.7992,4.7992,4.7992,4.7992,4.7992,4.7992,4.7992,4.813,4.8187,4.8187,4.8187,4.8187,4.8187,4.8187,4.8245,4.8414,4.9142,4.9508,4.9811,5.0582,5.1371,5.205,0.0,0.0,0.0,0.0,0.0,0.0,0.0,0.0,0.0,0.0,0.0,0.0,0.0,2.7354,2.7962,2.8371,2.9098,2.9567,2.9709,2.9496,2.9138,2.8545,2.8232,2.8516,2.9479,2.9532,3.0034,0.0,0.0,3.1768,3.1542,3.3065,3.3999,3.4466,3.6138,3.6821,3.6719,3.7431,0.0,0.0,0.0,0.0,0.0,0.0,0.0,0.0,0.0,0.0,0.0,0.0,0.0,0.0,0.0,0.0,0.0,0.0,0.0,3.7685,3.7522,3.7299,3.7048,3.6851,3.6667,3.6502,3.6419,3.6335,3.6302,3.6482,3.6884,3.7072,0.0,0.0,0.0,0.0,0.0,0.0,0.0,0.0,0.0,0.0,0.0,0.0,0.0,0.0,0.0,0.0,0.0,0.0,4.611,4.668,4.7243,4.7974,4.7992,4.8032,4.813,4.8151,4.819,4.819,4.819,4.819,4.819,4.8229,4.8286,4.8286,4.8286,4.8286,4.8286,4.8286,4.8286,4.8343,4.8598,4.9056,4.9609,4.9903,5.0527,5.1298,0.0,0.0,0.0,0.0,0.0,2.0254,2.0407,2.0696,2.1534,2.3258,0.0,0.0,0.0,0.0,2.7865,2.841,2.907,2.9386,2.9228,2.9025,2.8647,2.8085,2.7774,2.8186,2.9455,2.9213,0.0,0.0,0.0,0.0,0.0,3.3195,3.418,3.4835,3.6123,3.6847,0.0,0.0,0.0,3.7243,0.0,0.0,3.6878,0.0,0.0,0.0,0.0,0.0,0.0,0.0,0.0,0.0,0.0,0.0,0.0,0.0,0.0,0.0,3.7792,0.0,0.0,3.7087,3.6891,3.665,3.6544,3.6444,3.636,3.6251,3.6603,3.681,0.0,0.0,0.0,0.0,0.0,0.0,0.0,0.0,0.0,0.0,0.0,0.0,0.0,0.0,0.0,0.0,0.0,0.0,4.5718,4.6321,4.7074,4.8093,4.8111,4.8151,4.8208,4.8286,4.8306,4.8306,4.8306,4.8306,4.8306,4.8306,4.8306,4.8306,4.8306,4.8306,4.8306,4.8306,4.8306,4.8306,4.8306,4.8655,4.915,4.915,4.9682,5.0472,0.0,0.0,2.01,2.01,2.027,2.0423,2.0525,2.1205,2.2016,2.2848,0.0,0.0,0.0,0.0,0.0,2.9057,2.9706,2.9589,2.8531,2.8479,2.8167,2.7438,2.7404,2.8178,2.9872,0.0,0.0,0.0,0.0,0.0,0.0,0.0,3.4041,3.5238,3.5953,3.6738,3.7542,0.0,3.809,3.7864,0.0,3.6974,3.6816,0.0,0.0,0.0,3.7105,3.7297,0.0,3.7297,0.0,0.0,0.0,0.0,0.0,0.0,0.0,0.0,0.0,0.0,0.0,0.0,3.7108,3.7031,3.6609,3.6502,3.6444,3.6343,3.6301,3.6301,3.6301,0.0,0.0,0.0,0.0,0.0,0.0,0.0,0.0,0.0,0.0,0.0,0.0,0.0,0.0,0.0,0.0,4.3131,4.3833,4.5351,4.6803,4.8176,4.8288,4.8306,4.8306,4.8306,4.8306,4.8306,4.8306,4.8306,4.8306,4.8306,4.8306,4.8306,4.8306,4.8306,4.8306,4.8306,4.8306,4.8306,4.8306,4.8306,4.8306,4.8306,4.8838,4.9554,0.0,2.001,2.015,2.022,2.0339,2.0612,2.1283,2.1569,2.2362,0.0,0.0,0.0,0.0,0.0,2.7369,2.7993,2.8229,2.8233,2.7944,2.7927,2.784,2.763,2.7496,2.8146,2.9791,0.0,0.0,0.0,0.0,0.0,0.0,0.0,0.0,0.0,3.584,3.6687,3.8002,3.814,0.0,0.0,3.7649,3.7429,0.0,0.0,0.0,0.0,0.0,3.7182,3.7297,0.0,3.7521,3.7864,0.0,0.0,0.0,0.0,0.0,0.0,3.8124,0.0,0.0,0.0,0.0,0.0,3.6992,3.6834,3.6673,3.6485,3.636,3.6301,3.6301,0.0,0.0,0.0,0.0,0.0,0.0,0.0,0.0,0.0,0.0,0.0,0.0,0.0,0.0,0.0,4.0917,4.1577,4.2684,4.4784,4.6157,4.6562,4.77,4.8306,4.8306,4.8306,4.8306,4.8306,4.8306,4.8306,4.8306,4.8306,4.8306,4.8306,4.8306,4.8306,4.8306,4.8306,4.8306,4.8306,4.8306,4.8306,4.8306,4.8306,4.8453,4.8746,2.0096,2.0166,2.0254,2.0357,2.0674,2.112,2.1631,2.22,2.3075,0.0,0.0,0.0,0.0,0.0,0.0,2.763,2.7672,2.7701,2.7701,2.7701,2.7701,2.7701,2.76,2.8285,2.9986,0.0,0.0,0.0,0.0,0.0,0.0,0.0,0.0,0.0,3.582,3.6689,0.0,0.0,0.0,0.0,3.7775,0.0,0.0,3.7259,3.7066,0.0,0.0,0.0,3.7182,3.7182,3.7447,0.0,0.0,0.0,0.0,0.0,0.0,0.0,0.0,0.0,0.0,0.0,0.0,0.0,3.7185,3.7013,3.6873,3.6626,3.6502,3.6385,3.6385,3.6343,0.0,0.0,0.0,0.0,0.0,0.0,0.0,0.0,0.0,0.0,0.0,3.9681,4.0006,4.098,4.0831,4.1152,4.2249,4.3626,4.4709,4.5388,4.6305,4.7131,4.781,4.781,4.7976,4.8306,4.8306,4.8306,4.8306,4.8306,4.8306,4.8306,4.8363,4.8363,4.8401,4.842,4.842,4.8363,4.8363,4.8363,4.8363,4.8363,4.8439,4.8642,0.0,2.0354,2.0423,2.0494,2.1189,2.1745,2.1823,2.3012,2.3939,0.0,2.4981,0.0,0.0,0.0,0.0,0.0,2.7701,2.7701,2.7701,2.7701,2.7701,2.7701,2.7701,2.8529,3.0238,2.9763,0.0,0.0,0.0,0.0,0.0,0.0,0.0,0.0,3.5788,3.6656,3.8192,0.0,0.0,3.814,3.7739,3.7594,0.0,0.0,3.7143,3.7009,3.722,3.7143,3.7027,3.7066,3.7317,0.0,0.0,0.0,0.0,0.0,3.8192,0.0,0.0,0.0,0.0,0.0,0.0,0.0,3.7299,3.7185,3.7069,3.6806,3.6626,3.6544,3.6544,3.6444,3.6343,0.0,0.0,0.0,0.0,0.0,0.0,0.0,0.0,0.0,4.078,4.0596,4.0888,4.2035,4.1497,4.142,4.1992,4.2194,4.291,4.4268,4.4562,4.5388,4.6838,4.6948,4.7388,4.8216,4.8216,4.8252,4.8344,4.8344,4.8344,4.8344,4.8457,4.8494,4.8532,4.8569,4.8569,4.8494,4.8494,4.8494,4.8494,4.8494,4.8641,4.8881,2.0339,2.0388,2.0457,2.061,2.1224,2.1902,2.256,2.3386,2.4211,2.5078,2.5969,0.0,0.0,0.0,0.0,0.0,2.7701,2.7701,2.7701,2.7701,2.7701,2.7701,2.7701,2.8486,3.0085,3.0132,3.0969,0.0,0.0,0.0,0.0,0.0,0.0,0.0,3.5624,3.654,3.8192,0.0,0.0,3.7934,3.7703,0.0,3.7334,3.7143,3.7009,3.7027,3.7066,3.7009,3.7066,3.7354,3.7558,3.7667,0.0,0.0,0.0,0.0,0.0,0.0,0.0,0.0,0.0,0.0,0.0,0.0,3.781,3.7649,3.7485,3.7108,3.697,3.6869,3.6684,3.6643,3.6602,0.0,0.0,0.0,0.0,0.0,0.0,0.0,0.0,0.0,3.9529,3.9832,4.0273,4.0868,4.1199,4.1083,4.0486,4.1701,4.2187,4.1827,4.375,4.4925,4.5256,4.6007,4.678,4.7591,4.7591,4.7923,4.855,4.855,4.855,4.855,4.8569,4.8569,4.8569,4.8587,4.8587,4.8569,4.8569,4.8569,4.8569,4.8569,4.8623,4.8677,2.0509,2.0559,2.0702,2.1198,2.1846,2.2539,2.3291,2.4159,2.483,2.5182,2.598,0.0,0.0,0.0,0.0,0.0,0.0,0.0,0.0,2.7701,2.7701,2.7701,2.807,2.886,3.0071,3.0631,3.1423,3.2507,0.0,0.0,0.0,0.0,0.0,0.0,0.0,0.0,0.0,0.0,3.7739,3.7739,3.7521,0.0,3.7259,3.7066,3.6987,3.6987,3.6987,3.7066,3.7182,3.7372,3.7594,0.0,0.0,3.8124,3.8192,0.0,3.8192,3.8192,0.0,0.0,0.0,3.8192,0.0,0.0,0.0,3.7864,3.7721,3.7411,3.7261,3.7185,3.7087,3.6992,3.697,3.697,0.0,0.0,0.0,0.0,0.0,0.0,0.0,0.0,4.1082,4.1123,4.1121,4.1027,4.1254,4.12,4.0726,4.1046,4.1235,4.1204,4.2396,4.3461,4.4309,4.5173,4.602,4.6814,4.7202,4.7608,4.8015,4.8402,4.8587,4.8587,4.8678,4.8697,4.8697,4.875,4.8837,4.8974,4.8785,4.8697,4.8714,4.8853,4.8967,4.9126,2.066,2.0693,2.0946,2.1758,2.2438,2.3117,2.3812,2.4745,2.5368,2.5224,0.0,0.0,0.0,0.0,0.0,0.0,0.0,0.0,0.0,0.0,2.7892,2.811,2.8741,2.946,3.0299,3.1059,3.1764,3.2406,0.0,0.0,0.0,0.0,0.0,0.0,0.0,0.0,0.0,0.0,0.0,3.7521,0.0,3.7259,3.722,3.7066,3.6987,3.6987,3.6987,3.7143,3.7314,3.7334,0.0,3.7899,3.7934,3.809,0.0,0.0,0.0,0.0,0.0,0.0,0.0,0.0,0.0,3.8158,0.0,0.0,0.0,0.0,0.0,0.0,0.0,0.0,0.0,0.0,0.0,0.0,0.0,0.0,0.0,0.0,0.0,0.0,0.0,4.2573,4.2364,4.1915,4.189,4.1835,4.1638,4.0972,4.075,4.1052,4.1249,4.1989,4.3356,4.4169,4.5057,4.6036,4.6683,4.7087,4.7254,4.8068,4.8438,4.8438,4.8694,4.8822,4.8822,4.8874,4.9094,4.9384,4.9046,4.8943,4.9008,4.9246,4.9435,4.9673,2.0693,2.0693,2.0931,2.1676,2.2422,2.3117,2.3812,2.4546,2.5285,0.0,0.0,0.0,0.0,0.0,0.0,0.0,0.0,0.0,2.7827,0.0,2.8539,2.9592,2.9747,3.0199,3.1054,3.1192,3.1632,3.2406,0.0,0.0,0.0,0.0,0.0,0.0,3.5307,0.0,0.0,0.0,3.7334,0.0,3.7297,3.7182,0.0,3.7027,3.6987,3.6987,3.6987,3.7143,3.7334,0.0,3.7703,3.7934,0.0,3.8192,3.8192,0.0,0.0,0.0,0.0,0.0,0.0,0.0,3.8192,0.0,0.0,0.0,3.8124,3.7899,0.0,0.0,0.0,0.0,0.0,0.0,0.0,0.0,0.0,0.0,0.0,0.0,0.0,0.0,0.0,4.2247,4.3256,4.3587,4.3682,4.3348,4.2582,4.2452,4.1736,4.0277,4.1021,4.1551,4.1755,4.2625,4.3844,4.5403,4.5477,4.5904,4.6628,4.7426,4.7797,4.7834,4.8558,4.8874,4.8909,4.8909,4.9094,4.9415,4.9352,4.9499,4.9693,4.9702,4.9757,4.9784,2.0856,2.1108,2.1629,2.2327,2.3022,2.3717,2.4428,2.4815,2.5362,0.0,0.0,0.0,0.0,0.0,0.0,0.0,0.0,2.8254,0.0,0.0,0.0,2.9809,3.0359,3.0795,3.1145,3.1635,3.2055,3.2406,3.2657,0.0,0.0,0.0,0.0,0.0,3.5239,0.0,3.741,0.0,3.7297,0.0,0.0,0.0,0.0,3.6987,3.6987,3.6987,3.6987,3.7143,3.7334,0.0,3.7739,0.0,0.0,0.0,0.0,0.0,0.0,0.0,0.0,0.0,0.0,0.0,0.0,0.0,3.8192,0.0,3.8192,0.0,0.0,0.0,0.0,0.0,0.0,0.0,3.8,0.0,0.0,0.0,0.0,0.0,0.0,0.0,0.0,0.0,0.0,0.0,4.3974,4.3856,4.3472,4.3027,4.2421,4.1686,4.1605,4.1772,4.2236,4.26,4.3392,4.4544,4.5064,4.5472,4.5825,4.6643,4.7256,4.772,4.8054,4.8481,4.8909,4.8909,4.9188,4.9627,4.9627,4.9693,4.983,4.9968,5.0019,5.0062,2.1593,2.1716,2.216,2.2805,2.3449,2.416,2.491,2.5068,2.5422,2.6245,0.0,0.0,2.7346,2.7571,0.0,0.0,2.8113,2.8642,0.0,0.0,2.9955,0.0,0.0,0.0,0.0,3.2073,3.2406,3.2406,3.274,0.0,0.0,0.0,0.0,0.0,0.0,3.5776,3.692,0.0,3.7259,3.722,3.7259,3.7182,3.6987,3.6987,3.6987,3.6987,3.6987,3.7143,3.7334,3.7521,3.7739,0.0,3.8158,0.0,0.0,0.0,0.0,0.0,3.8192,0.0,0.0,0.0,0.0,0.0,0.0,0.0,0.0,0.0,0.0,0.0,0.0,0.0,0.0,0.0,0.0,3.8486,0.0,0.0,0.0,0.0,0.0,0.0,0.0,0.0,0.0,4.4055,4.4036,4.4036,4.4005,4.3448,4.302,4.2816,4.2222,4.2092,4.2463,4.2686,4.3095,4.367,4.4544,4.4934,4.4971,4.5788,4.6605,4.7386,4.7608,4.8166,4.8909,4.8993,4.9327,4.9803,4.9865,4.9962,5.0081,5.0272,5.0336,5.0358,2.3189,2.2575,0.0,2.279,2.3449,2.416,2.491,2.5269,2.5503,0.0,0.0,0.0,0.0,0.0,0.0,0.0,0.0,2.691,2.8927,0.0,3.0162,0.0,0.0,3.2109,0.0,0.0,3.2406,3.2406,3.274,0.0,0.0,0.0,0.0,0.0,0.0,3.5258,3.5899,3.6902,3.7182,3.7027,3.722,3.7182,3.6987,0.0,3.6987,3.6987,3.6987,0.0,0.0,3.7521,3.7739,0.0,0.0,0.0,0.0,0.0,0.0,0.0,0.0,0.0,0.0,3.8307,0.0,0.0,0.0,0.0,3.8382,0.0,0.0,0.0,0.0,0.0,0.0,0.0,0.0,0.0,0.0,0.0,0.0,0.0,0.0,0.0,0.0,0.0,0.0,4.4184,4.4184,4.4135,4.4005,4.3986,4.3596,4.2816,4.276,4.2389,4.1646,4.2407,4.2816,4.2853,4.3652,4.4042,4.4079,4.4934,4.5769,4.6587,4.7367,4.8166,4.8943,4.9257,4.9558,4.983,5.0087,5.0399,5.0663,5.0683,5.0683,5.0683,2.3492,2.3519,0.0,0.0,0.0,2.4697,2.4974,2.5185,2.54,0.0,0.0,0.0,0.0,2.7098,2.7153,0.0,0.0,2.8809,2.8751,2.9935,0.0,0.0,0.0,3.2108,0.0,0.0,0.0,0.0,0.0,0.0,0.0,0.0,0.0,0.0,0.0,3.5439,0.0,0.0,0.0,0.0,0.0,3.7066,3.6987,0.0,0.0,3.6987,3.6987,3.7066,0.0,3.7334,3.7521,3.7739,3.7934,3.8072,3.8192,3.8192,3.8225,0.0,0.0,0.0,3.8241,3.8241,0.0,0.0,0.0,0.0,0.0,0.0,0.0,0.0,0.0,0.0,0.0,0.0,0.0,0.0,0.0,0.0,0.0,0.0,0.0,0.0,0.0,0.0,0.0,4.4255,4.4274,4.4255,0.0,4.4207,4.4065,4.3744,4.3167,4.2969,4.3188,4.2927,4.3076,4.3596,4.3875,4.4005,4.4005,4.4302,4.4896,4.5751,4.655,4.7462,4.8434,4.9109,4.9684,5.014,5.023,5.0425,5.0683,5.0702,5.0702,5.0702,2.4414,2.4616,0.0,0.0,0.0,2.51,2.51,0.0,0.0,0.0,2.5269,0.0,2.6886,0.0,2.7461,0.0,2.8801,2.9281,2.914,3.0112,0.0,3.1334,3.1654,0.0,0.0,0.0,0.0,0.0,0.0,3.2898,0.0,0.0,0.0,0.0,0.0,3.5066,3.5702,3.6461,3.6841,0.0,0.0,3.6987,0.0,0.0,3.6987,3.6987,0.0,3.6987,3.7027,3.722,3.7447,3.7631,3.7828,3.8056,3.8192,3.8192,3.8192,3.8192,3.8192,3.8192,0.0,3.8225,3.8259,0.0,3.8322,0.0,0.0,0.0,0.0,0.0,0.0,0.0,0.0,0.0,0.0,0.0,0.0,3.9977,0.0,0.0,0.0,0.0,0.0,0.0,4.4177,4.4306,4.4344,4.4314,0.0,0.0,4.4285,4.4244,4.3703,4.3457,4.362,4.3416,4.3385,4.3578,4.3856,4.4005,4.4005,4.4005,4.4488,4.5324,4.5916,4.6925,4.8168,4.8938,4.967,5.032,5.0404,5.0567,5.072,5.0721,5.0702,5.0702,2.5897,2.5749,0.0,0.0,2.4852,0.0,0.0,0.0,2.4822,0.0,2.5045,2.5767,2.7198,2.6618,2.6963,2.8976,2.8232,2.8349,2.9913,2.9777,0.0,0.0,3.1428,3.1487,3.1858,0.0,0.0,0.0,0.0,0.0,0.0,0.0,0.0,0.0,3.3606,0.0,3.4978,3.5553,3.6268,3.6987,3.6987,3.6987,3.6987,3.6987,3.6987,3.6987,3.6987,3.6987,3.7027,3.722,3.741,3.7631,3.7882,3.8057,3.8246,3.8282,3.8301,3.8301,3.8301,3.8301,3.8334,3.8383,0.0,0.0,0.0,0.0,3.8437,0.0,0.0,0.0,0.0,0.0,0.0,0.0,0.0,0.0,0.0,0.0,0.0,0.0,0.0,0.0,0.0,4.3391,4.3691,4.4365,4.4411,4.4383,0.0,0.0,4.4314,4.4314,4.4314,4.3863,4.3003,4.3804,4.3762,4.2872,4.3633,4.4005,4.4005,4.4005,4.4451,4.5263,4.5525,4.6505,4.8047,4.8732,4.9507,5.0284,5.0587,5.0757,5.0793,5.0739,5.0701,5.0701,2.5897,2.586,2.5758,0.0,2.5619,2.5637,0.0,0.0,0.0,0.0,2.5082,2.5722,2.6492,2.6867,2.7488,2.8528,2.845,0.0,0.0,0.0,0.0,3.0166,3.0788,3.124,3.1449,3.1912,0.0,3.2507,0.0,0.0,3.3086,0.0,0.0,0.0,0.0,0.0,3.5171,3.5919,3.6534,3.6987,3.6987,3.6987,0.0,0.0,3.6987,3.6987,3.6987,3.6987,3.7027,3.7066,3.722,3.7516,3.8327,3.8708,3.9013,3.9714,3.9912,3.9912,3.9912,3.9912,3.9912,3.9947,3.9947,3.9802,0.0,0.0,0.0,0.0,0.0,0.0,0.0,0.0,0.0,0.0,0.0,0.0,0.0,0.0,0.0,4.0398,0.0,0.0,4.2664,4.327,4.3844,4.4557,4.4613,0.0,0.0,0.0,0.0,4.4383,4.4354,4.4231,4.3938,4.4143,4.4132,4.3837,4.4042,4.4135,4.4135,4.4135,4.4296,4.461,4.5406,4.6116,4.6809,4.8361,4.9294,4.9777,5.0487,5.0829,5.0863,5.0738,5.072,5.0775,2.5881,2.5897,0.0,2.6023,0.0,0.0,2.5394,0.0,0.0,2.5123,2.5606,0.0,2.6794,2.7196,2.7673,2.835,2.8444,0.0,2.8873,0.0,0.0,2.9881,3.046,3.0885,3.1218,3.1748,0.0,3.2404,0.0,0.0,3.3086,0.0,0.0,0.0,0.0,3.4167,3.486,3.5847,3.6571,3.6987,3.6987,0.0,0.0,3.6987,3.6987,3.7023,3.7356,3.7251,3.704,3.7356,3.7619,3.7955,3.8946,3.9423,3.9697,4.0312,4.051,4.051,4.051,4.051,4.051,4.051,4.051,4.0401,4.0002,3.9946,3.9801,0.0,0.0,0.0,0.0,0.0,0.0,0.0,0.0,0.0,0.0,0.0,0.0,0.0,4.0413,0.0,4.2106,4.2398,4.2972,4.4128,4.419,0.0,0.0,0.0,0.0,4.444,4.444,4.4411,4.4325,4.4344,4.4314,4.4244,4.4244,4.4244,4.4244,4.4244,4.4255,4.4333,4.5127,4.5735,4.634,4.7602,4.8682,4.963,5.0497,5.0861,5.0897,5.0829,5.081,5.0846,2.5807,2.5881,0.0,0.0,0.0,0.0,0.0,2.5552,0.0,2.5659,0.0,2.676,2.7488,2.7566,2.7765,2.835,0.0,2.8621,2.9058,2.8779,2.909,3.0123,3.0251,3.0584,3.1083,3.162,0.0,0.0,0.0,3.2506,3.3055,0.0,0.0,0.0,0.0,0.0,0.0,3.5599,3.6421,3.6987,3.6987,3.6987,3.6987,3.6987,3.704,3.7216,3.7865,3.769,3.7251,3.8006,3.8373,3.8695,3.969,4.0152,4.0342,4.0691,4.08,4.0782,4.0836,4.0818,4.0818,4.0818,4.0818,4.08,4.0691,4.0673,4.0637,4.0528,4.002,3.9649,0.0,0.0,0.0,0.0,0.0,0.0,0.0,0.0,0.0,0.0,0.0,0.0,4.1478,4.1302,4.1851,0.0,0.0,0.0,0.0,0.0,0.0,4.4542,4.4515,0.0,4.4411,0.0,4.4383,4.4314,4.4314,4.4314,4.4314,4.4314,4.4344,4.4411,4.4819,4.5471,4.6244,4.6797,4.8047,4.9682,5.0445,5.0809,5.089,5.0897,5.0916,5.0897,2.5567,0.0,0.0,0.0,0.0,2.5362,2.5036,2.4989,2.5143,2.5486,2.6037,2.6687,2.7365,2.7888,2.8273,2.8396,2.8411,0.0,0.0,0.0,0.0,2.954,3.0166,3.0666,3.1083,3.162,3.1984,0.0,3.2179,3.2456,3.293,0.0,0.0,0.0,0.0,0.0,3.5062,3.5611,0.0,3.6987,3.6987,3.6987,3.6987,3.6987,3.7374,3.7918,3.8058,3.8023,3.8041,3.8831,3.9094,3.9317,4.0341,4.0671,4.09,4.192,4.2217,4.2273,4.2428,4.2466,4.2466,4.2466,4.2466,4.2303,4.1651,4.1506,4.1307,4.0655,4.0559,4.0514,4.0189,0.0,0.0,0.0,0.0,0.0,0.0,0.0,0.0,0.0,0.0,4.0518,0.0,0.0,0.0,0.0,0.0,0.0,0.0,0.0,0.0,0.0,4.457,0.0,0.0,0.0,4.4458,4.4383,4.4383,4.4383,4.4383,4.4383,4.4513,4.472,4.503,4.5359,4.5726,4.6689,4.8083,4.9605,4.9827,5.0326,5.0906,5.089,5.0909,5.0909,0.0,0.0,0.0,0.0,0.0,0.0,0.0,2.5186,0.0,2.5923,2.6901,2.7643,2.7967,2.8259,2.8411,2.8411,2.8411,2.8411,2.8411,2.8508,2.8716,2.9059,2.9848,0.0,3.0788,3.1487,3.1929,3.2108,3.2197,3.2472,0.0,0.0,0.0,3.3411,0.0,3.3902,0.0,0.0,0.0,3.6987,3.6987,3.6987,3.7023,3.7409,3.7795,3.8216,3.9041,3.934,3.9392,3.9779,3.9919,4.0084,4.1054,4.1386,4.154,4.2364,4.2609,4.2631,4.2862,4.2882,4.2882,4.2882,4.2882,4.2792,4.2411,4.2432,4.2414,4.2031,4.1837,4.1464,4.0672,4.058,0.0,0.0,0.0,0.0,0.0,0.0,0.0,0.0,0.0,0.0,0.0,0.0,0.0,0.0,0.0,0.0,0.0,0.0,0.0,0.0,0.0,0.0,0.0,0.0,0.0,4.4551,4.4595,4.4602,4.4629,4.4739,4.4887,4.503,4.5264,4.5419,4.5568,4.6658,4.7588,4.84,4.9324,4.9939,5.0326,5.0751,5.0906,5.089,0.0,2.4815,0.0,0.0,2.4863,0.0,2.5477,2.5555,2.5823,2.6576,2.7674,2.8418,2.8558,2.8493,2.8396,2.8508,2.846,2.8396,2.8444,2.846,2.8636,2.8905,2.9645,3.0234,3.0642,3.1295,3.1819,0.0,3.2197,3.2472,0.0,0.0,0.0,0.0,0.0,0.0,0.0,0.0,3.5592,3.6742,3.6917,3.7075,3.7286,3.7883,3.8322,3.8778,4.0024,4.0586,4.0709,4.0709,4.0709,4.0858,4.1611,4.1849,4.1934,4.2351,4.2472,4.2552,4.2786,4.2862,4.292,4.2957,4.2995,4.2995,4.3069,4.3232,4.3373,4.3373,4.2967,4.2333,4.1531,4.1241,0.0,0.0,0.0,0.0,0.0,0.0,0.0,0.0,0.0,0.0,4.0511,0.0,0.0,0.0,0.0,0.0,0.0,0.0,0.0,0.0,0.0,4.4948,4.4934,0.0,4.4745,0.0,4.4814,4.4825,4.4849,4.5096,4.5222,4.5264,4.5436,4.5524,4.5616,4.6491,4.6922,4.7231,4.8604,4.9262,4.9513,5.0345,5.0654,5.0674,0.0,0.0,0.0,0.0,0.0,0.0,2.4803,2.5649,2.6488,2.7196,2.7458,2.7813,2.8511,2.8493,2.8508,2.8747,2.8556,2.8444,2.8573,2.87,2.8951,2.9332,2.9645,3.0208,3.1044,3.1123,3.147,0.0,0.0,3.2387,0.0,0.0,0.0,0.0,0.0,0.0,0.0,3.4498,3.5162,3.5987,3.6707,3.7391,3.8006,3.8076,3.9006,4.0288,4.0428,4.092,4.1499,4.1499,4.1499,4.1499,4.1587,4.1648,4.1675,4.1892,4.2145,4.2369,4.2552,4.2747,4.2957,4.3196,4.3267,4.3338,4.3579,4.3646,4.3646,4.3646,4.3243,4.2959,4.3277,4.2105,4.1152,0.0,0.0,0.0,0.0,0.0,0.0,4.0307,0.0,0.0,0.0,4.0646,0.0,0.0,0.0,0.0,0.0,0.0,0.0,4.4191,0.0,4.508,4.509,4.4938,0.0,4.487,4.4957,4.4985,4.4985,4.5118,4.5284,4.5472,4.549,4.561,4.5786,4.5877,4.638,4.7115,4.727,4.7831,4.8624,4.9494,4.9803,4.9919,0.0,0.0,0.0,0.0,0.0,0.0,0.0,2.5879,2.6749,2.7857,2.7996,2.8104,2.8462,2.8493,2.8541,2.8684,2.8652,2.8652,2.8573,2.8747,2.8873,2.9029,2.9454,2.9881,3.0293,3.0828,3.1278,0.0,0.0,0.0,0.0,0.0,0.0,0.0,0.0,3.2981,3.3635,3.3899,3.4688,3.5881,3.6671,3.7426,3.8216,3.9164,3.9919,4.0533,4.099,4.1341,4.1604,4.1604,4.1604,4.1604,4.1604,4.1604,4.1648,4.1849,4.1977,4.2169,4.2711,4.2902,4.3032,4.3442,4.3545,4.3579,4.3679,4.3809,4.3936,4.3936,4.3897,4.3811,4.3629,4.3057,4.2348,0.0,0.0,0.0,0.0,0.0,0.0,0.0,0.0,4.043,0.0,0.0,0.0,0.0,0.0,0.0,0.0,0.0,0.0,4.4229,0.0,4.538,4.5459,4.5323,4.5263,4.5263,4.5245,4.5285,4.5362,4.5455,4.558,4.5673,4.5723,4.5771,4.58,4.5847,4.604,4.638,4.695,4.7356,4.7734,4.8604,4.8914,4.903,2.2282,0.0,2.2783,0.0,2.3241,2.4059,2.5456,2.6104,2.6887,2.8258,2.8444,2.8444,2.8508,2.8589,2.8621,2.8716,2.8779,2.8747,2.8684,2.8779,2.8826,2.8794,2.9213,0.0,2.9793,3.0543,3.1067,3.1397,3.1949,0.0,0.0,0.0,0.0,0.0,3.2539,3.2789,3.3178,3.3424,3.4247,3.5548,3.632,3.7374,3.8585,3.9708,4.0411,4.0884,4.1411,4.1604,4.1604,4.1604,4.1604,4.1604,4.1604,4.1604,4.1648,4.1762,4.1959,4.2192,4.2714,4.3014,4.3284,4.3679,4.3809,4.3841,4.3923,4.4079,4.4199,4.4199,4.4383,4.439,4.4051,4.3777,4.3221,4.2067,0.0,0.0,0.0,0.0,0.0,0.0,4.0377,4.0427,4.0432,4.0646,0.0,0.0,0.0,0.0,0.0,0.0,0.0,0.0,0.0,0.0,0.0,4.5591,4.5509,4.556,4.5524,4.5577,4.5661,4.5727,4.5786,4.5841,4.5887,4.5854,4.5841,4.5887,4.5874,4.5899,4.6565,4.6784,4.6848,4.7724,4.8053,4.8183,2.1712,2.1698,2.1939,2.2247,2.274,2.3737,2.5531,2.6219,2.6977,2.8207,2.8541,2.8636,2.8794,2.8684,2.8716,2.9091,2.892,2.8794,2.8794,2.8842,2.8889,0.0,0.0,2.9335,2.981,3.0267,3.0788,3.1397,0.0,0.0,3.2606,0.0,3.2606,3.2606,3.2439,3.2406,3.2458,3.3213,3.3986,3.4776,3.553,3.7216,3.9305,3.9322,4.027,4.1587,4.1604,4.1604,4.1604,4.1604,4.1604,4.1604,4.1604,4.1604,4.1604,4.1604,4.2026,4.248,4.2519,4.3051,4.3664,4.3942,4.4048,4.417,4.444,4.4487,4.4515,4.4515,4.4515,4.4578,4.4846,4.4175,4.3411,4.2868,0.0,0.0,0.0,0.0,0.0,0.0,4.0431,4.0506,4.0499,0.0,0.0,0.0,0.0,0.0,0.0,0.0,0.0,4.3412,4.4899,0.0,4.5894,4.5626,4.5566,4.57,4.5771,4.58,4.58,4.588,4.5905,4.5905,4.5905,4.5905,4.5905,4.5905,4.5905,4.5905,4.5905,4.5925,4.6021,4.6894,4.7204,4.734,2.118,2.165,2.2088,2.2278,2.3036,2.4134,2.5553,2.6184,2.6977,2.8336,2.8573,2.8668,2.8842,2.8826,2.8826,0.0,2.8982,2.8951,0.0,2.8982,2.8982,2.8889,2.9029,2.9167,2.9335,2.9793,3.0335,3.0988,0.0,0.0,0.0,3.2473,3.2473,3.2473,3.2422,3.2406,3.2458,3.3213,3.3968,3.4811,3.6092,3.7374,3.8602,3.9691,4.0411,4.0902,4.1411,4.1604,4.1604,4.1604,4.1604,4.1604,4.1604,4.1604,4.1631,4.1941,4.2133,4.244,4.2996,4.3422,4.3777,4.4188,4.4306,4.4411,4.4487,4.4515,4.4515,4.4515,4.4515,4.4578,4.4846,4.4668,4.4113,4.2983,4.2565,0.0,0.0,0.0,0.0,0.0,4.0375,4.046,0.0,4.0641,0.0,0.0,0.0,0.0,0.0,0.0,0.0,0.0,4.5021,0.0,4.6037,4.591,4.5861,4.5898,4.5887,4.5847,4.5814,4.5925,4.5929,4.5886,4.5949,4.5949,4.5886,4.5949,4.5949,4.5898,4.5949,4.5949,4.5925,4.6215,4.6312,4.6429,2.1239,2.1709,2.225,2.2812,2.3505,2.4417,2.5664,2.625,2.6952,2.8046,2.8462,2.8732,2.8842,2.892,0.0,2.8967,2.9075,2.9029,2.8904,2.9029,2.9029,2.8904,2.9029,2.9075,2.9075,0.0,0.0,3.0625,3.1261,3.1858,3.2406,3.2406,3.2406,3.2406,3.2704,3.2827,3.2862,3.3634,3.4407,3.5197,3.6162,3.7163,3.8216,3.9217,3.9779,4.0147,4.0902,4.1183,4.1218,4.1516,4.1604,4.1648,4.1805,4.1831,4.1856,4.2133,4.2422,4.2754,4.33,4.3675,4.3986,4.4296,4.4411,4.4515,4.4515,4.4515,4.4515,4.4515,4.4515,4.4578,4.4846,4.4895,4.4436,4.3021,4.2794,4.2221,4.054,0.0,0.0,0.0,0.0,0.0,0.0,4.0621,0.0,0.0,0.0,0.0,0.0,0.0,0.0,4.4019,4.5259,0.0,4.6093,4.6017,4.5986,4.5997,4.596,4.5925,4.5893,4.5972,4.5983,4.5941,4.5983,4.5983,4.5941,4.5983,4.5983,4.5953,4.5983,4.5964,4.5941,4.5941,4.5941,4.603,2.1614,2.1978,0.0,0.0,2.4054,0.0,2.5686,2.6336,2.6834,2.7464,2.8204,2.8747,2.8794,2.8951,2.9075,2.9075,0.0,0.0,0.0,2.9029,2.9029,2.8904,2.9075,2.9121,2.9075,2.9544,2.9968,3.0293,3.1376,3.2055,3.2371,3.2441,3.2476,3.2511,3.3266,3.3564,3.3616,3.4442,3.5179,3.5811,3.5881,3.6759,3.8041,3.8093,3.8567,3.934,4.0182,4.0481,4.0586,4.1341,4.1604,4.1719,4.2092,4.2239,4.2279,4.2279,4.281,4.3406,4.344,4.3873,4.4314,4.4314,4.4401,4.4515,4.4515,4.4515,4.4515,4.4515,4.4515,4.4578,4.4846,4.4895,4.4436,4.3021,4.2794,4.2221,4.054,0.0,0.0,0.0,0.0,0.0,0.0,4.0602,4.0732,0.0,0.0,0.0,0.0,0.0,4.4061,4.488,4.5621,4.6046,4.6102,4.5988,4.5936,4.5997,4.5997,4.5997,4.5997,4.5997,4.5997,4.5997,4.5997,4.5997,4.5997,4.5997,4.5997,4.5997,4.5997,4.5997,4.5997,4.5997,4.5997,4.5997,0.0,0.0,2.3309,2.3699,2.4225,2.4885,2.555,2.592,2.6457,2.753,2.783,2.8189,2.8826,2.892,2.8967,2.9075,2.9075,2.9075,2.9075,2.9075,2.9075,2.9075,2.9289,2.9305,2.9121,2.9425,2.981,3.0293,3.1376,3.1948,3.2037,3.2844,3.3231,3.3283,3.4056,3.4424,3.4477,3.5232,3.5653,3.5864,3.6461,3.6917,3.7303,3.7883,3.8234,3.8585,3.9972,4.0481,4.0586,4.1341,4.1788,4.2092,4.2244,4.2698,4.3176,4.3123,4.3283,4.3557,4.391,4.4177,4.4383,4.4383,4.4458,4.4515,4.4515,4.4515,4.4515,4.4515,4.4515,4.4578,4.4846,4.4895,4.4436,4.3021,4.2794,4.2221,4.054,4.031,0.0,0.0,4.0411,4.0441,4.0489,4.0534,4.0891,0.0,0.0,0.0,0.0,4.4551,4.4742,4.4899,4.5702,4.617,4.6181,4.6093,4.6037,4.5997,4.5997,4.5997,4.5997,4.5997,4.5997,4.5997,4.5997,4.5997,4.5997,4.5997,4.5997,4.5997,4.5997,4.5997,4.5997,4.5997,4.5997,4.5997,2.2137,2.286,2.3484,2.3917,2.4393,2.4835,2.5203,2.5536,2.6028,2.6759,2.7378,2.7879,2.8415,2.8716,2.8967,2.9075,2.9075,2.9075,2.9075,2.9075,2.9075,2.9075,2.935,2.9425,2.9305,2.9515,2.9881,3.0418,3.1501,3.2152,3.2466,3.3378,3.3892,3.4091,3.4863,3.5197,3.5249,3.6022,3.6355,3.6391,3.6812,3.6987,3.7023,3.7426,3.7602,3.7795,3.9375,3.9937,4.0112,4.1349,4.1874,4.2133,4.2619,4.3069,4.3474,4.3726,4.3841,4.3936,4.4195,4.4314,4.4411,4.4458,4.4468,4.4515,4.4515,4.4515,4.4515,4.4515,4.4551,4.4659,4.4846,4.4943,4.4505,4.3041,4.2794,4.2221,4.054,4.031,0.0,4.0398,4.0432,4.0447,4.0508,4.0911,4.1442,4.2061,0.0,0.0,4.493,4.4992,4.516,4.5523,4.6011,4.6231,4.6203,4.6169,4.6138,4.6093,4.6093,4.6075,4.6056,4.6056,4.6027,4.5997,4.5997,4.5997,4.5997,4.5997,4.5997,4.5997,4.5997,4.5997,4.5997,4.5997,4.5997,4.5997,2.276,2.3119,2.3511,2.4097,2.4421,2.4607,2.4721,2.5147,2.5577,2.5825,2.6759,2.7515,2.7864,2.8415,2.8811,2.9075,2.9075,2.9075,2.9075,2.9075,2.9075,2.9075,2.9396,2.9515,2.9515,2.9835,3.026,3.0726,3.1767,3.2564,3.311,3.3965,3.4523,3.4824,3.5653,3.5987,3.6039,3.6728,3.7027,3.6987,3.6987,3.7027,3.7027,3.7027,3.7027,3.7202,3.862,3.9129,3.9441,4.1142,4.1782,4.2032,4.2996,4.3373,4.3511,4.4147,4.4344,4.4314,4.4314,4.4354,4.4411,4.4487,4.4515,4.4515,4.4515,4.4515,4.4515,4.4542,4.4632,4.4764,4.4895,4.5014,4.4633,4.3213,4.2889,4.2259,4.0711,0.0,4.0325,4.0415,4.0463,4.0585,4.0708,4.1506,4.2144,4.247,4.3303,4.42,0.0,4.5207,4.5539,4.628,4.63,4.6273,4.6206,4.6203,4.6203,4.6196,4.6196,4.6162,4.613,4.613,4.6084,4.6027,4.6027,4.6027,4.6027,4.6027,4.6027,4.6027,4.6027,4.6027,4.6027,4.6017,4.6017,4.6027,2.2617,2.3354,2.3846,2.3923,2.4203,2.435,2.435,2.4708,2.5104,2.5577,2.5974,2.6563,2.763,2.7913,2.8304,2.8858,2.9029,2.9075,2.9075,2.9075,2.9075,2.9075,2.9499,2.9677,2.9515,3.0514,3.1106,3.1194,3.2426,3.3077,3.322,3.4507,3.5151,3.5248,3.652,3.6949,3.6851,3.7129,3.7143,3.6987,3.6987,3.7105,3.722,3.7066,3.7105,3.7344,3.8028,3.8408,3.8797,4.043,4.131,4.1922,4.3011,4.3627,4.3955,4.4354,4.4458,4.4458,4.4383,4.4411,4.4487,4.4515,4.4515,4.4515,4.4515,4.4515,4.4524,4.4659,4.4685,4.4789,4.5014,4.5103,4.4824,4.3958,4.3252,4.247,4.1532,0.0,4.0362,4.0466,4.0549,4.0899,4.1693,4.195,4.2723,4.4272,4.452,4.5045,4.6046,4.6105,4.6163,4.63,4.63,4.6273,4.6206,4.6201,4.6209,4.6196,4.6196,4.6196,4.6189,4.6189,4.6189,4.6162,4.6162,4.6162,4.6162,4.6162,4.6162,4.6162,4.6162,4.6162,4.6154,4.6122,4.613,4.6154,2.2437,2.32,2.376,2.3891,2.4041,2.4203,2.4292,2.4408,2.4694,2.509,2.5481,2.6122,2.7159,2.7565,2.811,2.8858,2.8967,2.9013,2.9075,2.9075,2.9167,2.9305,2.9633,3.0076,3.0614,3.1555,3.2067,3.2067,3.3062,3.3634,3.3826,3.4856,3.5624,3.6133,3.6755,3.7126,3.7317,3.7297,3.7259,3.7143,3.7066,3.7105,3.7297,3.7182,3.7297,3.7554,3.8185,3.8756,3.9405,4.0699,4.1615,4.2318,4.3104,4.356,4.3892,4.4218,4.4383,4.4487,4.444,4.4487,4.4515,4.4515,4.4515,4.4515,4.4515,4.457,4.4632,4.4685,4.4796,4.4943,4.508,4.517,4.4927,4.413,4.3692,0.0,0.0,4.1282,4.0933,4.054,4.1017,4.1513,4.1964,4.2928,4.3907,4.4741,4.5298,4.5811,4.628,4.63,4.63,4.63,4.63,4.6296,4.6249,4.6245,4.624,4.625,4.625,4.622,4.6209,4.6209,4.6196,4.6196,4.6196,4.6196,4.6196,4.6196,4.6196,4.6196,4.6196,4.6196,4.6196,4.6181,4.6162,4.6196,2.2348,2.3125,2.3628,2.3819,2.3949,2.4112,2.4247,2.4292,2.4408,2.4664,2.509,2.5728,2.652,2.7159,2.7815,2.8606,2.8811,2.8967,2.9075,2.9075,2.9213,2.938,2.9839,3.0614,3.1808,3.258,3.2945,3.2945,3.3673,3.4176,3.4449,3.511,3.581,3.6533,3.6776,3.7091,3.7449,3.7447,3.741,3.7372,3.7203,3.7259,3.741,3.7372,3.7484,3.7757,3.8451,3.9129,3.9884,4.1043,4.1857,4.2513,4.3105,4.3442,4.3646,4.3936,4.4199,4.4411,4.4487,4.4515,4.4515,4.4515,4.4515,4.4515,4.4524,4.4632,4.4738,4.477,4.4943,4.5125,4.5148,4.5213,4.5067,4.4418,0.0,0.0,0.0,4.2085,4.1773,4.12,4.1834,4.2412,4.264,4.3989,4.4922,4.5136,4.5855,4.63,4.63,4.63,4.63,4.63,4.63,4.63,4.63,4.63,4.63,4.63,4.63,4.6273,4.6216,4.6216,4.6226,4.6222,4.6222,4.6222,4.6222,4.6222,4.6222,4.6222,4.6222,4.6222,4.6222,4.6216,4.6203,4.6201,2.2738,2.3271,2.3463,2.3569,2.376,2.3949,2.4112,2.4203,2.4292,2.435,2.465,2.5104,2.5618,2.6467,2.7246,2.7898,2.8559,2.8967,2.9075,2.9075,2.9121,2.9121,3.0231,3.1365,3.258,3.3326,3.3707,3.3707,3.4452,3.4816,3.4864,3.5224,3.5515,3.5739,3.6655,3.7052,3.6978,3.7613,3.7757,3.7594,3.754,3.7667,3.7828,3.7667,3.7703,3.7971,3.8561,3.8975,3.9409,4.0883,4.1537,4.194,4.2977,4.3303,4.3373,4.3646,4.3905,4.417,4.444,4.4515,4.4515,4.4515,4.4515,4.4524,4.4659,4.4685,4.477,4.5014,4.5103,4.5148,4.5256,4.5297,4.5277,4.5201,0.0,0.0,4.402,4.331,4.2859,4.2974,4.3172,4.3636,4.4506,4.4826,4.532,4.612,4.6261,4.63,4.63,4.63,4.63,4.63,4.63,4.63,4.63,4.63,4.63,4.63,4.63,4.63,4.63,4.63,4.6296,4.6296,4.6296,4.6296,4.6296,4.6296,4.6296,4.6296,4.6296,4.6296,4.6292,4.6211,4.6238,4.6264,2.2237,2.3005,2.3463,2.3569,2.376,2.3949,2.4054,2.4157,2.4203,2.4292,2.4549,2.4935,2.5508,2.6014,2.6707,2.7799,2.8158,2.8511,2.9075,2.9075,2.945,3.0186,3.1637,3.2758,3.3359,3.4087,3.4468,3.4468,3.475,3.4899,3.4899,3.5024,3.5333,3.5793,3.6207,3.658,3.6939,3.7301,3.7431,3.7356,3.754,3.7703,3.7899,3.7828,3.8204,3.8867,3.9085,3.9824,4.0817,4.1395,4.1957,4.2539,4.2923,4.3178,4.3338,4.3612,4.3873,4.4121,4.4327,4.4449,4.4515,4.4605,4.4632,4.4659,4.4796,4.487,4.4986,4.508,4.517,4.5235,4.5297,4.5297,4.5317,4.5378,0.0,4.4748,4.4386,4.4052,4.3685,4.3358,4.3879,4.4413,4.478,4.5416,4.5948,4.628,4.63,4.63,4.63,4.63,4.63,4.63,4.63,4.63,4.63,4.63,4.63,4.63,4.63,4.63,4.63,4.63,4.63,4.63,4.63,4.63,4.63,4.63,4.63,4.63,4.63,4.63,4.6303,4.627,4.6282,4.6288,2.2113,2.2884,2.339,2.3569,2.3688,2.3878,2.4054,2.4112,2.4099,2.4261,2.4434,2.4778,2.5258,2.566,2.6351,2.75,2.775,2.8207,2.8967,2.9485,3.021,3.1202,3.2574,3.3561,3.4137,3.4634,3.4899,3.4899,3.4947,3.4947,3.4947,3.4994,3.5287,3.5766,3.5924,3.6249,3.6759,3.7132,3.7283,3.7321,3.7649,3.7846,3.8039,3.8257,3.8794,3.946,3.9948,4.0818,4.1759,4.1995,4.2448,4.2882,4.2882,4.305,4.3286,4.3563,4.386,4.4121,4.4308,4.4486,4.4659,4.4738,4.4745,4.4815,4.4919,4.5014,4.5125,4.5148,4.5254,4.5297,4.5297,4.5297,4.5317,4.5398,4.5398,4.5266,4.4862,4.4795,4.4679,4.4287,4.483,4.5215,4.5279,4.5894,4.63,4.63,4.63,4.63,4.63,4.63,4.63,4.63,4.63,4.63,4.63,4.63,4.63,4.63,4.63,4.63,4.63,4.63,4.63,4.63,4.63,4.63,4.63,4.63,4.63,4.63,4.6309,4.6293,4.6295,4.6288,4.6269,4.6267,2.2592,2.3017,2.3198,2.3569,2.3628,2.3688,2.4054,2.4112,2.4112,2.4112,2.439,2.462,2.462,2.5397,2.6136,2.6849,2.75,2.8158,2.8858,3.0336,3.1453,3.1963,3.2707,3.368,3.4883,3.4899,3.4899,3.4899,3.5041,3.5088,3.5088,3.5245,3.5383,3.5537,3.5915,3.6156,3.6343,3.717,3.7505,3.7542,3.802,3.8192,3.8282,3.9097,3.9405,3.9623,4.1162,4.1723,4.185,4.2629,4.2882,4.2882,4.2882,4.2994,4.3141,4.3428,4.3795,4.4151,4.4421,4.4693,4.4895,4.4895,4.4895,4.4919,4.508,4.5103,4.5148,4.5275,4.5297,4.5297,4.5297,4.5297,4.5317,4.5398,4.5398,4.5477,4.5673,4.5684,4.579,4.6064,4.6098,4.615,4.6296,4.63,4.63,4.63,4.63,4.63,4.63,4.63,4.63,4.63,4.63,4.63,4.63,4.63,4.63,4.63,4.63,4.63,4.63,4.63,4.63,4.63,4.63,4.63,4.63,4.63,4.63,4.6303,4.6303,4.6307,4.6288,4.6228,4.6192,4.6206,2.1951,2.258,2.309,2.339,2.3509,2.3688,2.3949,2.4067,2.4112,2.4112,2.4261,2.4421,2.4549,2.4892,2.5425,2.6187,2.6678,2.7607,2.9288,3.0521,3.1577,3.2449,3.3355,3.4088,3.4594,3.4787,3.4899,3.4899,3.4947,3.4994,3.5088,3.5152,3.5291,3.5492,3.5611,3.5728,3.5827,3.6433,3.6821,3.7132,3.7559,3.8222,3.9061,3.9297,4.0075,4.1089,4.1542,4.2067,4.2574,4.281,4.2882,4.2938,4.2994,4.3067,4.3141,4.3251,4.3495,4.3841,4.425,4.453,4.4758,4.4991,4.5057,4.508,4.5213,4.5235,4.5235,4.5297,4.5297,4.5317,4.5359,4.5359,4.5399,4.5458,4.5477,4.5545,4.5815,4.5832,4.5949,4.6211,4.624,4.6269,4.63,4.63,4.63,4.63,4.6293,4.6293,4.63,4.63,4.63,4.63,4.63,4.63,4.63,4.63,4.63,4.63,4.63,4.63,4.63,4.63,4.63,4.63,4.63,4.63,4.63,4.63,4.63,4.6303,4.6303,4.6308,4.6297,4.6225,4.6195,4.6201,2.1581,2.2457,2.309,2.3343,2.345,2.3641,2.3832,2.3949,2.4067,2.4112,2.4274,2.4478,2.462,2.4778,2.5203,2.604,2.6797,2.8021,2.9871,3.0773,3.17,3.2886,3.3673,3.425,3.4497,3.4739,3.4899,3.4899,3.4994,3.5088,3.5198,3.5274,3.5367,3.552,3.552,3.5549,3.5622,3.6088,3.6451,3.6719,3.7266,3.8187,3.9247,3.9678,4.0619,4.1814,4.2122,4.2539,4.29,4.2938,4.2994,4.2994,4.3123,4.3178,4.3215,4.3269,4.3513,4.3809,4.4102,4.443,4.472,4.4929,4.5084,4.5192,4.5297,4.5297,4.5317,4.5338,4.5338,4.5359,4.538,4.54,4.5419,4.5495,4.5495,4.5594,4.5867,4.5899,4.586,4.5781,4.5792,4.5656,4.5304,4.5578,4.5932,4.627,4.6297,4.6301,4.6297,4.6293,4.629,4.629,4.629,4.6306,4.63,4.63,4.63,4.63,4.63,4.63,4.63,4.63,4.63,4.63,4.63,4.63,4.63,4.63,4.627,4.6264,4.623,4.6217,4.6221,4.6176,4.6176,4.6201,2.1323,2.2384,2.3138,2.3343,2.3403,2.3522,2.3832,2.3891,2.3949,2.4054,2.439,2.4549,2.462,2.4835,2.5328,2.6136,2.7479,2.8919,3.0463,3.0942,3.1839,3.3298,3.3848,3.425,3.4497,3.4756,3.4899,3.4899,3.5152,3.5291,3.5291,3.5503,3.5577,3.5622,3.5622,3.5622,3.5622,3.6045,3.6259,3.6367,3.7094,3.8023,3.912,4.0077,4.1107,4.2105,4.2832,4.3049,4.2938,4.3049,4.3104,4.3141,4.3178,4.3305,4.3394,4.3429,4.3667,4.3974,4.4005,4.4374,4.4776,4.4776,4.5045,4.5297,4.5297,4.5297,4.5317,4.5398,4.5418,4.5419,4.54,4.5419,4.5438,4.5495,4.5513,4.5613,4.5856,4.5831,4.5598,4.505,4.493,4.4563,4.3782,4.4484,4.533,4.6124,4.6262,4.6306,4.6308,4.6306,4.6303,4.6303,4.6301,4.6297,4.63,4.63,4.63,4.63,4.63,4.63,4.63,4.63,4.6303,4.629,4.6287,4.629,4.6273,4.6273,4.6246,4.6189,4.6111,4.6094,4.6086,4.6091,4.6138,4.6196,2.0796,2.2051,2.303,2.3343,2.3509,2.3628,2.3891,2.4008,2.4054,2.4112,2.4261,2.4421,2.4549,2.4948,2.53,2.5647,2.6602,2.8156,3.0315,3.0829,3.1892,3.3834,3.425,3.4497,3.4643,3.4804,3.4899,3.4899,3.5041,3.5198,3.5291,3.5429,3.5566,3.5622,3.5622,3.5622,3.5622,3.5711,3.5958,3.6301,3.6492,3.7862,3.9854,4.0109,4.1305,4.2868,4.3087,4.3123,4.3049,4.3142,4.3178,4.3178,4.3305,4.3394,4.3429,4.3463,4.3532,4.3682,4.3942,4.425,4.4546,4.4751,4.5045,4.5297,4.5297,4.5338,4.5379,4.5398,4.54,4.5419,4.5476,4.5476,4.5495,4.5568,4.5586,4.5635,4.5808,4.5306,4.4924,4.4842,4.4339,4.3918,4.3723,4.4484,4.507,4.5269,4.5914,4.6308,4.6308,4.6308,4.6308,4.6308,4.6305,4.6297,4.63,4.63,4.63,4.63,4.63,4.63,4.63,4.63,4.6262,4.6228,4.6211,4.6187,4.6147,4.6147,4.6134,4.6119,4.6039,4.6013,4.6016,4.6017,4.6047,4.6138,2.0381,2.1884,2.309,2.3343,2.3463,2.3582,2.3832,2.4008,2.4112,2.4216,2.4421,2.4593,2.4664,2.4948,2.523,2.5647,2.6616,2.812,3.0248,3.0829,3.1976,3.4036,3.4349,3.4546,3.4691,3.4899,3.5041,3.5088,3.5245,3.5354,3.54,3.552,3.5549,3.5622,3.5622,3.5622,3.5622,3.5622,3.5739,3.6002,3.6241,3.7749,3.9899,4.007,4.1432,4.3251,4.3269,4.3269,4.3251,4.3269,4.3305,4.3286,4.3411,4.3446,4.3428,4.3497,4.3497,4.3532,4.3716,4.4072,4.4438,4.4572,4.4976,4.5338,4.5338,4.5359,4.5399,4.5438,4.5438,4.5476,4.555,4.555,4.5568,4.5586,4.5586,4.5651,4.5794,4.5144,4.4552,4.4261,4.3526,4.3045,4.3088,4.3866,4.4543,4.4972,4.5816,4.6308,4.6308,4.6308,4.6308,4.6308,4.6307,4.6306,4.6301,4.6309,4.63,4.63,4.6309,4.6282,4.625,4.625,4.6226,4.616,4.6152,4.6119,4.6108,4.6099,4.6079,4.6053,4.601,4.5978,4.5949,4.5953,4.6017,4.6122,2.0098,2.1752,2.3078,2.339,2.3463,2.3582,2.3891,2.4008,2.4157,2.4292,2.4593,2.4778,2.4778,2.5005,2.5397,2.6002,2.6959,2.8258,3.0043,3.0817,3.1978,3.3858,3.4333,3.4643,3.4804,3.4994,3.5198,3.5291,3.5446,3.5492,3.5492,3.5594,3.5622,3.5622,3.5622,3.5622,3.5622,3.5622,3.5622,3.5667,3.6114,3.7592,3.9629,3.9996,4.1488,4.3394,4.3411,4.3429,4.3429,4.3429,4.3429,4.3411,4.3497,4.3497,4.3497,4.3497,4.3497,4.3497,4.3497,4.3918,4.4346,4.4383,4.4862,4.53,4.5227,4.5323,4.5438,4.5476,4.5513,4.5531,4.5586,4.5586,4.5586,4.5586,4.5622,4.5651,4.5761,4.4976,4.4168,4.3625,4.2708,4.2124,4.2181,4.2978,4.383,4.4706,4.5583,4.6133,4.6289,4.6308,4.6308,4.6308,4.6308,4.6308,4.6308,4.63,4.6306,4.63,4.6289,4.6256,4.6206,4.6182,4.6147,4.6086,4.6088,4.6068,4.6047,4.6044,4.6018,4.5968,4.5968,4.5925,4.5873,4.5905,4.5975,4.6075,2.0414,2.167,2.275,2.3437,2.37,2.3891,2.4067,2.4112,2.4157,2.4292,2.4492,2.4677,2.4778,2.5397,2.6002,2.6621,2.6951,2.7683,2.9093,3.032,3.1707,3.3161,3.4249,3.4947,3.5198,3.5245,3.5291,3.5291,3.5446,3.5492,3.5492,3.5594,3.5622,3.5622,3.5622,3.5667,3.5773,3.5667,3.5667,3.5773,3.5844,3.7376,3.9611,3.9711,4.1286,4.3429,4.3481,4.3497,4.3497,4.3497,4.3497,4.3497,4.3497,4.3497,4.3497,4.3497,4.3497,4.3497,4.3497,4.3763,4.4121,4.4411,4.4726,4.4881,4.4537,4.4996,4.5476,4.5495,4.555,4.5586,4.5586,4.5586,4.5586,4.5586,4.564,4.569,4.5706,4.4423,4.3448,4.3438,4.2208,4.1347,4.1367,4.2109,4.2949,4.3808,4.4687,4.5508,4.6269,4.6308,4.6308,4.6308,4.6308,4.6308,4.6308,4.6308,4.6303,4.6303,4.6242,4.6208,4.6196,4.6134,4.6085,4.6009,4.6007,4.5947,4.5841,4.5835,4.5854,4.5822,4.5822,4.5808,4.5827,4.5893,4.5898,4.5941,1.9591,2.1218,2.2555,2.298,2.3497,2.3949,2.4054,2.4287,2.439,2.4492,2.4664,2.4905,2.5145,2.5729,2.6258,2.6486,2.687,2.7654,2.8921,2.9998,3.1406,3.3144,3.3964,3.4735,3.5383,3.5337,3.5337,3.5458,3.5503,3.5549,3.5549,3.5684,3.5667,3.5622,3.5667,3.5711,3.5773,3.5728,3.5773,3.5817,3.5949,3.7175,3.8986,3.9569,4.1052,4.2842,4.3332,4.3497,4.3497,4.3497,4.3497,4.3497,4.3497,4.3497,4.3497,4.3497,4.3497,4.3497,4.3497,4.3763,4.4121,4.443,4.441,4.4312,4.4307,4.4572,4.482,4.482,4.5222,4.5603,4.564,4.5657,4.5657,4.5671,4.5687,4.5703,4.5754,4.4326,4.3009,4.2207,4.1563,4.1191,4.1191,4.1933,4.2754,4.3633,4.4512,4.5371,4.625,4.6308,4.6308,4.6308,4.6308,4.6308,4.6308,4.6308,4.6278,4.6235,4.6191,4.6147,4.6143,4.6072,4.6002,4.5891,4.5893,4.5861,4.58,4.58,4.58,4.58,4.58,4.58,4.5814,4.5822,4.588,4.5898]},{"header":{"parameterUnit":"m.s-1","parameterCategory":1,"la1":30.6,"la2":28.766,"lo1":-90.7593,"lo2":-88.6598,"dy":0.0162,"dx":0.0183,"nx":116,"ny":114,"refTime":"2024-04-02T18:00:00:Z","depth":0,"parameterNumber":3,"parameterNumberName":"V-component_of_WINDS"},"data":[0.0,0.0,0.0,0.0,0.0,0.0,0.0,0.0,0.0,0.0,0.0,0.0,0.0,0.0,0.0,0.0,0.0,0.0,0.0,0.0,0.0,0.0,0.0,0.0,0.0,0.0,0.0,0.0,0.0,0.0,0.0,0.0,0.0,0.0,0.0,0.0,0.0,0.0,0.0,0.0,0.0,0.0,0.0,0.0,0.0,0.0,0.0,0.0,0.0,0.0,0.0,0.0,0.0,0.0,0.0,0.0,0.0,0.0,0.0,0.0,0.0,0.0,0.0,0.0,0.0,0.0,0.0,0.0,0.0,0.0,0.0,0.0,0.0,0.0,0.0,0.0,0.0,0.0,0.0,0.0,0.0,0.0,0.0,0.0,0.0,0.0,0.0,0.0,0.0,0.0,0.0,0.0,0.0,0.0,0.0,0.0,0.0,0.0,0.0,0.0,0.0,0.0,0.0,0.0,0.0,0.0,0.0,0.0,0.0,0.0,0.0,0.0,0.0,0.0,0.0,0.0,0.0,0.0,0.0,0.0,0.0,0.0,0.0,0.0,0.0,0.0,0.0,0.0,0.0,0.0,0.0,0.0,0.0,0.0,0.0,0.0,0.0,0.0,0.0,0.0,0.0,0.0,0.0,0.0,0.0,0.0,0.0,0.0,0.0,0.0,0.0,0.0,0.0,0.0,0.0,0.0,0.0,0.0,0.0,0.0,0.0,0.0,0.0,0.0,0.0,0.0,0.0,0.0,0.0,0.0,0.0,0.0,0.0,0.0,0.0,0.0,0.0,0.0,0.0,0.0,0.0,0.0,0.0,0.0,0.0,0.0,0.0,0.0,0.0,0.0,0.0,0.0,0.0,0.0,0.0,0.0,0.0,0.0,0.0,0.0,0.0,0.0,0.0,0.0,0.0,0.0,0.0,0.0,0.0,0.0,0.0,0.0,0.0,0.0,0.0,0.0,0.0,0.0,0.0,0.0,0.0,0.0,0.0,0.0,0.0,0.0,0.0,0.0,0.0,0.0,0.0,0.0,0.0,0.0,0.0,0.0,0.0,0.0,0.0,0.0,0.0,0.0,0.0,0.0,0.0,0.0,0.0,0.0,0.0,0.0,0.0,0.0,0.0,0.0,0.0,0.0,0.0,0.0,0.0,0.0,0.0,0.0,0.0,0.0,0.0,0.0,0.0,0.0,0.0,0.0,0.0,0.0,0.0,0.0,0.0,0.0,0.0,0.0,0.0,0.0,0.0,0.0,0.0,0.0,0.0,0.0,0.0,0.0,0.0,0.0,0.0,0.0,0.0,0.0,0.0,0.0,0.0,0.0,0.0,0.0,0.0,0.0,0.0,0.0,0.0,0.0,0.0,0.0,0.0,0.0,0.0,0.0,0.0,0.0,0.0,0.0,0.0,0.0,0.0,0.0,0.0,0.0,0.0,0.0,0.0,0.0,0.0,0.0,0.0,0.0,0.0,0.0,0.0,0.0,0.0,0.0,0.0,0.0,0.0,0.0,0.0,0.0,0.0,0.0,0.0,0.0,0.0,0.0,0.0,0.0,0.0,0.0,0.0,0.0,0.0,0.0,0.0,0.0,0.0,0.0,0.0,0.0,0.0,0.0,0.0,0.0,0.0,0.0,0.0,0.0,0.0,0.0,0.0,0.0,0.0,0.0,0.0,0.0,0.0,0.0,0.0,0.0,0.0,0.0,0.0,0.0,0.0,0.0,0.0,0.0,0.0,0.0,0.0,0.0,0.0,0.0,0.0,0.0,0.0,0.0,0.0,0.0,0.0,0.0,0.0,0.0,0.0,0.0,0.0,0.0,0.0,0.0,0.0,0.0,0.0,0.0,0.0,0.0,0.0,0.0,0.0,0.0,0.0,0.0,0.0,0.0,0.0,0.0,0.0,0.0,0.0,0.0,0.0,0.0,0.0,0.0,0.0,0.0,0.0,0.0,0.0,0.0,0.0,0.0,0.0,0.0,0.0,0.0,0.0,0.0,0.0,0.0,0.0,0.0,0.0,0.0,0.0,0.0,0.0,0.0,0.0,0.0,0.0,0.0,0.0,0.0,0.0,0.0,0.0,0.0,0.0,0.0,0.0,0.0,0.0,0.0,0.0,0.0,0.0,0.0,0.0,0.0,0.0,0.0,0.0,0.0,0.0,0.0,0.0,0.0,0.0,0.0,0.0,0.0,0.0,0.0,0.0,0.0,0.0,0.0,0.0,0.0,0.0,0.0,0.0,0.0,0.0,0.0,0.0,0.0,0.0,0.0,0.0,0.0,0.0,0.0,0.0,0.0,0.0,0.0,0.0,0.0,0.0,0.0,0.0,0.0,0.0,0.0,0.0,0.0,0.0,0.0,0.0,0.0,0.0,0.0,0.0,0.0,0.0,0.0,0.0,0.0,0.0,0.0,0.0,0.0,0.0,0.0,0.0,0.0,0.0,0.0,0.0,0.0,0.0,0.0,0.0,0.0,0.0,0.0,0.0,0.0,0.0,0.0,0.0,0.0,0.0,0.0,0.0,0.0,0.0,0.0,0.0,0.0,0.0,0.0,0.0,0.0,0.0,0.0,0.0,0.0,0.0,0.0,0.0,0.0,0.0,0.0,0.0,0.0,0.0,0.0,0.0,0.0,0.0,0.0,0.0,0.0,0.0,0.0,0.0,0.0,0.0,0.0,0.0,0.0,0.0,0.0,0.0,0.0,0.0,0.0,0.0,0.0,0.0,0.0,0.0,0.0,0.0,0.0,0.0,0.0,0.0,0.0,0.0,0.0,0.0,0.0,0.0,0.0,0.0,0.0,0.0,0.0,0.0,0.0,0.0,0.0,0.0,0.0,0.0,0.0,0.0,0.0,0.0,0.0,0.0,0.0,0.0,0.0,0.0,0.0,0.0,0.0,0.0,0.0,0.0,0.0,0.0,0.0,0.0,0.0,0.0,0.0,0.0,0.0,0.0,0.0,0.0,0.0,0.0,0.0,0.0,0.0,0.0,0.0,0.0,0.0,0.0,0.0,0.0,0.0,0.0,0.0,0.0,0.0,0.0,0.0,0.0,0.0,0.0,0.0,0.0,0.0,0.0,0.0,0.0,0.0,0.0,0.0,0.0,0.0,0.0,0.0,0.0,0.0,0.0,0.0,0.0,0.0,0.0,0.0,0.0,0.0,0.0,0.0,0.0,0.0,0.0,0.0,0.0,0.0,0.0,0.0,0.0,0.0,0.0,0.0,0.0,0.0,0.0,0.0,0.0,0.0,0.0,0.0,0.0,0.0,0.0,0.0,0.0,0.0,0.0,0.0,0.0,0.0,0.0,0.0,0.0,0.0,0.0,0.0,0.0,0.0,0.0,0.0,0.0,0.0,0.0,0.0,0.0,0.0,0.0,0.0,0.0,0.0,0.0,0.0,0.0,0.0,0.0,0.0,0.0,0.0,0.0,0.0,0.0,0.0,0.0,0.0,0.0,0.0,0.0,0.0,0.0,0.0,0.0,0.0,0.0,0.0,0.0,0.0,0.0,0.0,0.0,0.0,0.0,0.0,0.0,0.0,0.0,0.0,0.0,0.0,0.0,0.0,0.0,0.0,0.0,0.0,0.0,0.0,0.0,0.0,0.0,0.0,0.0,0.0,0.0,0.0,0.0,0.0,0.0,0.0,0.0,0.0,0.0,0.0,0.0,0.0,0.0,0.0,0.0,0.0,0.0,0.0,0.0,0.0,0.0,0.0,0.0,0.0,0.0,0.0,0.0,0.0,0.0,0.0,0.0,0.0,0.0,0.0,0.0,0.0,0.0,0.0,0.0,0.0,0.0,0.0,0.0,0.0,0.0,0.0,0.0,0.0,0.0,0.0,0.0,0.0,0.0,0.0,0.0,0.0,0.0,0.0,0.0,0.0,0.0,0.0,0.0,0.0,0.0,0.0,0.0,0.0,0.0,0.0,0.0,0.0,0.0,0.0,0.0,0.0,0.0,0.0,0.0,0.0,0.0,0.0,0.0,0.0,0.0,0.0,0.0,0.0,0.0,0.0,0.0,0.0,0.0,0.0,0.0,0.0,0.0,0.0,0.0,0.0,0.0,0.0,0.0,0.0,0.0,0.0,0.0,0.0,0.0,0.0,0.0,0.0,0.0,0.0,0.0,0.0,0.0,0.0,0.0,0.0,0.0,0.0,0.0,0.0,0.0,0.0,0.0,0.0,0.0,0.0,0.0,0.0,0.0,0.0,0.0,0.0,0.0,0.0,0.0,0.0,0.0,0.0,0.0,0.0,0.0,0.0,0.0,0.0,0.0,0.0,0.0,0.0,0.0,0.0,0.0,0.0,0.0,0.0,0.0,0.0,0.0,0.0,0.0,0.0,0.0,0.0,0.0,0.0,0.0,0.0,0.0,0.0,0.0,0.0,0.0,0.0,0.0,0.0,0.0,0.0,0.0,0.0,0.0,0.0,0.0,0.0,0.0,0.0,0.0,0.0,0.0,0.0,0.0,0.0,0.0,0.0,0.0,0.0,0.0,0.0,0.0,0.0,0.0,0.0,0.0,0.0,0.0,0.0,0.0,0.0,0.0,0.0,0.0,0.0,0.0,0.0,0.0,0.0,0.0,0.0,0.0,0.0,0.0,0.0,0.0,0.0,0.0,0.0,0.0,0.0,0.0,0.0,0.0,0.0,0.0,0.0,0.0,0.0,0.0,0.0,0.0,0.0,0.0,0.0,0.0,0.0,0.0,0.0,0.0,0.0,0.0,0.0,0.0,0.0,0.0,0.0,0.0,0.0,0.0,0.0,0.0,0.0,0.0,0.0,0.0,0.0,0.0,0.0,0.0,0.0,0.0,0.0,0.0,0.0,0.0,0.0,0.0,0.0,0.0,0.0,0.0,0.0,0.0,0.0,0.0,0.0,0.0,0.0,0.0,0.0,0.0,0.0,0.0,0.0,0.0,0.0,0.0,0.0,0.0,0.0,0.0,0.0,0.0,0.0,0.0,0.0,0.0,0.0,0.0,0.0,0.0,0.0,0.0,0.0,0.0,0.0,0.0,0.0,0.0,0.0,0.0,0.0,0.0,0.0,0.0,0.0,0.0,0.0,0.0,0.0,0.0,0.0,0.0,0.0,0.0,0.0,0.0,0.0,0.0,0.0,0.0,0.0,0.0,0.0,0.0,0.0,0.0,0.0,0.0,0.0,0.0,0.0,0.0,0.0,0.0,0.0,0.0,0.0,0.0,0.0,0.0,0.0,0.0,0.0,0.0,0.0,0.0,0.0,0.0,0.0,0.0,0.0,0.0,0.0,0.0,0.0,0.0,0.0,0.0,0.0,0.0,0.0,0.0,0.0,0.0,0.0,0.0,0.0,0.0,0.0,0.0,0.0,0.0,0.0,0.0,0.0,0.0,0.0,0.0,0.0,0.0,0.0,0.0,0.0,0.0,0.0,0.0,0.0,0.0,0.0,0.0,0.0,0.0,0.0,0.0,0.0,0.0,0.0,0.0,0.0,0.0,0.0,0.0,0.0,0.0,0.0,0.0,0.0,0.0,0.0,0.0,0.0,0.0,0.0,0.0,0.0,0.0,0.0,0.0,0.0,0.0,0.0,0.0,0.0,0.0,0.0,0.0,0.0,0.0,0.0,0.0,0.0,0.0,0.0,0.0,0.0,0.0,0.0,0.0,0.0,0.0,0.0,0.0,0.0,0.0,0.0,0.0,0.0,0.0,0.0,0.0,0.0,0.0,0.0,0.0,0.0,0.0,0.0,0.0,0.0,0.0,0.0,0.0,0.0,0.0,0.0,0.0,0.0,0.0,0.0,0.0,0.0,0.0,0.0,0.0,0.0,0.0,0.0,0.0,0.0,0.0,0.0,0.0,0.0,0.0,0.0,0.0,0.0,0.0,0.0,0.0,0.0,0.0,0.0,0.0,0.0,0.0,0.0,0.0,0.0,0.0,0.0,0.0,0.0,0.0,0.0,0.0,0.0,0.0,0.0,0.0,0.0,0.0,0.0,0.0,0.0,0.0,0.0,0.0,0.0,0.0,0.0,0.0,0.0,0.0,0.0,0.0,0.0,0.0,0.0,0.0,0.0,0.0,0.0,0.0,0.0,0.0,0.0,0.0,0.0,0.0,0.0,2.1258,0.0,0.0,0.0,0.0,0.0,0.0,0.0,0.0,0.0,0.0,0.0,0.0,0.0,0.0,0.0,0.0,0.0,0.0,0.0,0.0,0.0,0.0,0.0,0.0,2.9793,2.9572,2.912,2.8842,2.8685,2.8685,0.0,0.0,0.0,0.0,0.0,2.9056,2.9071,2.9385,2.9903,2.9833,2.99,3.0056,2.9869,2.9754,2.9711,0.0,0.0,0.0,0.0,0.0,0.0,0.0,0.0,0.0,0.0,0.0,0.0,0.0,0.0,0.0,0.0,0.0,0.0,0.0,0.0,0.0,0.0,0.0,0.0,0.0,0.0,0.0,0.0,0.0,0.0,0.0,0.0,0.0,0.0,0.0,0.0,0.0,0.0,0.0,0.0,0.0,0.0,0.0,0.0,0.0,0.0,0.0,0.0,0.0,0.0,0.0,0.0,0.0,0.0,0.0,0.0,0.0,0.0,0.0,0.0,0.0,0.0,0.0,0.0,0.0,0.0,0.0,0.0,0.0,0.0,0.0,2.1277,0.0,0.0,0.0,0.0,0.0,0.0,0.0,0.0,0.0,0.0,0.0,0.0,0.0,0.0,0.0,0.0,0.0,0.0,0.0,0.0,0.0,3.0342,2.9984,3.0199,3.0113,2.9393,2.9257,2.9213,2.9248,2.8857,2.883,2.9302,2.9332,2.9462,2.9729,2.9744,3.0058,3.063,3.0559,3.0686,3.1014,3.0702,3.0642,0.0,3.0642,0.0,0.0,0.0,0.0,0.0,0.0,0.0,0.0,0.0,0.0,0.0,0.0,0.0,0.0,0.0,0.0,0.0,0.0,0.0,0.0,0.0,0.0,0.0,0.0,0.0,0.0,0.0,0.0,0.0,0.0,0.0,0.0,0.0,0.0,0.0,0.0,0.0,0.0,0.0,0.0,0.0,0.0,0.0,0.0,0.0,0.0,0.0,0.0,0.0,0.0,0.0,0.0,0.0,0.0,0.0,0.0,0.0,0.0,0.0,0.0,0.0,0.0,0.0,2.5728,2.5359,2.4723,2.4307,2.4145,2.4104,2.3036,2.2768,2.2909,0.0,0.0,0.0,0.0,0.0,0.0,0.0,0.0,0.0,0.0,0.0,0.0,0.0,0.0,0.0,0.0,0.0,0.0,0.0,0.0,3.0468,3.0426,3.0113,3.0027,3.03,2.9941,2.9769,2.988,2.9832,2.9723,2.9576,2.9552,2.9798,3.0372,3.0372,3.066,3.1202,3.0925,3.0733,3.0642,0.0,0.0,0.0,3.0628,3.0568,0.0,0.0,0.0,0.0,0.0,0.0,0.0,0.0,0.0,0.0,0.0,0.0,0.0,0.0,0.0,0.0,0.0,0.0,0.0,0.0,0.0,0.0,0.0,0.0,0.0,0.0,0.0,0.0,0.0,0.0,0.0,0.0,0.0,0.0,0.0,0.0,0.0,0.0,0.0,0.0,0.0,0.0,2.5635,2.5704,0.0,0.0,0.0,0.0,0.0,0.0,0.0,0.0,0.0,0.0,0.0,0.0,0.0,0.0,2.6345,2.5673,2.5285,2.5285,2.4871,2.4615,2.4529,2.4444,2.4444,2.4444,2.4235,0.0,2.3404,2.3258,0.0,0.0,0.0,0.0,0.0,0.0,0.0,0.0,0.0,0.0,0.0,0.0,0.0,0.0,0.0,0.0,0.0,0.0,0.0,0.0,0.0,3.0342,3.03,3.0468,3.0446,3.0583,3.0875,3.1033,3.1084,3.1031,3.1337,3.135,3.1076,3.1399,3.166,3.1827,3.1603,3.1553,0.0,0.0,0.0,0.0,3.1671,3.1264,0.0,0.0,0.0,0.0,0.0,0.0,0.0,0.0,0.0,0.0,0.0,0.0,0.0,0.0,0.0,0.0,0.0,0.0,0.0,0.0,0.0,0.0,0.0,0.0,0.0,0.0,0.0,0.0,0.0,0.0,0.0,0.0,0.0,0.0,0.0,0.0,0.0,0.0,0.0,0.0,0.0,2.5991,2.6244,2.6531,2.6565,2.6565,0.0,0.0,0.0,0.0,0.0,0.0,0.0,0.0,0.0,2.7231,2.6962,2.688,2.688,2.655,2.6302,2.6302,2.6135,2.6052,2.5968,2.5475,2.5306,2.5221,2.4711,2.4368,2.4024,2.4024,2.3493,2.2608,0.0,0.0,0.0,0.0,0.0,2.0826,0.0,0.0,0.0,0.0,0.0,0.0,0.0,0.0,0.0,0.0,0.0,0.0,3.0526,3.0526,3.0593,3.0733,3.0986,3.1312,3.1929,3.2134,3.2273,3.2376,3.2695,3.2631,3.2251,3.2588,3.2546,3.2077,3.2132,0.0,0.0,0.0,0.0,0.0,0.0,0.0,0.0,0.0,0.0,0.0,0.0,0.0,0.0,0.0,0.0,0.0,0.0,0.0,0.0,0.0,0.0,0.0,0.0,0.0,0.0,0.0,0.0,0.0,0.0,0.0,0.0,0.0,0.0,0.0,0.0,0.0,0.0,0.0,0.0,0.0,0.0,0.0,0.0,0.0,0.0,0.0,0.0,2.6577,2.6806,2.7185,2.7231,2.7231,0.0,0.0,0.0,0.0,0.0,0.0,2.7231,2.7231,2.7231,2.7231,2.7231,2.7231,2.7231,2.7056,2.7056,2.7056,2.7016,2.7084,2.7001,2.637,2.6021,2.5912,2.506,2.4654,2.454,2.454,2.411,2.3503,2.3677,2.3212,2.2403,2.2059,2.1802,2.1526,0.0,0.0,0.0,0.0,0.0,0.0,0.0,0.0,0.0,0.0,0.0,3.0526,3.0526,3.0526,3.0808,3.1461,3.156,3.1933,3.287,3.2951,3.3012,3.3156,3.2703,3.2975,3.4123,3.3921,3.3156,3.1833,0.0,0.0,0.0,0.0,0.0,0.0,0.0,0.0,0.0,0.0,0.0,0.0,0.0,0.0,0.0,0.0,0.0,0.0,0.0,0.0,0.0,0.0,0.0,0.0,0.0,0.0,0.0,0.0,0.0,0.0,0.0,0.0,0.0,0.0,0.0,0.0,0.0,0.0,0.0,0.0,0.0,0.0,0.0,0.0,0.0,0.0,0.0,0.0,0.0,0.0,0.0,2.7231,2.7231,0.0,0.0,0.0,0.0,2.7231,2.7231,2.7231,2.7231,2.7231,2.7231,2.7231,2.7231,2.7231,2.7231,2.6787,2.6528,2.6539,2.6587,2.6636,2.6647,2.6571,2.6373,2.5989,2.5378,2.4943,2.454,2.454,2.411,2.359,2.4196,2.3647,2.2482,2.3135,2.295,2.2217,0.0,0.0,0.0,0.0,0.0,3.0526,3.0526,3.0526,3.0526,3.0526,3.0526,3.0526,3.0526,3.0898,3.1295,3.156,3.2481,3.3152,3.3461,3.3937,3.4105,3.3799,3.4403,3.4969,3.554,3.4561,3.4239,3.4438,0.0,0.0,0.0,0.0,0.0,0.0,0.0,0.0,0.0,0.0,0.0,0.0,0.0,0.0,0.0,0.0,0.0,0.0,0.0,0.0,0.0,0.0,0.0,0.0,0.0,0.0,0.0,0.0,0.0,0.0,0.0,0.0,0.0,0.0,0.0,0.0,0.0,0.0,0.0,0.0,0.0,0.0,0.0,0.0,0.0,0.0,0.0,0.0,0.0,0.0,0.0,2.7231,2.7231,0.0,2.7231,2.7231,2.7231,2.7231,2.7231,2.7231,2.7231,2.7231,2.7231,2.7231,2.7541,2.7713,2.7713,2.7843,2.7907,2.7907,2.7906,2.7824,2.7489,2.7217,2.6775,2.637,2.5826,2.5554,2.5399,2.5399,2.4882,2.4196,2.4368,2.4186,2.3744,2.358,2.3319,2.3038,0.0,0.0,0.0,0.0,3.0526,3.0526,3.0526,3.0526,3.0526,3.0526,3.0526,3.0526,3.0526,3.1146,3.1719,3.1967,3.3094,3.3905,3.4154,3.4618,3.4855,3.4758,3.5959,3.6413,3.5873,3.5498,3.5509,0.0,0.0,0.0,0.0,0.0,0.0,0.0,0.0,0.0,0.0,0.0,0.0,0.0,0.0,0.0,3.3137,0.0,0.0,0.0,0.0,0.0,0.0,0.0,0.0,0.0,0.0,0.0,0.0,0.0,0.0,0.0,0.0,0.0,0.0,0.0,0.0,0.0,0.0,0.0,0.0,0.0,0.0,0.0,0.0,0.0,0.0,0.0,0.0,0.0,0.0,0.0,2.7231,2.7231,2.7231,2.7231,2.7231,2.7231,2.7231,2.7231,2.7231,2.7231,2.7231,2.7392,2.7483,2.7483,2.7966,2.823,2.823,2.854,2.87,2.87,2.8884,2.879,2.8539,2.8166,2.7708,2.7108,2.6567,2.6201,2.5875,2.5875,2.5523,2.4985,2.483,2.4778,2.4671,2.4074,2.3851,2.3667,0.0,0.0,0.0,3.0526,3.0526,3.0526,3.0526,3.0526,3.0526,3.0526,3.0526,3.0526,3.0543,3.1163,3.1934,3.2663,3.3392,3.4137,3.4849,3.4916,3.5263,3.6042,3.7263,3.7129,3.5322,3.6848,0.0,0.0,0.0,0.0,0.0,0.0,0.0,0.0,0.0,0.0,0.0,0.0,0.0,0.0,0.0,0.0,3.4356,0.0,0.0,0.0,0.0,0.0,0.0,0.0,0.0,0.0,0.0,0.0,0.0,0.0,0.0,0.0,0.0,0.0,0.0,0.0,0.0,0.0,0.0,0.0,0.0,0.0,0.0,0.0,0.0,0.0,0.0,0.0,0.0,0.0,2.7231,2.7231,2.7231,2.7231,2.7231,2.7231,2.7231,2.7231,2.7242,2.7254,2.7254,2.7254,2.7277,2.7736,2.8,2.8,2.8471,2.8723,2.8723,2.8723,2.8723,2.8723,2.9228,2.947,2.9404,2.941,2.8909,2.8025,2.7468,2.6767,2.5916,2.5916,2.5916,2.5875,2.543,2.5254,2.5192,2.4747,2.4495,2.4313,0.0,0.0,3.0551,3.0526,3.0526,3.0526,3.0526,3.0526,3.0526,3.0526,3.0526,3.0725,3.1212,3.1967,3.268,3.3425,3.417,3.4667,3.4883,3.5396,3.6208,3.7395,3.738,3.7469,3.7783,0.0,0.0,0.0,0.0,0.0,0.0,0.0,0.0,0.0,0.0,0.0,0.0,0.0,0.0,0.0,0.0,0.0,3.4385,0.0,0.0,0.0,0.0,0.0,0.0,0.0,0.0,0.0,0.0,0.0,0.0,0.0,0.0,0.0,0.0,0.0,0.0,0.0,0.0,0.0,0.0,0.0,0.0,0.0,0.0,0.0,0.0,0.0,0.0,0.0,0.0,2.7231,2.7231,2.7231,2.7231,2.7231,2.7231,2.7231,2.7231,2.7231,2.738,2.7748,2.7782,2.7931,2.8276,2.8425,2.8505,2.8505,2.901,2.9274,2.9274,2.9274,2.9274,2.9274,2.9033,2.857,2.7878,2.791,2.7547,2.702,2.6836,2.6868,2.6879,2.6879,2.6879,2.6796,2.6009,2.5699,2.5689,2.5554,2.5513,2.5413,0.0,3.0609,3.0526,3.0526,3.0526,3.0526,3.0526,3.0526,3.0526,3.0526,3.0526,3.0808,3.1494,3.2266,3.2994,3.3723,3.4468,3.4899,3.4899,3.5876,3.6803,3.7612,3.781,3.8236,0.0,0.0,0.0,0.0,0.0,0.0,0.0,0.0,0.0,0.0,0.0,0.0,0.0,0.0,0.0,0.0,0.0,0.0,3.4414,3.4414,3.4414,3.4414,3.4414,3.4167,3.3862,3.3796,0.0,0.0,0.0,0.0,0.0,0.0,0.0,0.0,0.0,0.0,0.0,0.0,0.0,0.0,0.0,0.0,0.0,0.0,0.0,0.0,0.0,0.0,0.0,0.0,2.7231,2.7231,2.7231,2.7231,2.7231,2.7231,2.7415,2.7552,2.7552,2.7725,2.7966,2.8264,2.8287,2.8402,2.8689,2.8907,2.893,2.8712,2.9217,2.9389,2.9171,2.9389,2.9504,2.9504,2.9389,2.9067,2.8545,2.8276,2.7967,0.0,2.7315,2.7296,2.7541,2.7541,2.7541,0.0,0.0,0.0,0.0,0.0,2.5875,2.5785,0.0,3.0568,3.0526,3.0526,3.0526,3.0526,3.0526,3.0526,3.0526,3.0526,3.0526,3.0782,3.1653,3.2315,3.3011,3.3839,3.4518,3.4932,3.5015,3.6257,3.7052,3.7167,3.8286,3.9011,0.0,0.0,0.0,0.0,0.0,0.0,0.0,0.0,0.0,0.0,0.0,0.0,0.0,0.0,0.0,0.0,0.0,0.0,3.4414,3.4414,3.4414,3.4414,3.4414,3.4414,3.4346,3.4196,0.0,0.0,0.0,0.0,0.0,0.0,0.0,0.0,0.0,0.0,0.0,0.0,0.0,0.0,0.0,0.0,0.0,0.0,0.0,0.0,0.0,0.0,0.0,0.0,2.7231,2.7231,2.7231,2.7277,2.7311,2.7311,2.7713,2.8,2.8057,2.8448,2.8723,2.8792,2.8735,2.8723,2.8792,0.0,0.0,0.0,0.0,2.9274,2.8792,2.9263,2.9504,2.9504,2.9929,3.0045,2.9954,2.9555,2.9139,2.8614,2.8156,2.7956,2.7997,2.7997,2.7997,2.7914,2.7003,2.6641,2.6599,2.6185,2.6041,0.0,0.0,3.0526,3.0526,3.0526,3.0526,3.0526,3.0526,3.0526,3.0526,3.0526,3.0526,3.1023,3.2332,3.2597,3.3226,3.4568,3.4816,3.5148,3.5744,0.0,3.6704,3.7791,0.0,0.0,0.0,0.0,0.0,0.0,0.0,0.0,0.0,0.0,0.0,0.0,0.0,0.0,0.0,0.0,0.0,0.0,0.0,0.0,3.4414,3.4414,3.4414,3.4414,3.4414,3.4414,3.4414,3.4346,3.4346,3.4346,3.4128,0.0,0.0,0.0,0.0,0.0,0.0,0.0,0.0,0.0,0.0,0.0,0.0,0.0,0.0,0.0,0.0,0.0,0.0,0.0,0.0,2.7231,2.7231,2.7231,2.7231,2.7575,2.7839,2.7839,2.792,2.8138,2.8517,2.8643,2.8884,2.9309,2.8941,2.8884,2.932,2.9033,0.0,2.87,2.9217,2.9447,2.9343,2.9447,2.9504,2.9504,0.0,0.0,2.8462,2.8745,2.8567,2.808,2.7983,2.8157,2.8483,2.8483,2.8483,2.839,2.7479,2.7127,2.7117,2.7024,2.6993,2.6993,0.0,3.0526,3.0526,3.0526,3.0526,3.0526,3.0526,3.0526,3.0526,3.0526,3.0526,3.1073,3.2531,3.268,3.3276,3.4767,3.4851,3.5,0.0,3.5745,3.6339,3.7392,0.0,0.0,0.0,0.0,0.0,0.0,0.0,0.0,0.0,0.0,0.0,0.0,0.0,0.0,0.0,0.0,0.0,0.0,0.0,0.0,3.4839,3.4534,3.4414,3.4414,3.4414,3.4414,3.4414,3.4414,3.4414,3.4414,3.4264,3.4142,3.3951,0.0,0.0,0.0,0.0,0.0,0.0,0.0,0.0,0.0,0.0,0.0,0.0,0.0,0.0,2.7812,2.7557,0.0,2.7231,2.7231,2.7231,2.7323,2.7564,2.7828,2.7977,2.7977,2.8425,2.8838,2.9079,2.9102,2.9206,2.9481,2.8999,2.8815,2.9091,2.885,2.87,2.87,2.8964,2.9102,2.9102,2.9607,2.986,2.986,3.0376,3.0249,2.941,2.9452,2.9117,2.8659,2.8364,2.8535,2.8959,2.8959,2.8959,2.8887,2.8204,2.7935,2.7935,2.7935,2.7935,2.7903,0.0,3.0311,3.0344,3.0493,3.0526,3.0526,3.0526,3.0485,3.0485,3.0526,3.0485,3.0981,3.2332,3.2613,3.3276,3.4719,3.4739,3.4739,0.0,3.5448,3.6124,3.6865,3.7711,0.0,0.0,0.0,0.0,0.0,0.0,0.0,0.0,0.0,0.0,0.0,0.0,0.0,0.0,0.0,0.0,0.0,0.0,0.0,3.5335,3.4787,3.4534,3.4414,3.4414,3.4414,3.4414,3.4414,3.4414,3.4414,3.4346,3.4142,3.3965,3.3896,3.3143,0.0,0.0,0.0,0.0,0.0,0.0,0.0,0.0,0.0,2.851,2.8431,2.8122,2.7893,2.7812,2.7476,2.7231,2.7231,2.7311,2.7518,2.792,2.8149,2.8276,2.8276,2.8999,2.9504,2.9504,2.9504,2.9458,2.9355,2.8861,2.8563,2.8563,2.8563,2.8563,2.8563,2.8838,2.8999,2.8999,3.0009,3.0514,3.0514,3.1456,3.1615,3.0927,3.0635,3.0087,2.9489,2.9088,2.9094,2.9435,2.9435,2.9435,2.9404,2.9032,2.8887,2.8856,2.868,2.8618,2.8566,0.0,2.9533,2.9748,3.041,3.0526,3.0526,3.0526,3.0443,3.0443,3.0485,3.0443,3.0714,3.1539,3.2271,3.323,3.4607,3.4707,0.0,3.4546,3.5334,3.6124,3.6865,3.7607,3.8438,0.0,0.0,0.0,0.0,0.0,0.0,0.0,0.0,0.0,0.0,0.0,0.0,0.0,0.0,0.0,0.0,0.0,0.0,3.54,3.5335,3.4905,3.4414,3.4414,3.4414,3.4414,3.4414,3.4414,3.4346,3.4196,3.4128,3.3991,3.3744,0.0,3.3072,3.1489,2.9845,2.8578,2.851,2.851,2.851,0.0,0.0,2.8431,2.8042,2.7962,2.78,2.7394,2.7231,2.7231,2.7231,2.761,2.792,2.7977,2.8758,2.9332,2.9332,2.9424,2.9504,2.9504,2.9504,2.9297,2.8827,2.8344,2.8057,2.8057,2.8057,2.8057,2.8057,2.9355,3.0044,3.0044,3.1077,3.1582,3.157,3.2133,3.1909,3.0932,3.1269,3.0852,2.9943,2.9839,2.987,2.9922,2.9922,2.9922,2.9911,2.986,2.9839,2.9746,2.8918,2.8618,2.8607,0.0,0.0,2.9516,2.9831,3.0187,3.0443,3.0468,3.0359,3.0316,3.0468,3.0443,3.0698,3.144,3.2467,3.3554,3.4609,3.4546,0.0,3.4497,3.4792,3.5413,3.6574,3.7023,3.7781,3.9007,0.0,0.0,0.0,0.0,0.0,0.0,0.0,0.0,0.0,0.0,0.0,0.0,0.0,0.0,0.0,0.0,0.0,3.5882,3.5088,3.4654,3.4414,3.4414,3.4414,0.0,0.0,3.4346,3.4196,3.4128,3.4005,3.3799,3.3675,3.3536,0.0,3.1341,3.0075,0.0,0.0,2.851,2.851,2.851,2.851,2.8431,2.8111,2.7962,2.78,2.7452,2.7301,2.7323,0.0,2.7839,2.8184,2.8781,2.9228,2.9596,2.9883,2.9917,2.9802,2.9527,2.9217,2.8827,2.8322,2.7828,2.7541,2.7541,2.7828,2.8253,2.885,2.9745,3.0503,3.1111,3.1823,3.2179,3.2179,3.2695,3.234,3.1323,3.1531,3.1013,2.9994,2.9994,2.9994,2.9994,2.9994,2.9994,2.9994,2.9994,2.9994,2.9953,2.9559,2.9415,2.9384,0.0,0.0,0.0,2.9327,2.9741,3.0128,3.041,3.0316,3.0231,3.0401,3.0359,3.0655,3.144,3.243,3.3416,3.4233,3.4284,0.0,0.0,3.4349,3.4904,3.6056,3.6457,0.0,3.8494,3.8816,0.0,0.0,0.0,0.0,0.0,0.0,0.0,0.0,0.0,0.0,0.0,0.0,0.0,0.0,0.0,0.0,3.6322,3.5335,3.4721,3.4414,3.4414,3.4414,0.0,0.0,3.4264,3.4059,3.4074,3.3868,3.3605,3.3536,3.3086,3.2403,3.1193,0.0,0.0,2.8669,2.851,2.851,2.851,2.8431,2.8351,2.8179,2.795,2.7708,2.7441,2.7301,2.7392,2.7897,2.8092,2.8482,2.9378,2.9607,2.9825,3.017,3.0101,2.9825,2.932,2.893,2.8448,2.7828,2.7438,2.7288,2.7426,2.8046,2.8804,2.9676,3.0445,3.1203,3.1961,3.2454,3.2707,3.2707,3.3097,3.2667,3.1629,3.1322,3.0703,2.9994,2.9994,2.9994,2.9994,2.9994,2.9994,2.9994,2.9994,2.9994,2.9994,2.9994,2.9994,2.9942,0.0,0.0,0.0,0.0,2.9223,2.9428,3.026,3.029,3.0189,3.0189,3.0189,3.0527,3.1396,3.1958,3.2508,3.3192,0.0,0.0,3.4101,3.4349,3.4775,3.5375,3.6179,3.6967,3.7789,3.8461,0.0,0.0,0.0,0.0,0.0,0.0,0.0,0.0,0.0,0.0,0.0,0.0,0.0,0.0,0.0,0.0,3.6384,3.6384,3.5514,3.4414,3.4414,0.0,0.0,0.0,3.4264,3.4059,3.3951,3.3758,0.0,3.3396,3.2187,3.097,3.0895,0.0,2.851,2.851,2.851,2.851,2.851,2.8339,2.8179,2.7962,2.7708,2.7441,2.7219,2.7231,2.7392,2.7897,2.8379,2.8873,2.9424,2.9894,3.0204,3.0216,2.9802,2.9309,0.0,2.8712,2.8299,2.7323,2.7242,2.7438,2.7931,2.8907,2.9676,3.0181,3.1639,3.2431,3.2466,3.2994,3.3258,3.3258,3.3281,3.2667,3.1516,3.0505,2.9994,2.9994,2.9994,2.9994,2.9994,2.9994,2.9994,2.9994,2.9994,2.9994,2.9994,2.9994,2.9994,2.9994,0.0,0.0,0.0,0.0,0.0,2.919,2.9426,2.9783,3.0033,3.0189,3.0103,0.0,0.0,0.0,0.0,0.0,0.0,0.0,3.4218,3.425,3.4576,3.5359,3.5568,3.6303,3.76,3.7845,3.8259,0.0,0.0,0.0,0.0,0.0,0.0,0.0,0.0,0.0,0.0,0.0,0.0,0.0,0.0,0.0,3.6322,3.54,3.4787,3.4414,0.0,0.0,0.0,0.0,3.421,3.3951,3.3882,0.0,3.3396,3.3326,3.2547,3.1563,3.1044,3.0152,2.9184,2.8657,2.851,2.851,2.851,2.8431,2.8271,2.7962,2.78,2.7626,2.7231,2.7231,2.7506,2.8322,2.8597,2.8999,2.986,3.0112,3.0216,3.0216,2.9791,0.0,0.0,0.0,0.0,2.7277,2.7231,2.7587,2.8413,2.9125,3.0032,3.1203,3.2053,3.265,3.3017,3.3201,3.3281,3.3281,3.2218,3.1339,3.0622,2.9837,2.9539,2.9559,2.986,2.9994,2.9973,2.9663,2.9539,2.9508,2.9197,2.9073,2.9073,2.9073,2.927,2.958,0.0,0.0,0.0,0.0,0.0,0.0,0.0,0.0,0.0,0.0,0.0,0.0,0.0,0.0,0.0,0.0,0.0,0.0,0.0,0.0,3.4412,3.4933,3.5143,3.5711,3.6674,3.7302,3.7845,3.8357,0.0,0.0,0.0,0.0,0.0,0.0,0.0,0.0,0.0,0.0,0.0,0.0,0.0,0.0,3.5961,3.5088,3.4601,0.0,0.0,0.0,0.0,0.0,0.0,3.3827,3.3827,3.3536,3.3326,3.3326,3.2547,3.1563,3.1044,3.0075,2.9184,2.8657,2.851,2.851,2.851,2.8431,2.8351,2.803,2.7869,2.7685,2.7637,2.7357,2.7621,2.8792,2.8827,2.9056,3.0078,3.0216,3.0147,2.9975,2.9515,2.901,0.0,0.0,0.0,2.7254,2.7392,2.7931,2.893,2.9653,3.0652,3.1984,3.2512,3.2937,3.3281,3.3281,3.3089,3.2796,3.1285,3.0348,2.9838,2.9245,2.9145,2.9311,2.9446,2.9591,2.9715,2.9249,2.9063,2.9032,2.8731,2.8618,2.8618,2.8618,2.8804,2.9125,0.0,0.0,0.0,0.0,0.0,0.0,0.0,0.0,0.0,0.0,0.0,0.0,0.0,0.0,0.0,0.0,0.0,0.0,0.0,0.0,0.0,3.4101,3.4917,3.5291,3.5185,3.6796,3.7605,3.7443,0.0,0.0,0.0,0.0,0.0,0.0,0.0,0.0,0.0,0.0,0.0,0.0,0.0,0.0,3.54,3.5335,0.0,0.0,0.0,0.0,0.0,0.0,0.0,3.3605,3.3605,3.3466,3.3326,3.3326,3.2187,3.097,3.0895,2.9781,2.859,2.851,2.851,2.851,2.851,2.8339,2.8179,2.8179,2.7869,2.772,0.0,0.0,2.7782,2.9263,2.9068,2.9079,3.0078,3.0216,3.0044,0.0,0.0,0.0,0.0,0.0,0.0,2.7265,0.0,2.8436,2.9481,3.048,3.1479,3.2489,3.3017,3.3281,3.3281,3.3258,3.2685,3.1692,3.0602,2.9872,2.9282,2.8776,2.8825,2.9208,2.8794,2.8866,2.9239,2.8773,2.8576,2.8576,2.8556,2.8545,2.8545,2.8566,2.8597,2.868,0.0,0.0,0.0,0.0,0.0,0.0,0.0,0.0,0.0,0.0,0.0,0.0,0.0,0.0,0.0,0.0,0.0,0.0,0.0,0.0,0.0,0.0,0.0,0.0,0.0,0.0,0.0,0.0,0.0,0.0,0.0,0.0,0.0,0.0,0.0,0.0,0.0,0.0,0.0,0.0,0.0,0.0,3.5335,0.0,0.0,0.0,0.0,0.0,0.0,0.0,0.0,3.3536,3.3396,3.3326,3.3326,3.3326,3.2547,3.1636,3.1044,3.0152,2.925,2.8657,2.851,2.851,2.851,2.8431,2.8351,2.8042,2.8175,2.8303,0.0,0.0,0.0,2.9366,2.9389,0.0,3.0124,3.0216,0.0,2.9561,0.0,2.8517,2.8035,2.7518,0.0,0.0,2.7908,2.8586,2.9963,3.0663,3.1651,3.304,3.3212,3.3281,3.3281,3.2594,3.1827,3.1086,2.9775,2.8902,2.8296,2.81,2.8162,2.8286,2.8514,2.868,2.8752,2.8286,2.81,2.8069,2.7738,2.7603,2.7645,2.7976,2.8317,2.858,0.0,0.0,0.0,0.0,0.0,0.0,0.0,0.0,0.0,0.0,0.0,0.0,0.0,0.0,0.0,0.0,0.0,0.0,0.0,0.0,0.0,0.0,0.0,0.0,0.0,0.0,0.0,0.0,0.0,0.0,0.0,0.0,0.0,0.0,0.0,0.0,0.0,0.0,0.0,0.0,0.0,0.0,0.0,0.0,0.0,0.0,0.0,0.0,0.0,0.0,0.0,3.3466,3.3326,3.3326,3.3241,3.286,3.216,3.1415,3.0594,2.9781,2.9028,2.8578,2.851,2.851,2.851,2.8431,2.8259,2.8111,2.8281,0.0,2.8422,2.8602,0.0,0.0,0.0,0.0,3.0147,3.0032,2.9711,0.0,2.8689,0.0,2.7702,2.7598,2.7679,0.0,2.839,2.9206,3.0503,3.126,3.2156,3.3247,3.3281,3.3078,3.2639,3.1833,3.0974,2.9981,2.8946,2.8115,2.7634,2.7634,2.7738,2.7924,0.0,2.8131,2.8276,2.7821,2.7748,2.7903,2.7645,2.7676,2.7883,2.8131,2.839,2.8549,0.0,0.0,0.0,0.0,0.0,0.0,0.0,0.0,0.0,0.0,2.846,0.0,0.0,0.0,0.0,0.0,0.0,0.0,0.0,0.0,0.0,0.0,0.0,0.0,0.0,0.0,0.0,0.0,0.0,0.0,0.0,0.0,0.0,0.0,0.0,0.0,0.0,0.0,0.0,0.0,0.0,0.0,0.0,0.0,0.0,0.0,0.0,0.0,0.0,0.0,3.3326,3.3326,3.3326,3.3241,3.3016,3.2304,3.1476,3.0594,2.9858,2.9106,2.851,2.851,2.851,2.851,2.851,2.8339,2.8179,2.8179,0.0,2.8472,2.8889,2.8902,2.9183,3.0078,0.0,2.9745,3.0158,2.986,2.9378,2.8769,2.8333,2.7885,2.738,2.7725,2.8057,2.8264,2.916,3.0089,3.0962,3.1949,3.273,3.3269,3.3281,3.2853,3.1903,3.1244,3.0174,2.8914,2.8264,2.7715,2.7262,2.7262,2.7469,2.781,0.0,0.0,2.7893,2.751,2.7614,2.8017,2.8017,2.8266,2.8618,2.858,2.85,2.8399,0.0,0.0,0.0,0.0,0.0,0.0,0.0,0.0,0.0,0.0,2.7243,2.8489,0.0,0.0,0.0,0.0,0.0,0.0,0.0,0.0,0.0,0.0,0.0,0.0,0.0,0.0,0.0,0.0,0.0,0.0,0.0,0.0,0.0,0.0,0.0,0.0,0.0,0.0,0.0,0.0,0.0,0.0,0.0,0.0,0.0,0.0,0.0,0.0,0.0,0.0,3.3326,3.3326,3.3326,3.2846,3.2304,3.216,3.1044,2.9858,2.9704,2.9106,2.851,2.851,2.851,2.851,2.851,2.8339,0.0,0.0,2.8455,2.8866,2.8775,2.9389,3.0009,3.0181,3.0147,3.0124,3.0204,3.0147,2.9745,0.0,2.8632,2.8379,2.7897,0.0,0.0,0.0,0.0,3.0824,3.1008,3.1949,3.273,3.3269,3.3281,3.3024,3.2286,3.102,3.0057,2.9285,2.804,2.7347,2.7262,2.7262,2.7303,2.7365,0.0,0.0,2.7914,2.7841,2.8079,2.8493,2.8493,2.8545,2.8559,2.8206,2.8121,2.7964,0.0,0.0,0.0,0.0,0.0,0.0,0.0,2.4495,2.4747,2.5098,2.624,2.7363,2.8278,2.8669,2.8936,0.0,0.0,0.0,0.0,0.0,0.0,0.0,0.0,0.0,0.0,0.0,0.0,0.0,0.0,0.0,0.0,0.0,0.0,0.0,0.0,0.0,0.0,0.0,0.0,0.0,0.0,0.0,0.0,0.0,0.0,0.0,0.0,0.0,0.0,0.0,3.3326,3.3326,3.3326,3.3016,3.2547,3.1709,3.097,3.0152,2.9328,2.8803,2.851,2.851,2.851,2.851,2.8351,0.0,0.0,0.0,2.8347,2.8786,2.87,2.9527,3.0216,3.0216,3.0216,3.0216,3.0216,2.9998,2.9561,2.8792,2.8471,2.823,0.0,2.8207,0.0,0.0,0.0,3.1513,3.1766,3.2489,3.3017,3.3281,3.3281,3.2733,3.1639,3.0987,3.0044,2.9006,2.8271,2.7841,2.7603,2.7603,2.7479,2.7272,2.751,0.0,2.7945,2.8183,2.8556,2.897,2.897,2.9125,2.925,2.8615,2.8695,2.8725,0.0,0.0,0.0,0.0,0.0,0.0,0.0,2.3982,2.4164,2.4739,2.5348,2.6199,2.7225,2.8062,2.8653,0.0,0.0,0.0,0.0,0.0,0.0,0.0,0.0,0.0,0.0,0.0,0.0,0.0,0.0,0.0,0.0,0.0,0.0,0.0,0.0,0.0,0.0,0.0,0.0,0.0,0.0,0.0,0.0,0.0,0.0,0.0,0.0,0.0,0.0,0.0,3.3171,3.3016,3.3016,3.2874,3.2489,3.1044,3.0519,3.0152,2.8803,2.851,2.851,2.851,2.851,2.8431,2.8259,2.803,0.0,2.7522,2.8168,2.87,2.87,2.9527,3.0216,0.0,3.0216,3.0216,3.0216,2.9894,2.9412,0.0,2.8356,0.0,2.8138,2.8471,0.0,0.0,0.0,0.0,3.2638,3.3063,3.3281,3.3281,3.317,3.2464,3.105,3.0841,3.0103,2.8763,2.8659,2.8369,2.7924,2.7924,2.7728,2.7427,2.7769,0.0,0.0,2.8407,2.8717,2.9137,2.892,2.9133,2.9343,2.8475,2.8465,2.8678,0.0,0.0,0.0,0.0,0.0,0.0,0.0,2.3982,2.3997,2.4058,2.4709,2.5363,2.6077,2.7278,2.8054,0.0,0.0,0.0,0.0,0.0,0.0,0.0,0.0,0.0,0.0,0.0,0.0,0.0,0.0,0.0,0.0,0.0,0.0,0.0,0.0,0.0,0.0,0.0,0.0,0.0,0.0,0.0,0.0,0.0,0.0,0.0,0.0,0.0,0.0,0.0,0.0,3.216,3.2015,3.1563,3.097,3.0075,2.925,0.0,2.851,2.851,2.851,2.851,2.851,2.8431,2.8259,0.0,2.78,2.7522,2.8168,2.87,2.87,2.9527,0.0,0.0,0.0,3.0216,3.0216,3.0181,2.9791,2.8815,0.0,0.0,2.8632,2.8666,0.0,0.0,0.0,0.0,3.3212,3.3258,3.3281,3.3281,3.2745,3.2196,3.1564,3.06,2.987,2.9239,2.8814,2.8369,2.7924,2.7924,2.7903,2.7862,2.7903,0.0,0.0,2.8377,2.8336,2.8628,2.7863,2.7571,2.7492,2.6626,2.6073,2.5516,0.0,0.0,0.0,0.0,0.0,0.0,2.3726,2.3625,2.3581,2.3581,2.4164,2.4686,2.4955,2.6165,2.722,2.7925,0.0,0.0,0.0,0.0,0.0,0.0,0.0,0.0,0.0,0.0,0.0,0.0,0.0,0.0,0.0,0.0,0.0,0.0,0.0,0.0,0.0,0.0,0.0,0.0,0.0,0.0,0.0,0.0,0.0,0.0,0.0,0.0,0.0,0.0,0.0,0.0,3.0882,3.0291,0.0,0.0,2.9303,2.8937,2.8407,2.8191,2.8122,2.8122,2.8122,2.8122,2.7846,0.0,2.7615,2.7371,2.8096,2.87,2.87,2.9527,0.0,0.0,0.0,0.0,3.0216,3.0216,2.9963,2.9263,2.8896,0.0,0.0,0.0,0.0,0.0,0.0,0.0,3.3281,3.2958,3.2745,3.2745,3.2229,3.1607,3.1105,3.0707,3.0211,2.9715,2.9528,2.9208,2.8752,2.8752,2.8597,2.8349,2.8116,0.0,0.0,2.8101,2.8096,2.8581,2.7716,2.7384,2.7276,2.5963,2.5735,2.5726,0.0,0.0,0.0,0.0,0.0,2.348,2.3451,2.3363,2.3319,2.3319,2.3688,2.4071,2.4263,2.5265,2.6327,2.7409,2.77,0.0,0.0,0.0,0.0,0.0,0.0,0.0,0.0,0.0,2.9797,3.0282,3.1114,0.0,0.0,0.0,0.0,0.0,0.0,0.0,0.0,0.0,0.0,0.0,0.0,0.0,0.0,0.0,0.0,0.0,0.0,0.0,0.0,0.0,0.0,0.0,0.0,0.0,0.0,0.0,2.8924,2.8858,2.8259,2.8042,2.7893,2.7893,2.7893,2.78,0.0,0.0,2.7441,2.7219,2.7897,2.8528,2.8666,2.9412,3.0055,0.0,0.0,3.0216,3.0216,3.0216,3.0044,2.9561,0.0,2.885,0.0,0.0,0.0,0.0,0.0,0.0,0.0,3.2745,3.2409,3.2409,3.1721,3.1208,3.0785,3.0692,3.0391,2.9994,2.9994,2.9746,2.9301,2.9301,2.9125,2.8835,0.0,0.0,0.0,2.8019,2.7716,2.8145,2.707,2.6527,2.6191,2.5203,2.4974,2.4956,0.0,0.0,0.0,0.0,0.0,0.0,2.3319,2.3319,2.3319,2.3319,2.3334,2.354,2.4218,2.4838,2.5486,2.6164,2.6965,0.0,0.0,0.0,0.0,0.0,0.0,0.0,0.0,0.0,2.8718,2.8148,2.9152,2.9224,2.8456,2.8905,0.0,0.0,0.0,0.0,0.0,0.0,0.0,0.0,0.0,0.0,0.0,0.0,0.0,0.0,0.0,0.0,0.0,0.0,0.0,0.0,0.0,2.8371,0.0,0.0,2.7893,2.7893,2.7893,2.7893,2.7893,2.7893,2.7893,2.78,0.0,2.7522,2.7441,2.7219,2.7633,2.8138,2.8609,2.9137,2.9665,3.0135,3.0216,0.0,3.0216,3.0216,3.0044,0.0,0.0,2.87,2.8712,3.0089,0.0,0.0,0.0,0.0,0.0,3.2745,3.2409,3.2409,3.1392,3.0795,3.0785,3.0287,2.9994,2.9994,2.9994,2.9746,2.9301,2.9301,2.9301,0.0,0.0,0.0,0.0,2.8145,2.7394,2.7276,2.5459,2.4479,2.3913,2.3921,2.3127,2.2108,0.0,0.0,0.0,0.0,0.0,0.0,0.0,2.3068,2.3023,2.3023,2.3023,2.3096,2.3314,2.3897,2.4586,2.5179,2.6497,0.0,0.0,0.0,0.0,0.0,0.0,0.0,0.0,0.0,2.6982,2.6808,2.7636,2.7876,2.7613,2.7907,2.8113,2.8144,0.0,0.0,0.0,0.0,0.0,0.0,0.0,0.0,0.0,0.0,0.0,0.0,0.0,0.0,0.0,0.0,0.0,0.0,0.0,0.0,0.0,2.7394,2.7545,2.7615,2.7615,2.7545,2.7394,2.7394,2.7394,2.7394,2.7301,2.7301,2.7301,2.7231,2.7633,2.8126,2.8609,2.9137,2.9653,3.0135,3.0216,0.0,0.0,0.0,0.0,3.0009,2.955,2.924,0.0,0.0,0.0,0.0,0.0,0.0,0.0,3.2342,3.1823,3.1823,3.1197,3.0588,3.0297,3.0099,2.9994,2.9994,2.9994,2.9597,2.891,2.891,0.0,0.0,0.0,0.0,0.0,2.6318,2.599,2.6418,2.5247,2.4479,2.3801,2.3472,2.2788,2.2002,0.0,0.0,0.0,0.0,0.0,0.0,0.0,2.2947,2.2888,2.2888,2.2888,2.2902,2.2872,2.3421,2.3956,2.4283,2.5481,0.0,0.0,0.0,0.0,0.0,0.0,0.0,0.0,2.5972,2.5809,2.5536,2.6092,2.6343,2.6282,2.6462,2.6731,2.7023,2.7039,0.0,0.0,0.0,0.0,0.0,0.0,0.0,2.8237,0.0,0.0,0.0,0.0,0.0,0.0,0.0,0.0,0.0,0.0,0.0,0.0,0.0,2.7126,2.7371,2.7371,2.7301,2.7231,2.7231,2.7231,2.7174,2.699,2.6944,2.6887,2.6703,2.7059,2.7564,2.8057,2.8723,2.9355,2.986,3.0089,3.0216,0.0,0.0,0.0,2.9963,0.0,0.0,0.0,0.0,0.0,0.0,0.0,0.0,0.0,3.2139,3.1516,3.1311,3.0795,3.0297,2.9994,2.9669,2.9554,2.9564,2.9227,2.8688,2.8252,2.8252,0.0,0.0,0.0,0.0,0.0,2.5889,2.556,2.5972,2.4906,2.4144,2.3464,2.2901,2.2222,2.166,0.0,0.0,0.0,0.0,0.0,0.0,0.0,2.2888,2.2888,2.2888,2.2888,2.2857,2.2795,2.3252,2.3536,2.3435,2.3961,0.0,0.0,0.0,0.0,0.0,0.0,0.0,2.5287,2.5231,2.4951,2.4408,2.4654,2.4704,2.4628,2.4749,2.5219,2.5942,2.5857,2.64,0.0,0.0,0.0,0.0,2.8013,2.7815,0.0,0.0,0.0,0.0,0.0,0.0,0.0,0.0,0.0,0.0,0.0,0.0,0.0,0.0,0.0,0.0,0.0,2.7149,2.7231,2.7149,2.7149,2.7105,2.6622,2.6496,0.0,0.0,2.6106,2.6577,2.7128,2.8012,2.8838,2.9401,2.9894,3.0216,0.0,3.0216,0.0,0.0,2.9079,0.0,0.0,0.0,0.0,0.0,0.0,0.0,0.0,3.1801,3.1311,3.0785,3.0183,2.9889,2.9889,2.9122,2.8688,2.8581,2.7824,2.7384,2.7276,2.7276,0.0,0.0,0.0,0.0,0.0,2.6309,2.5981,2.5762,2.4462,2.3472,2.2901,2.2343,2.1774,2.1211,0.0,0.0,0.0,0.0,0.0,0.0,0.0,0.0,0.0,0.0,2.2841,2.2781,2.2675,2.2419,2.2421,0.0,0.0,0.0,0.0,0.0,0.0,0.0,0.0,0.0,2.4208,2.3813,2.3662,2.3675,2.3721,2.3798,2.388,2.388,2.4017,2.4219,2.4658,2.5469,0.0,0.0,0.0,0.0,2.7281,2.7214,0.0,0.0,0.0,0.0,2.6181,2.5574,0.0,0.0,0.0,0.0,0.0,0.0,0.0,0.0,2.5584,2.5754,2.613,0.0,2.7138,2.6787,2.6962,2.7196,0.0,2.6749,0.0,0.0,0.0,2.6163,2.707,2.7736,2.8448,2.9355,2.9894,3.0216,3.0216,0.0,0.0,3.0055,2.9607,0.0,0.0,0.0,0.0,0.0,0.0,0.0,0.0,3.132,3.0888,3.0785,2.9638,2.9016,2.9016,2.8794,2.8368,2.7716,2.7501,2.706,2.6409,2.6409,0.0,0.0,0.0,0.0,2.5357,2.5136,2.4795,2.4351,2.4024,2.3239,2.2335,2.2116,2.1774,2.1211,0.0,0.0,0.0,0.0,0.0,0.0,0.0,0.0,0.0,0.0,2.2689,2.2675,2.2509,2.1969,2.176,0.0,0.0,0.0,0.0,0.0,0.0,0.0,0.0,2.3305,2.3305,2.3078,2.2969,2.3103,2.3103,2.3163,2.3271,2.321,2.3271,2.3403,2.4022,2.467,2.5346,0.0,0.0,0.0,2.6921,0.0,0.0,0.0,0.0,0.0,2.5545,2.4755,0.0,2.3649,2.3372,2.3243,0.0,0.0,0.0,0.0,2.4745,2.4934,2.5178,2.5887,2.6561,2.6302,2.6385,2.6505,2.6259,0.0,0.0,0.0,0.0,2.5058,2.5757,2.6735,2.7718,2.8677,2.9412,0.0,0.0,0.0,3.0216,3.0216,2.9791,0.0,0.0,0.0,0.0,0.0,0.0,0.0,0.0,3.0322,3.0066,3.0066,2.9546,2.9122,2.8688,2.7931,2.7276,2.6844,2.6427,2.599,2.545,2.545,2.5247,0.0,0.0,0.0,2.4368,2.4368,2.4033,2.3464,2.3127,2.2675,2.2108,2.1774,2.1439,2.1211,0.0,0.0,0.0,0.0,0.0,0.0,0.0,0.0,0.0,0.0,0.0,0.0,0.0,0.0,0.0,0.0,0.0,0.0,0.0,0.0,0.0,0.0,2.2567,2.2567,2.2567,2.2567,2.2555,2.2555,2.2555,2.2678,2.2848,2.2739,2.2787,2.3042,2.3566,2.3941,2.4141,2.5189,0.0,0.0,2.6591,0.0,0.0,0.0,0.0,0.0,0.0,0.0,0.0,2.2617,2.2327,2.2326,2.234,0.0,0.0,0.0,0.0,0.0,2.4264,2.4909,2.5641,2.5801,2.5812,2.5786,2.536,0.0,0.0,0.0,0.0,0.0,0.0,2.543,0.0,0.0,0.0,0.0,3.0147,3.0216,3.0216,3.0216,2.986,0.0,0.0,0.0,0.0,0.0,0.0,0.0,0.0,2.9151,2.8993,2.8993,2.9217,2.8916,2.827,2.6924,2.6191,2.5872,2.5136,2.4821,2.4821,2.4821,2.4821,0.0,0.0,0.0,2.3913,2.3801,2.3352,2.2788,2.2335,2.2002,2.1888,2.1439,2.1211,2.1211,0.0,0.0,0.0,0.0,0.0,0.0,0.0,0.0,0.0,0.0,0.0,0.0,0.0,0.0,0.0,0.0,0.0,0.0,0.0,0.0,0.0,2.18,2.1824,2.1824,2.1824,2.1824,2.1874,2.1987,2.1987,2.2173,2.2482,2.2482,2.2555,2.2739,2.2886,2.317,2.3652,2.4282,2.4814,2.5351,2.5827,0.0,0.0,0.0,0.0,0.0,0.0,0.0,0.0,2.1949,2.1883,2.1894,2.189,0.0,0.0,0.0,0.0,0.0,2.3325,2.3783,2.4399,2.5104,2.5633,2.5884,2.5808,0.0,0.0,0.0,0.0,0.0,0.0,2.4626,2.5278,0.0,0.0,2.9184,0.0,0.0,3.0216,0.0,0.0,0.0,0.0,0.0,0.0,0.0,0.0,0.0,0.0,2.8054,2.7702,2.7702,2.676,2.6129,2.6023,2.6784,2.6418,2.5034,2.4812,2.4821,2.4821,2.4821,2.4821,0.0,0.0,2.4033,2.3809,2.3352,2.2788,2.2222,2.2108,2.1774,2.1325,2.1211,2.1211,2.1211,0.0,0.0,0.0,0.0,0.0,0.0,0.0,0.0,0.0,0.0,0.0,0.0,0.0,0.0,0.0,0.0,0.0,0.0,0.0,0.0,2.0877,2.1411,2.1434,2.1498,2.1698,2.1698,2.1761,2.1812,2.1812,2.1874,2.1999,2.2111,2.2173,2.2247,2.2247,2.2504,2.2959,2.3369,2.4047,2.4718,0.0,0.0,0.0,0.0,0.0,0.0,0.0,0.0,0.0,0.0,2.1512,2.1512,2.1512,0.0,0.0,0.0,0.0,0.0,2.2528,2.2897,2.3379,2.4242,2.4777,2.5137,2.5137,0.0,0.0,0.0,0.0,0.0,0.0,0.0,2.4284,2.5915,0.0,2.8244,2.9015,0.0,0.0,0.0,0.0,0.0,0.0,0.0,0.0,0.0,0.0,0.0,0.0,0.0,2.7442,2.7052,2.6743,2.6124,2.5294,2.6004,2.5892,2.4821,2.4821,2.4821,2.4821,2.4821,2.4599,2.4256,0.0,2.3576,2.2901,2.2675,2.2108,2.166,2.166,2.1432,2.1211,2.1211,2.1211,2.1211,0.0,0.0,0.0,0.0,0.0,0.0,0.0,0.0,0.0,0.0,0.0,0.0,0.0,0.0,0.0,0.0,0.0,0.0,0.0,0.0,2.0515,2.1198,2.1221,2.1296,2.1561,2.1561,2.1561,2.1561,2.1561,2.1624,2.1624,2.1812,2.1874,2.1874,2.1874,2.1999,2.2283,2.2819,2.3453,2.4152,0.0,0.0,0.0,0.0,0.0,0.0,0.0,0.0,0.0,0.0,0.0,0.0,0.0,0.0,0.0,2.1205,2.1282,2.1507,2.1863,2.2183,2.2587,2.3299,2.3887,2.4416,2.4519,0.0,0.0,0.0,0.0,0.0,0.0,2.3105,0.0,2.5315,2.6421,0.0,0.0,0.0,0.0,0.0,0.0,0.0,0.0,0.0,0.0,0.0,0.0,0.0,0.0,0.0,2.7175,2.6399,2.6602,2.6002,2.4566,2.4854,2.494,2.4684,2.4778,2.471,2.459,2.459,2.4256,2.3697,2.3576,2.2901,2.2108,2.2002,2.166,2.1211,2.1211,2.1211,2.1211,2.1211,2.1211,2.1211,0.0,0.0,0.0,0.0,0.0,0.0,0.0,0.0,0.0,0.0,0.0,0.0,0.0,0.0,0.0,0.0,0.0,0.0,0.0,1.9723,2.0171,2.1187,2.1221,2.1221,2.1233,2.1233,2.1233,2.1233,2.1233,2.1285,2.1463,2.1624,2.1698,2.1698,2.1698,2.1761,2.182,2.281,2.3313,2.3645,2.4646,0.0,0.0,0.0,0.0,0.0,0.0,0.0,0.0,0.0,0.0,0.0,0.0,0.0,2.1205,2.1205,2.1205,2.1215,2.1245,2.1713,2.2206,2.2267,2.3104,0.0,2.4447,2.4519,0.0,0.0,0.0,0.0,0.0,2.3115,2.3434,2.4484,2.5456,0.0,0.0,0.0,0.0,0.0,0.0,0.0,0.0,0.0,0.0,0.0,0.0,0.0,0.0,0.0,0.0,2.5039,2.4738,2.4155,2.3255,2.3651,2.3922,2.4282,2.4641,2.4479,2.3921,2.3921,2.3697,2.3014,2.2449,2.2222,2.2116,2.1554,2.1211,2.1211,2.1211,2.1211,2.1211,2.1211,2.1211,2.1211,0.0,0.0,0.0,0.0,0.0,0.0,0.0,0.0,0.0,0.0,0.0,0.0,0.0,0.0,0.0,0.0,0.0,0.0,0.0,1.9298,1.9677,2.0451,2.0506,2.0506,2.0506,2.0967,2.1094,2.0839,2.0635,2.056,2.0613,2.0688,2.07,2.07,2.07,2.0944,2.1391,2.203,2.2694,2.3537,2.412,2.4033,0.0,0.0,0.0,0.0,0.0,0.0,0.0,0.0,2.042,2.042,2.042,2.0498,2.0654,2.0654,2.0819,2.0984,2.0984,2.1403,2.1829,2.2124,0.0,0.0,0.0,0.0,0.0,0.0,0.0,0.0,0.0,0.0,2.26,2.3531,2.4462,0.0,0.0,0.0,0.0,0.0,0.0,0.0,0.0,0.0,0.0,0.0,0.0,0.0,0.0,0.0,0.0,2.4894,2.4749,2.4044,2.2758,2.3143,2.3199,2.3017,2.362,2.3786,2.3574,2.3359,2.3014,2.2449,2.223,2.1888,2.1546,2.1325,2.1211,2.1211,2.1211,2.1211,2.1211,2.1211,2.1211,2.1211,0.0,0.0,0.0,0.0,0.0,0.0,0.0,0.0,0.0,0.0,0.0,0.0,0.0,0.0,0.0,0.0,0.0,0.0,1.903,1.9097,1.941,2.0063,2.0096,2.0096,2.0096,2.056,2.07,2.0431,2.0237,2.0096,2.0096,2.0096,2.0096,2.0107,2.026,2.0588,2.1051,2.1778,2.2514,2.3301,2.3651,2.3557,0.0,0.0,0.0,0.0,0.0,0.0,0.0,0.0,1.9863,1.9863,1.9863,2.0029,2.0186,2.0264,2.0508,2.0751,2.0819,2.1128,2.1507,0.0,0.0,0.0,0.0,0.0,0.0,0.0,0.0,0.0,0.0,0.0,0.0,0.0,0.0,0.0,0.0,0.0,0.0,0.0,0.0,0.0,0.0,0.0,0.0,0.0,0.0,0.0,0.0,0.0,0.0,0.0,2.4501,2.3818,2.2342,2.2494,2.2415,2.181,2.2298,2.2586,2.2702,2.2624,2.2235,2.1774,2.1774,2.1546,2.1211,2.1211,2.1211,2.1211,2.1211,2.1211,2.1211,2.1211,2.1211,2.1211,0.0,0.0,0.0,0.0,0.0,0.0,0.0,0.0,1.8732,1.8614,1.8464,0.0,0.0,0.0,0.0,0.0,0.0,0.0,1.903,1.9097,1.941,2.0063,2.0107,2.0107,2.0107,2.0107,2.0107,2.0096,2.0107,2.0107,2.0107,2.0107,2.0107,2.0118,2.0609,2.076,2.0904,2.2229,2.2925,2.3089,2.3212,2.2957,2.2285,0.0,0.0,0.0,0.0,0.0,0.0,0.0,1.9863,1.9863,1.9863,1.9863,1.9942,2.0186,2.0264,2.0342,2.0566,2.0886,2.1205,0.0,0.0,0.0,2.3184,0.0,0.0,0.0,0.0,0.0,0.0,0.0,0.0,0.0,0.0,0.0,0.0,0.0,0.0,0.0,0.0,0.0,0.0,0.0,0.0,0.0,0.0,0.0,0.0,0.0,0.0,0.0,2.3728,2.3029,2.1725,2.1725,2.1428,2.0925,2.0744,2.0941,2.1597,2.1597,2.1451,2.1203,2.1203,2.1203,2.1211,2.1211,2.1211,2.1211,2.1211,2.1211,2.1211,2.1211,2.1211,2.1211,0.0,0.0,0.0,0.0,0.0,0.0,0.0,0.0,1.841,1.8566,1.856,0.0,0.0,0.0,0.0,0.0,0.0,0.0,1.8693,1.8758,1.8927,1.9354,1.9396,1.9396,1.9396,1.9396,1.9528,1.9726,1.9528,1.9396,1.9396,1.9396,1.9396,1.9417,1.9881,2.027,2.0607,2.1578,2.2247,2.2635,2.2925,2.299,2.2681,0.0,0.0,0.0,0.0,0.0,0.0,0.0,0.0,0.0,1.924,1.939,1.9539,1.9715,2.0029,2.0342,2.0342,2.0654,0.0,2.0984,0.0,0.0,0.0,2.3535,0.0,0.0,0.0,0.0,0.0,0.0,0.0,0.0,0.0,0.0,0.0,0.0,0.0,0.0,0.0,0.0,0.0,0.0,0.0,0.0,0.0,0.0,0.0,0.0,0.0,0.0,2.3728,2.3029,2.1725,2.1725,2.1216,2.0292,2.0289,2.046,2.0903,2.0704,2.067,2.0867,2.0867,2.0998,2.1211,2.1211,2.1211,2.1211,2.1211,2.1211,2.1211,2.1211,2.1211,2.1211,0.0,0.0,0.0,0.0,0.0,0.0,0.0,0.0,1.8274,1.8272,1.8484,1.8452,0.0,0.0,0.0,0.0,1.8267,1.8442,1.8594,1.8823,1.8955,1.91,1.9075,1.9075,1.9075,1.9008,1.9075,1.9274,1.9075,1.9008,1.9008,1.8875,1.8977,1.9172,1.9692,2.0215,2.0659,2.1555,2.2137,2.2402,2.2478,2.2392,2.1993,0.0,0.0,0.0,0.0,0.0,0.0,0.0,0.0,0.0,1.8851,1.9002,1.9231,1.9487,1.9872,2.0186,2.0342,2.0664,0.0,2.0906,2.1268,2.1855,2.2583,0.0,0.0,0.0,0.0,0.0,0.0,0.0,0.0,0.0,0.0,0.0,0.0,0.0,0.0,0.0,0.0,0.0,0.0,0.0,0.0,0.0,0.0,0.0,0.0,0.0,0.0,0.0,2.2728,2.2123,2.1105,2.1105,2.0593,1.9783,1.9783,1.9889,2.0091,2.0001,2.0223,2.0537,2.0669,2.0837,2.1028,2.1159,2.1211,2.1211,2.1211,2.1211,2.1211,2.1211,2.1211,2.1211,0.0,0.0,1.7201,1.7144,0.0,0.0,0.0,0.0,1.8169,1.7836,1.8295,1.8452,0.0,0.0,0.0,0.0,1.8553,1.8768,1.8605,1.9084,1.9244,1.9121,1.9075,1.9075,1.9075,1.8942,1.8808,1.8808,1.8808,1.8741,1.8741,1.8617,1.8723,1.9243,1.99,2.042,2.0859,2.1837,2.2327,2.2252,2.1883,2.1405,2.076,1.9835,0.0,0.0,0.0,0.0,0.0,0.0,0.0,0.0,1.8692,1.8772,1.9002,1.9408,1.9715,1.9942,2.0411,2.0731,2.0906,2.0906,2.139,0.0,2.2895,2.3618,2.4043,2.3928,0.0,0.0,0.0,0.0,0.0,0.0,0.0,0.0,0.0,0.0,0.0,0.0,0.0,0.0,0.0,0.0,0.0,0.0,0.0,0.0,0.0,0.0,0.0,2.1623,2.1121,2.0609,2.0086,2.0078,1.9879,0.0,1.9279,1.9279,1.9286,1.9586,1.9894,2.0216,2.0537,2.0676,2.0706,2.1035,2.1167,2.1167,2.1196,2.1211,2.1211,2.1211,2.1203,2.1089,0.0,0.0,1.6791,1.6693,0.0,0.0,0.0,0.0,0.0,0.0,0.0,0.0,0.0,0.0,0.0,0.0,0.0,1.8547,1.8616,1.8824,1.8966,1.9121,1.9075,1.9075,1.9075,1.9075,1.8942,1.8808,1.8617,1.8549,1.8549,1.8549,1.8723,1.9243,1.9758,2.0202,2.0561,2.1242,2.1436,2.1425,2.1359,2.1282,2.0964,1.9599,1.9204,0.0,0.0,0.0,0.0,0.0,0.0,0.0,1.8362,1.8523,1.8603,1.9002,1.9399,1.9715,1.9942,2.0333,0.0,2.0654,2.0987,2.153,2.204,2.2692,2.3323,2.3735,2.316,0.0,0.0,0.0,0.0,0.0,0.0,0.0,0.0,0.0,0.0,0.0,0.0,0.0,0.0,0.0,0.0,0.0,0.0,0.0,0.0,0.0,0.0,2.1121,2.0917,2.0609,2.0086,2.0078,1.9879,0.0,1.9279,1.9279,1.9279,1.9345,1.9557,1.9879,2.0201,2.034,2.0362,2.0691,2.083,2.0852,2.1108,2.1211,2.1211,2.0845,2.0838,2.0723,0.0,0.0,0.0,0.0,0.0,0.0,0.0,0.0,0.0,0.0,0.0,0.0,0.0,0.0,0.0,0.0,1.8622,1.8833,1.8953,1.9094,1.9144,1.9121,1.9075,1.9075,1.9075,1.8942,1.8741,1.8684,1.8414,1.8279,1.8414,1.8279,1.8626,1.9251,1.9623,2.0092,2.0721,2.1028,2.1205,2.1205,2.1205,2.0809,2.0079,1.9274,1.8638,1.8086,1.7383,0.0,0.0,0.0,0.0,0.0,0.0,0.0,1.8193,1.8683,1.9161,1.9478,1.9715,2.0108,0.0,2.0566,0.0,2.1046,2.1431,2.1994,2.2597,2.3097,2.2828,0.0,0.0,0.0,0.0,0.0,0.0,0.0,0.0,0.0,0.0,0.0,0.0,0.0,0.0,0.0,0.0,0.0,0.0,0.0,0.0,2.2894,2.1895,2.0601,2.03,1.9998,1.968,1.968,1.9576,1.9279,1.9279,1.9279,1.9279,1.9279,1.9367,1.955,1.9872,2.0011,2.0033,2.0355,2.0581,2.0742,2.0911,2.095,2.096,2.0723,2.0608,2.0493,0.0,0.0,0.0,0.0,0.0,0.0,0.0,0.0,0.0,0.0,0.0,0.0,0.0,0.0,0.0,0.0,0.0,0.0,1.9386,1.9479,1.9407,1.9131,1.9075,1.9075,1.9075,1.8741,1.8549,1.8482,1.8212,1.8144,1.8279,1.8154,1.8535,1.9287,1.9574,2.0133,2.0829,2.1051,2.1051,2.0886,2.0886,2.0079,1.8798,1.8638,1.7844,0.0,1.6648,1.6656,1.673,1.673,0.0,0.0,0.0,0.0,1.7619,1.8362,1.8754,1.9143,1.9478,1.9872,2.0264,2.0411,2.0489,0.0,2.0956,2.1374,2.1885,2.2314,2.2429,0.0,0.0,0.0,0.0,0.0,0.0,0.0,0.0,0.0,0.0,0.0,0.0,0.0,0.0,0.0,0.0,0.0,0.0,0.0,2.3592,2.2685,2.1591,1.9975,1.9576,1.9279,1.9279,1.9279,1.9279,1.9279,1.9279,1.9279,1.9279,1.9279,1.9279,1.9294,1.9564,1.9681,1.9703,1.9917,2.0201,2.0456,2.0572,2.0648,2.053,2.0587,2.0378,2.0155,0.0,0.0,0.0,0.0,0.0,0.0,0.0,0.0,0.0,0.0,1.7467,1.7891,0.0,1.8529,1.8816,1.8885,1.9159,1.9353,1.9408,0.0,0.0,1.9075,1.9075,1.9075,1.9075,1.8875,1.8674,1.8482,1.8347,1.8212,0.0,0.0,0.0,1.9307,1.9668,2.0183,2.0644,2.0644,2.0245,1.9539,1.9539,1.8966,1.8078,1.7261,1.7107,0.0,0.0,1.6409,1.673,1.673,1.673,0.0,0.0,0.0,1.6976,1.7619,1.8014,1.8318,1.9134,1.9627,1.9942,0.0,2.002,2.0039,0.0,0.0,2.1182,0.0,2.2301,0.0,0.0,0.0,0.0,0.0,0.0,0.0,0.0,0.0,0.0,0.0,0.0,0.0,0.0,0.0,0.0,0.0,0.0,0.0,2.2685,2.0783,1.968,1.9376,1.9376,1.9279,1.9279,1.9279,1.9279,1.9279,1.9279,1.9279,1.9272,1.9078,1.9078,1.9279,1.9121,1.9038,1.9067,1.927,1.9306,1.9175,2.0064,2.0188,1.9899,1.9943,1.9931,1.9815,0.0,0.0,0.0,0.0,0.0,0.0,0.0,0.0,0.0,0.0,0.0,1.7577,1.8449,1.8759,1.9057,1.944,1.9084,1.8871,1.882,1.8961,1.8885,1.8365,1.8551,1.8616,1.8344,1.8309,1.8374,1.8482,1.8279,0.0,0.0,1.8176,1.8648,0.0,0.0,0.0,0.0,1.952,1.9529,1.9932,1.9222,1.8736,1.8327,0.0,0.0,0.0,0.0,0.0,0.0,0.0,1.6004,1.6004,1.6245,0.0,0.0,0.0,1.7286,1.7683,1.8656,1.9222,1.9618,0.0,1.9863,1.9942,2.0029,2.0423,2.0866,2.1302,2.1874,0.0,0.0,0.0,0.0,0.0,0.0,0.0,0.0,0.0,0.0,0.0,0.0,0.0,0.0,0.0,0.0,0.0,0.0,2.2667,2.1676,2.0688,1.9879,1.9272,1.9279,1.9279,1.9078,1.9078,1.8966,1.8848,1.8848,1.8848,1.8743,1.8646,1.875,1.9078,1.875,1.8646,1.8653,1.8794,1.8844,1.8919,1.9308,1.9514,1.9604,1.9635,1.9564,1.9591,0.0,0.0,0.0,0.0,0.0,0.0,0.0,0.0,0.0,0.0,0.0,1.7474,1.8736,0.0,0.0,0.0,1.9105,1.851,1.8158,1.8502,1.8354,1.7566,1.7877,1.7927,1.7715,1.769,1.7985,1.8482,0.0,0.0,1.8027,1.8212,1.8599,0.0,1.8614,1.9164,0.0,0.0,0.0,0.0,0.0,0.0,0.0,0.0,0.0,0.0,0.0,0.0,0.0,0.0,0.0,0.0,0.0,0.0,0.0,0.0,0.0,1.7196,1.8175,1.8665,1.9063,1.9548,1.9706,1.9706,0.0,0.0,2.0443,0.0,2.1326,0.0,0.0,0.0,0.0,0.0,0.0,0.0,0.0,0.0,0.0,0.0,0.0,0.0,0.0,0.0,0.0,0.0,0.0,2.2743,2.114,2.0829,2.0277,1.9063,1.9063,1.8959,1.8757,1.8757,1.8646,1.8422,1.8422,1.8422,1.8422,1.8325,1.8429,1.866,1.8436,1.8325,1.8325,1.8325,1.8457,1.8566,1.8756,1.8851,1.904,1.9122,1.9226,1.9259,0.0,0.0,0.0,0.0,0.0,0.0,0.0,0.0,0.0,0.0,0.0,1.7908,1.8782,1.9757,2.0025,1.9176,1.921,1.8771,1.773,1.7645,1.7501,1.7044,1.7086,0.0,1.7705,1.7429,1.7654,1.8482,0.0,0.0,1.8027,1.8887,1.8829,1.81,1.8031,1.855,1.9301,0.0,0.0,0.0,0.0,0.0,0.0,0.0,0.0,0.0,0.0,0.0,0.0,0.0,0.0,0.0,0.0,0.0,0.0,0.0,0.0,0.0,1.761,1.7951,1.8193,1.8843,1.9082,1.9161,0.0,0.0,1.9865,2.0491,2.0685,2.0723,0.0,0.0,0.0,0.0,0.0,0.0,0.0,0.0,0.0,0.0,0.0,0.0,0.0,0.0,0.0,0.0,0.0,2.292,2.146,2.0796,1.9864,1.8527,1.8422,1.8422,1.8422,1.8422,1.8422,1.8422,1.8422,1.8422,1.8422,1.8115,1.8016,1.8016,1.8016,1.8016,1.8016,1.8016,1.7918,1.7741,1.8251,1.8387,1.813,1.841,1.8698,1.8945,0.0,0.0,0.0,0.0,0.0,0.0,0.0,0.0,0.0,0.0,0.0,0.0,0.0,1.9332,1.9039,1.8424,1.7744,1.707,1.6299,1.6603,1.6402,1.566,1.6218,1.6547,1.6593,1.6539,1.7079,0.0,0.0,1.6802,1.7304,1.6847,1.6859,1.7278,1.7821,1.8158,1.8407,1.696,0.0,0.0,0.0,0.0,0.0,0.0,0.0,0.0,0.0,0.0,0.0,0.0,0.0,0.0,0.0,0.0,0.0,0.0,0.0,1.6484,1.6804,1.7294,1.787,1.8273,1.8683,1.9002,1.9161,1.932,1.9506,1.9912,2.0235,2.0339,0.0,0.0,0.0,0.0,0.0,0.0,0.0,0.0,0.0,0.0,0.0,0.0,0.0,0.0,0.0,0.0,0.0,0.0,1.9336,1.8979,1.8729,1.8415,1.8422,1.8318,1.8115,1.8003,1.7898,1.7898,1.7898,1.7898,1.7898,1.7793,1.7694,1.7694,1.7694,1.7694,1.7694,1.7694,1.7694,1.7595,1.7808,1.7976,1.8056,1.8163,1.839,1.8671,0.0,0.0,0.0,0.0,0.0,1.5824,1.5659,1.5666,1.608,1.7132,0.0,0.0,0.0,0.0,1.8269,1.741,1.6364,1.5625,1.5296,1.5595,1.5473,1.4698,1.5238,1.5624,1.5661,1.5533,0.0,0.0,0.0,0.0,0.0,1.5833,1.5848,1.6522,1.7133,1.7476,0.0,0.0,0.0,1.7367,0.0,0.0,1.8086,0.0,0.0,0.0,0.0,0.0,0.0,0.0,0.0,0.0,0.0,0.0,0.0,0.0,0.0,0.0,1.6237,0.0,0.0,1.7789,1.8193,1.8674,1.8922,1.9073,1.9231,1.9478,1.9771,1.9882,0.0,0.0,0.0,0.0,0.0,0.0,0.0,0.0,0.0,0.0,0.0,0.0,0.0,0.0,0.0,0.0,0.0,0.0,1.8124,1.8246,1.8306,1.8101,1.8108,1.8003,1.7905,1.7694,1.7582,1.7582,1.7582,1.7582,1.7582,1.7582,1.7582,1.7582,1.7582,1.7582,1.7582,1.7582,1.7582,1.7582,1.7582,1.7709,1.7889,1.7889,1.8083,1.837,0.0,0.0,1.5988,1.5988,1.5836,1.5671,1.5537,1.5835,1.6217,1.66,0.0,0.0,0.0,0.0,0.0,1.6107,1.5136,1.4672,1.4773,1.4746,1.4585,1.4207,1.4189,1.4435,1.4894,0.0,0.0,0.0,0.0,0.0,0.0,0.0,1.6055,1.5597,1.6007,1.6357,1.6617,0.0,1.568,1.617,0.0,1.7934,1.8256,0.0,0.0,0.0,1.7797,1.7392,0.0,1.7392,0.0,0.0,0.0,0.0,0.0,0.0,0.0,0.0,0.0,0.0,0.0,0.0,1.77,1.7861,1.8754,1.9002,1.9073,1.9222,1.9301,1.9301,1.9301,0.0,0.0,0.0,0.0,0.0,0.0,0.0,0.0,0.0,0.0,0.0,0.0,0.0,0.0,0.0,0.0,1.9429,1.8044,1.8669,1.8673,1.7654,1.7575,1.7582,1.7582,1.7582,1.7582,1.7582,1.7582,1.7582,1.7582,1.7582,1.7582,1.7582,1.7582,1.7582,1.7582,1.7582,1.7582,1.7582,1.7582,1.7582,1.7582,1.7582,1.7776,1.8036,0.0,1.6132,1.5957,1.5869,1.5748,1.5745,1.5893,1.6033,1.6471,0.0,0.0,0.0,0.0,0.0,1.5484,1.4495,1.4074,1.3846,1.3857,1.3848,1.3805,1.37,1.401,1.4496,1.5098,0.0,0.0,0.0,0.0,0.0,0.0,0.0,0.0,0.0,1.4937,1.529,1.5741,1.5506,0.0,0.0,1.6566,1.7057,0.0,0.0,0.0,0.0,0.0,1.7635,1.7392,0.0,1.6902,1.617,0.0,0.0,0.0,0.0,0.0,0.0,1.5597,0.0,0.0,0.0,0.0,0.0,1.7942,1.8264,1.8585,1.8993,1.9231,1.9301,1.9301,0.0,0.0,0.0,0.0,0.0,0.0,0.0,0.0,0.0,0.0,0.0,0.0,0.0,0.0,0.0,1.7474,1.701,1.6171,1.6967,1.7257,1.6947,1.7361,1.7582,1.7582,1.7582,1.7582,1.7582,1.7582,1.7582,1.7582,1.7582,1.7582,1.7582,1.7582,1.7582,1.7582,1.7582,1.7582,1.7582,1.7582,1.7582,1.7582,1.7582,1.7635,1.7742,1.6057,1.5969,1.5824,1.5691,1.5792,1.5915,1.608,1.6427,1.6919,0.0,0.0,0.0,0.0,0.0,0.0,1.37,1.3571,1.3511,1.3511,1.3511,1.3511,1.3511,1.3761,1.418,1.4706,0.0,0.0,0.0,0.0,0.0,0.0,0.0,0.0,0.0,1.4472,1.4823,0.0,0.0,0.0,0.0,1.6327,0.0,0.0,1.7473,1.7878,0.0,0.0,0.0,1.7635,1.7635,1.7066,0.0,0.0,0.0,0.0,0.0,0.0,0.0,0.0,0.0,0.0,0.0,0.0,0.0,1.7538,1.7853,1.8184,1.8763,1.9002,1.9143,1.9143,1.9222,0.0,0.0,0.0,0.0,0.0,0.0,0.0,0.0,0.0,0.0,0.0,1.8609,1.7707,1.6349,1.5981,1.5694,1.5378,1.5879,1.6273,1.652,1.6854,1.7154,1.7402,1.7402,1.7462,1.7582,1.7582,1.7582,1.7582,1.7582,1.7582,1.7582,1.7483,1.7483,1.7378,1.7265,1.7265,1.7483,1.7483,1.7483,1.7483,1.7483,1.7153,1.663,0.0,1.576,1.5671,1.5513,1.5823,1.609,1.6148,1.6873,1.7392,0.0,1.7169,0.0,0.0,0.0,0.0,0.0,1.3511,1.3511,1.3511,1.3511,1.3511,1.3511,1.3511,1.3684,1.4181,1.3485,0.0,0.0,0.0,0.0,0.0,0.0,0.0,0.0,1.455,1.4903,1.5431,0.0,0.0,1.5506,1.6409,1.6738,0.0,0.0,1.7716,1.7951,1.7554,1.7716,1.7959,1.7878,1.7302,0.0,0.0,0.0,0.0,0.0,1.5431,0.0,0.0,0.0,0.0,0.0,0.0,0.0,1.7294,1.7538,1.7781,1.8451,1.8763,1.8922,1.8922,1.9073,1.9222,0.0,0.0,0.0,0.0,0.0,0.0,0.0,0.0,0.0,1.837,1.7232,1.621,1.5508,1.5104,1.4973,1.5284,1.5357,1.5618,1.6112,1.6219,1.652,1.7048,1.7088,1.7248,1.743,1.743,1.7443,1.7477,1.7477,1.7477,1.7477,1.7279,1.7173,1.7067,1.6842,1.6842,1.7173,1.7173,1.7173,1.7173,1.7173,1.6511,1.553,1.5748,1.5715,1.5626,1.539,1.5777,1.6207,1.6466,1.6991,1.7349,1.7236,1.6306,0.0,0.0,0.0,0.0,0.0,1.3511,1.3511,1.3511,1.3511,1.3511,1.3511,1.3511,1.3817,1.4592,1.4131,1.4277,0.0,0.0,0.0,0.0,0.0,0.0,0.0,1.4847,1.5135,1.5431,0.0,0.0,1.6004,1.6492,0.0,1.731,1.7716,1.7951,1.7959,1.7878,1.7951,1.7878,1.7221,1.682,1.6574,0.0,0.0,0.0,0.0,0.0,0.0,0.0,0.0,0.0,0.0,0.0,0.0,1.6245,1.6566,1.6886,1.77,1.8031,1.8282,1.8692,1.8772,1.8851,0.0,0.0,0.0,0.0,0.0,0.0,0.0,0.0,0.0,1.9066,1.8048,1.6991,1.5995,1.4894,1.4347,1.4337,1.4767,1.5147,1.5224,1.5708,1.6019,1.6137,1.6179,1.6336,1.6503,1.6503,1.6618,1.6836,1.6836,1.6836,1.6836,1.6842,1.6842,1.6842,1.673,1.673,1.6842,1.6842,1.6842,1.6842,1.6842,1.6624,1.6405,1.5525,1.5492,1.5529,1.5614,1.6018,1.6527,1.6922,1.7153,1.7386,1.7633,1.6472,0.0,0.0,0.0,0.0,0.0,0.0,0.0,0.0,1.3511,1.3511,1.3511,1.3691,1.4076,1.4667,1.4447,1.4736,1.5505,0.0,0.0,0.0,0.0,0.0,0.0,0.0,0.0,0.0,0.0,1.6409,1.6409,1.6902,0.0,1.7473,1.7878,1.804,1.804,1.804,1.7878,1.7635,1.7229,1.6738,0.0,0.0,1.5597,1.5431,0.0,1.5431,1.5431,0.0,0.0,0.0,1.5431,0.0,0.0,0.0,1.617,1.6402,1.7049,1.7375,1.7538,1.7789,1.7942,1.8031,1.8031,0.0,0.0,0.0,0.0,0.0,0.0,0.0,0.0,1.8076,1.7034,1.5991,1.5136,1.4508,1.4186,1.4123,1.4334,1.4501,1.4591,1.4909,1.5177,1.5474,1.5665,1.5846,1.6119,1.6253,1.6393,1.6533,1.6666,1.673,1.673,1.6524,1.653,1.653,1.6311,1.5986,1.5559,1.6205,1.653,1.6418,1.5873,1.5322,1.4669,1.5357,1.5312,1.5429,1.5808,1.6302,1.6795,1.7301,1.7407,1.7435,1.7744,0.0,0.0,0.0,0.0,0.0,0.0,0.0,0.0,0.0,0.0,1.3831,1.3786,1.4096,1.4448,1.4778,1.4731,1.5066,1.5805,0.0,0.0,0.0,0.0,0.0,0.0,0.0,0.0,0.0,0.0,0.0,1.6902,0.0,1.7473,1.7554,1.7878,1.804,1.804,1.804,1.7716,1.74,1.731,0.0,1.6087,1.6004,1.568,0.0,0.0,0.0,0.0,0.0,0.0,0.0,0.0,0.0,1.5514,0.0,0.0,0.0,0.0,0.0,0.0,0.0,0.0,0.0,0.0,0.0,0.0,0.0,0.0,0.0,0.0,0.0,0.0,0.0,1.6023,1.5002,1.433,1.422,1.4201,1.4235,1.4008,1.3932,1.4135,1.4103,1.4355,1.4823,1.5101,1.5404,1.5739,1.596,1.5984,1.6041,1.6317,1.6442,1.6442,1.6293,1.6217,1.6217,1.5998,1.5244,1.4277,1.5464,1.5785,1.5452,1.4471,1.3593,1.2615,1.5312,1.5312,1.5417,1.5821,1.629,1.6795,1.7301,1.7752,1.7623,0.0,0.0,0.0,0.0,0.0,0.0,0.0,0.0,0.0,1.5425,0.0,1.5095,1.4754,1.475,1.4893,1.5146,1.5129,1.5342,1.5805,0.0,0.0,0.0,0.0,0.0,0.0,1.5536,0.0,0.0,0.0,1.731,0.0,1.7392,1.7635,0.0,1.7959,1.804,1.804,1.804,1.7716,1.731,0.0,1.6492,1.6004,0.0,1.5431,1.5431,0.0,0.0,0.0,0.0,0.0,0.0,0.0,1.5431,0.0,0.0,0.0,1.5597,1.6087,0.0,0.0,0.0,0.0,0.0,0.0,0.0,0.0,0.0,0.0,0.0,0.0,0.0,0.0,0.0,1.7176,1.5637,1.469,1.4404,1.4294,1.4248,1.4204,1.4066,1.3868,1.3925,1.4004,1.4072,1.4056,1.4351,1.4862,1.4886,1.5026,1.5263,1.5524,1.5646,1.5658,1.5895,1.5998,1.5891,1.5891,1.5244,1.4169,1.4385,1.3727,1.2852,1.2738,1.2521,1.2413,1.5222,1.5407,1.5787,1.6221,1.6727,1.7232,1.7748,1.7947,1.7512,0.0,0.0,0.0,0.0,0.0,0.0,0.0,0.0,1.5501,0.0,0.0,0.0,1.5106,1.5054,1.5186,1.5359,1.5515,1.5634,1.5805,1.5141,0.0,0.0,0.0,0.0,0.0,1.569,0.0,1.7147,0.0,1.7392,0.0,0.0,0.0,0.0,1.804,1.804,1.804,1.804,1.7716,1.731,0.0,1.6409,0.0,0.0,0.0,0.0,0.0,0.0,0.0,0.0,0.0,0.0,0.0,0.0,0.0,1.5431,0.0,1.5431,0.0,0.0,0.0,0.0,0.0,0.0,0.0,1.5643,0.0,0.0,0.0,0.0,0.0,0.0,0.0,0.0,0.0,0.0,0.0,1.4394,1.425,1.423,1.4084,1.3988,1.3847,1.3719,1.3774,1.3927,1.3944,1.4099,1.4473,1.4642,1.4775,1.489,1.5155,1.5354,1.5505,1.5614,1.5753,1.5891,1.5891,1.4804,1.3181,1.3181,1.2852,1.2309,1.1651,1.1433,1.1328,1.5402,1.5633,1.5953,1.6493,1.7037,1.7553,1.8015,1.7963,1.739,1.6083,0.0,0.0,1.5003,1.5283,0.0,0.0,1.615,1.6287,0.0,0.0,1.576,0.0,0.0,0.0,0.0,1.573,1.5805,1.5805,1.5007,0.0,0.0,0.0,0.0,0.0,0.0,1.6493,1.7413,0.0,1.7473,1.7554,1.7473,1.7635,1.804,1.804,1.804,1.804,1.804,1.7716,1.731,1.6902,1.6409,0.0,1.5514,0.0,0.0,0.0,0.0,0.0,1.5431,0.0,0.0,0.0,0.0,0.0,0.0,0.0,0.0,0.0,0.0,0.0,0.0,0.0,0.0,0.0,0.0,1.4294,0.0,0.0,0.0,0.0,0.0,0.0,0.0,0.0,0.0,1.4208,1.4202,1.4202,1.4298,1.4117,1.3978,1.3912,1.3719,1.3676,1.3797,1.387,1.4002,1.4189,1.4473,1.46,1.4612,1.4877,1.5143,1.5396,1.5469,1.565,1.5891,1.5565,1.4261,1.2417,1.2087,1.1764,1.1332,1.0457,1.0241,1.0131,1.6087,1.5807,0.0,1.6482,1.7037,1.7553,1.8015,1.7611,1.7202,0.0,0.0,0.0,0.0,0.0,0.0,0.0,0.0,1.8843,1.8607,0.0,1.7678,0.0,0.0,1.6184,0.0,0.0,1.5805,1.5805,1.5007,0.0,0.0,0.0,0.0,0.0,0.0,1.6723,1.7509,1.7404,1.7635,1.7959,1.7554,1.7635,1.804,0.0,1.804,1.804,1.804,0.0,0.0,1.6902,1.6409,0.0,0.0,0.0,0.0,0.0,0.0,0.0,0.0,0.0,0.0,1.509,0.0,0.0,0.0,0.0,1.4734,0.0,0.0,0.0,0.0,0.0,0.0,0.0,0.0,0.0,0.0,0.0,0.0,0.0,0.0,0.0,0.0,0.0,0.0,1.3931,1.3931,1.4022,1.4298,1.4292,1.4165,1.3912,1.3894,1.3773,1.3532,1.3779,1.3912,1.3924,1.4183,1.431,1.4322,1.46,1.4871,1.5137,1.539,1.565,1.5785,1.4708,1.3511,1.2309,1.1219,1.0025,0.9047,0.8937,0.8937,0.8937,1.5921,1.6089,0.0,0.0,0.0,1.7943,1.8061,1.7799,1.7457,0.0,0.0,0.0,0.0,1.7514,1.8143,0.0,0.0,1.925,1.9302,1.8434,0.0,0.0,0.0,1.6272,0.0,0.0,0.0,0.0,0.0,0.0,0.0,0.0,0.0,0.0,0.0,1.6338,0.0,0.0,0.0,0.0,0.0,1.7878,1.804,0.0,0.0,1.804,1.804,1.7878,0.0,1.731,1.6902,1.6409,1.6004,1.5673,1.5431,1.5431,1.5347,0.0,0.0,0.0,1.5257,1.5257,0.0,0.0,0.0,0.0,0.0,0.0,0.0,0.0,0.0,0.0,0.0,0.0,0.0,0.0,0.0,0.0,0.0,0.0,0.0,0.0,0.0,0.0,0.0,1.3636,1.3642,1.3636,0.0,1.3727,1.3788,1.3897,1.3714,1.3755,1.4032,1.3948,1.3996,1.4165,1.4256,1.4298,1.4298,1.4395,1.4588,1.4865,1.5125,1.4965,1.4462,1.4314,1.2965,1.0887,1.0562,0.9688,0.8709,0.8826,0.894,0.894,1.6159,1.6525,0.0,0.0,0.0,1.7986,1.7986,0.0,0.0,0.0,1.7611,0.0,1.805,0.0,1.8698,0.0,1.9887,1.9843,1.9563,1.9,0.0,1.7638,1.7097,0.0,0.0,0.0,0.0,0.0,0.0,1.4561,0.0,0.0,0.0,0.0,0.0,1.6073,1.6743,1.7196,1.7671,0.0,0.0,1.804,0.0,0.0,1.804,1.804,0.0,1.804,1.7959,1.7554,1.7066,1.6656,1.6252,1.5763,1.5431,1.5431,1.5431,1.5431,1.5431,1.5431,0.0,1.5347,1.5264,0.0,1.4999,0.0,0.0,0.0,0.0,0.0,0.0,0.0,0.0,0.0,0.0,0.0,0.0,0.9598,0.0,0.0,0.0,0.0,0.0,0.0,1.2667,1.3335,1.3346,1.3443,0.0,0.0,1.3539,1.3738,1.357,1.3702,1.3963,1.3897,1.3992,1.4159,1.425,1.4298,1.4298,1.4298,1.4455,1.4727,1.4477,1.4123,1.3698,1.3113,1.181,1.0123,0.9798,0.903,0.8374,0.8602,0.8712,0.8712,1.6818,1.7043,0.0,0.0,1.7321,0.0,0.0,0.0,1.8367,0.0,1.803,1.8126,1.9044,1.8986,1.941,2.0859,2.1082,2.0692,1.9705,2.0085,0.0,0.0,1.751,1.7364,1.6673,0.0,0.0,0.0,0.0,0.0,0.0,0.0,0.0,0.0,1.5227,0.0,1.631,1.7149,1.7689,1.804,1.804,1.804,1.804,1.804,1.804,1.804,1.804,1.804,1.7959,1.7554,1.7147,1.6656,1.6275,1.5861,1.5452,1.5467,1.5474,1.5474,1.5474,1.5474,1.5391,1.5216,0.0,0.0,0.0,0.0,1.4755,0.0,0.0,0.0,0.0,0.0,0.0,0.0,0.0,0.0,0.0,0.0,0.0,0.0,0.0,0.0,0.0,1.1627,1.2014,1.2931,1.305,1.3147,0.0,0.0,1.3443,1.3443,1.3443,1.3515,1.3456,1.3706,1.3903,1.393,1.4177,1.4298,1.4298,1.4298,1.4443,1.4598,1.3485,1.3335,1.3551,1.1363,1.0297,1.0002,0.892,0.8266,0.8045,0.8377,0.8484,0.8484,1.6818,1.6874,1.6888,0.0,1.6957,1.7211,0.0,0.0,0.0,0.0,1.8901,1.9383,2.0145,2.0523,2.0997,2.1791,2.1732,0.0,0.0,0.0,0.0,1.9497,1.8499,1.7765,1.7432,1.6612,0.0,1.5505,0.0,0.0,1.4129,0.0,0.0,0.0,0.0,0.0,1.5936,1.6369,1.7133,1.804,1.804,1.804,0.0,0.0,1.804,1.804,1.804,1.804,1.7959,1.7878,1.7554,1.7196,1.6964,1.663,1.6259,1.6146,1.6126,1.6126,1.6126,1.6126,1.6126,1.6038,1.6038,1.598,0.0,0.0,0.0,0.0,0.0,0.0,0.0,0.0,0.0,0.0,0.0,0.0,0.0,0.0,0.0,0.7944,0.0,0.0,0.9948,1.0688,1.1441,1.2252,1.2268,0.0,0.0,0.0,0.0,1.3147,1.3244,1.3312,1.3538,1.3601,1.3703,1.3927,1.3992,1.4022,1.4022,1.4022,1.3966,1.3745,1.2913,1.2249,1.1671,1.0611,0.947,0.8442,0.8222,0.7937,0.7715,0.8263,0.8374,0.8156,1.6807,1.6818,0.0,1.6658,0.0,0.0,1.7534,0.0,0.0,1.8846,1.9471,0.0,2.0746,2.1152,2.162,2.2149,2.2123,0.0,2.1463,0.0,0.0,1.9966,1.9034,1.8375,1.7842,1.6881,0.0,1.563,0.0,0.0,1.4129,0.0,0.0,0.0,0.0,1.468,1.5339,1.6148,1.7053,1.804,1.804,0.0,0.0,1.804,1.804,1.8057,1.822,1.8168,1.8066,1.822,1.7944,1.7598,1.7544,1.7141,1.6748,1.6492,1.6367,1.6367,1.6367,1.6367,1.6367,1.6367,1.6367,1.6323,1.606,1.5937,1.5879,0.0,0.0,0.0,0.0,0.0,0.0,0.0,0.0,0.0,0.0,0.0,0.0,0.0,0.7764,0.0,0.8662,0.9886,1.0913,1.1515,1.1737,0.0,0.0,0.0,0.0,1.2953,1.2953,1.305,1.334,1.3346,1.3443,1.3738,1.3738,1.3738,1.3738,1.3738,1.3636,1.3448,1.2092,1.1297,1.0698,0.9469,0.8474,0.7639,0.7659,0.7601,0.7493,0.7937,0.7934,0.7826,1.692,1.6807,0.0,0.0,0.0,0.0,0.0,1.8395,0.0,1.9336,0.0,2.0534,2.1093,2.1344,2.1692,2.2149,0.0,2.1862,2.1112,2.1588,2.1135,1.9562,1.9365,1.8834,1.8037,1.7079,0.0,0.0,0.0,1.5417,1.4201,0.0,0.0,0.0,0.0,0.0,0.0,1.6317,1.7372,1.804,1.804,1.804,1.804,1.804,1.8066,1.8151,1.8468,1.8382,1.8168,1.8537,1.8406,1.8044,1.7983,1.7667,1.7228,1.6751,1.6588,1.658,1.6499,1.6491,1.6491,1.6491,1.6491,1.6484,1.644,1.6433,1.6418,1.6374,1.6068,1.5518,0.0,0.0,0.0,0.0,0.0,0.0,0.0,0.0,0.0,0.0,0.0,0.0,0.7594,0.9156,1.0241,0.0,0.0,0.0,0.0,0.0,0.0,1.2667,1.2764,0.0,1.305,0.0,1.3147,1.3443,1.3443,1.3443,1.3443,1.3443,1.3346,1.305,1.1175,1.0289,1.0146,0.8252,0.7395,0.7425,0.7202,0.7141,0.7265,0.7493,0.7496,0.7493,1.7245,0.0,0.0,0.0,0.0,1.7512,1.7941,1.8239,1.869,1.9468,2.016,2.0756,2.1284,2.1789,2.2089,2.2185,2.2197,0.0,0.0,0.0,0.0,2.0398,1.9497,1.87,1.8037,1.7079,1.6473,0.0,1.6132,1.5568,1.4489,0.0,0.0,0.0,0.0,0.0,1.5702,1.6891,0.0,1.804,1.804,1.804,1.804,1.804,1.8228,1.8494,1.8562,1.8545,1.8554,1.8939,1.9067,1.8965,1.8811,1.875,1.8531,1.801,1.7811,1.7727,1.725,1.7157,1.7157,1.7157,1.7157,1.7091,1.6828,1.6769,1.6689,1.6426,1.5874,1.4947,1.3642,0.0,0.0,0.0,0.0,0.0,0.0,0.0,0.0,0.0,0.0,0.7418,0.0,0.0,0.0,0.0,0.0,0.0,0.0,0.0,0.0,0.0,1.257,0.0,0.0,0.0,1.2958,1.3147,1.3147,1.3147,1.3147,1.3147,1.2554,1.1565,1.0293,0.9331,0.8681,0.7604,0.7293,0.7414,0.7114,0.7073,0.7154,0.7265,0.7268,0.7268,0.0,0.0,0.0,0.0,0.0,0.0,0.0,1.8893,0.0,1.9892,2.0735,2.1404,2.1655,2.198,2.2197,2.2197,2.2197,2.2197,2.2197,2.2073,2.1737,2.121,1.9944,0.0,1.8499,1.7364,1.6621,1.6272,1.6053,1.5488,0.0,0.0,0.0,1.3499,0.0,1.4653,0.0,0.0,0.0,1.804,1.804,1.804,1.8057,1.8245,1.8434,1.8639,1.9042,1.9187,1.9213,1.9401,1.947,1.9442,1.9362,1.9298,1.915,1.8311,1.8087,1.7986,1.7426,1.7326,1.7326,1.7326,1.7326,1.7289,1.7135,1.6821,1.6494,1.6345,1.5538,1.4379,1.2532,1.0873,0.0,0.0,0.0,0.0,0.0,0.0,0.0,0.0,0.0,0.0,0.0,0.0,0.0,0.0,0.0,0.0,0.0,0.0,0.0,0.0,0.0,0.0,0.0,0.0,0.0,1.2565,1.2262,1.216,1.2063,1.157,1.0984,1.0293,0.9209,0.852,0.8137,0.7181,0.69,0.7018,0.7042,0.7018,0.7073,0.7133,0.7154,0.7265,0.0,1.8278,0.0,0.0,1.8147,0.0,1.9285,1.9698,2.0085,2.0485,2.1235,2.1806,2.1913,2.2061,2.2185,2.2073,2.2135,2.2185,2.2123,2.2135,2.1874,2.1486,2.0279,1.9354,1.8777,1.7706,1.683,0.0,1.6053,1.5488,0.0,0.0,0.0,0.0,0.0,0.0,0.0,0.0,1.6977,1.792,1.8006,1.8083,1.8186,1.8477,1.8691,1.8913,1.9521,1.9795,1.9855,1.9855,1.9855,1.9817,1.9736,1.9737,1.9554,1.8635,1.8357,1.8172,1.7613,1.7426,1.7232,1.7138,1.7044,1.7044,1.6857,1.6379,1.6001,1.6001,1.511,1.3755,1.1615,1.0666,0.0,0.0,0.0,0.0,0.0,0.0,0.0,0.0,0.0,0.0,0.7234,0.0,0.0,0.0,0.0,0.0,0.0,0.0,0.0,0.0,0.0,1.0895,1.0788,0.0,1.178,0.0,1.1277,1.1072,1.0974,0.9998,0.9509,0.9209,0.8319,0.7822,0.7633,0.6844,0.6594,0.6638,0.6831,0.6923,0.6959,0.7076,0.7119,0.7122,0.0,0.0,0.0,0.0,0.0,0.0,2.0175,2.0402,2.0694,2.1247,2.1356,2.1535,2.1877,2.2061,2.2073,2.1761,2.2011,2.2123,2.1925,2.1824,2.1423,2.073,2.0279,1.9431,1.8104,1.7969,1.7354,0.0,0.0,1.5709,0.0,0.0,0.0,0.0,0.0,0.0,0.0,1.6547,1.715,1.7552,1.7903,1.8237,1.8537,1.8571,1.9025,1.965,1.9718,1.9958,2.024,2.024,2.024,2.024,2.0283,2.0201,2.0102,1.9646,1.9096,1.8643,1.8172,1.7707,1.7138,1.6473,1.6285,1.6096,1.5432,1.5242,1.5242,1.5242,1.4364,1.3134,1.1293,1.0596,0.9975,0.0,0.0,0.0,0.0,0.0,0.0,0.8201,0.0,0.0,0.0,0.6802,0.0,0.0,0.0,0.0,0.0,0.0,0.0,0.839,0.0,0.9891,0.9379,1.0685,0.0,1.1292,1.069,1.0489,1.0489,0.9899,0.911,0.812,0.8021,0.7428,0.6537,0.6448,0.6518,0.6622,0.6643,0.6722,0.6834,0.6956,0.6999,0.7016,0.0,0.0,0.0,0.0,0.0,0.0,0.0,2.077,2.0899,2.1765,2.1873,2.1957,2.2037,2.2061,2.1999,2.1812,2.1886,2.1886,2.1925,2.1761,2.1561,2.1285,2.0624,1.9966,1.9299,1.8432,1.7696,0.0,0.0,0.0,0.0,0.0,0.0,0.0,0.0,1.5555,1.6133,1.6442,1.6918,1.7501,1.7886,1.8254,1.8639,1.9102,1.947,1.9769,1.9992,2.0163,2.0292,2.0292,2.0292,2.0292,2.0292,2.0292,2.0201,1.9737,1.9463,1.8996,1.7692,1.7225,1.6842,1.5812,1.5527,1.5432,1.5146,1.4765,1.4382,1.4382,1.3736,1.2666,1.1182,1.0735,1.0265,0.0,0.0,0.0,0.0,0.0,0.0,0.0,0.0,0.7676,0.0,0.0,0.0,0.0,0.0,0.0,0.0,0.0,0.0,0.7401,0.0,0.8513,0.7505,0.8707,0.9312,0.9312,0.9205,0.9008,0.8715,0.8322,0.773,0.703,0.6833,0.6637,0.6437,0.6239,0.6266,0.6518,0.639,0.6445,0.6709,0.6831,0.6874,0.6891,2.1237,0.0,2.0785,0.0,2.0744,2.073,2.1741,2.1423,2.1387,2.2077,2.2123,2.2123,2.2073,2.1937,2.1862,2.1737,2.1686,2.1761,2.1812,2.1686,2.1624,2.1698,2.1031,0.0,2.0096,1.89,1.8027,1.7404,1.6455,0.0,0.0,0.0,0.0,0.0,1.5346,1.564,1.6182,1.6302,1.6796,1.7338,1.7715,1.8228,1.8819,1.9367,1.971,1.9941,2.0198,2.0292,2.0292,2.0292,2.0292,2.0292,2.0292,2.0292,2.0201,1.992,1.9455,1.8896,1.7584,1.6835,1.6183,1.5146,1.4765,1.4669,1.4484,1.4004,1.3619,1.3619,1.3147,1.2415,1.1187,1.0915,1.0476,0.9134,0.0,0.0,0.0,0.0,0.0,0.0,0.7848,0.7584,0.7768,0.6802,0.0,0.0,0.0,0.0,0.0,0.0,0.0,0.0,0.0,0.0,0.0,0.7425,0.8024,0.7726,0.7822,0.7627,0.7232,0.6936,0.6537,0.6137,0.5939,0.6037,0.6137,0.5939,0.6039,0.6145,0.6027,0.6159,0.6272,0.6495,0.654,0.645,2.1902,2.1888,2.2034,2.2937,2.2641,2.2427,2.2988,2.2592,2.2238,2.2237,2.1999,2.1874,2.1698,2.1812,2.1737,2.1233,2.1498,2.1698,2.1698,2.1537,2.1474,0.0,0.0,2.0828,2.0107,1.9375,1.8499,1.7404,0.0,0.0,1.5204,0.0,1.5204,1.5204,1.5647,1.5805,1.5831,1.6199,1.6576,1.6961,1.7329,1.8151,1.917,1.9179,1.9641,2.0283,2.0292,2.0292,2.0292,2.0292,2.0292,2.0292,2.0292,2.0292,2.0292,2.0292,1.9263,1.8141,1.8048,1.6741,1.5248,1.449,1.41,1.3715,1.2953,1.2861,1.2764,1.2764,1.2764,1.2467,1.1389,1.1014,1.0522,0.9308,0.0,0.0,0.0,0.0,0.0,0.0,0.7129,0.6688,0.7415,0.0,0.0,0.0,0.0,0.0,0.0,0.0,0.0,0.418,0.611,0.0,0.5229,0.7329,0.8035,0.7238,0.6637,0.6437,0.6437,0.5837,0.5636,0.5636,0.5636,0.5636,0.5636,0.5636,0.5636,0.5636,0.5636,0.5639,0.5651,0.5758,0.5796,0.5813,2.2417,2.2616,2.2873,2.3069,2.3036,2.3002,2.3109,2.2661,2.2238,2.2039,2.1925,2.18,2.1537,2.1526,2.1526,0.0,2.1348,2.1423,0.0,2.1348,2.1348,2.1474,2.1285,2.1094,2.0828,2.0096,1.9233,1.8162,0.0,0.0,0.0,1.5576,1.5576,1.5576,1.5726,1.5805,1.5831,1.6199,1.6567,1.6978,1.7603,1.8228,1.8828,1.9358,1.971,1.9949,2.0198,2.0292,2.0292,2.0292,2.0292,2.0292,2.0292,2.0292,2.0192,1.9446,1.898,1.8234,1.672,1.5697,1.486,1.3721,1.3335,1.305,1.2861,1.2764,1.2764,1.2764,1.2764,1.2467,1.1389,1.1137,1.0692,0.9332,0.9047,0.0,0.0,0.0,0.0,0.0,0.7757,0.7408,0.0,0.671,0.0,0.0,0.0,0.0,0.0,0.0,0.0,0.0,0.513,0.0,0.4433,0.5434,0.5834,0.5534,0.5939,0.6239,0.6337,0.5639,0.5436,0.5634,0.5438,0.5438,0.5634,0.5438,0.5438,0.5534,0.5438,0.5438,0.5639,0.5675,0.5686,0.5701,2.2976,2.3179,2.3447,2.3829,2.3919,2.389,2.3827,2.3327,2.2816,2.2408,2.2037,2.1749,2.1537,2.14,0.0,2.1336,2.1221,2.1285,2.1388,2.1285,2.1285,2.1388,2.1285,2.1221,2.1221,0.0,0.0,1.8767,1.7687,1.6673,1.5805,1.5805,1.5805,1.5805,1.5951,1.6011,1.6028,1.6405,1.6781,1.7167,1.7638,1.8126,1.8639,1.9127,1.9401,1.9581,1.9949,2.0086,2.0103,2.0249,2.0292,2.0201,1.9828,1.9729,1.9629,1.898,1.8226,1.7382,1.5974,1.5038,1.4292,1.3437,1.305,1.2764,1.2764,1.2764,1.2764,1.2764,1.2764,1.2467,1.1389,1.1194,1.0771,0.9341,0.9096,0.8974,0.8617,0.0,0.0,0.0,0.0,0.0,0.0,0.6343,0.0,0.0,0.0,0.0,0.0,0.0,0.0,0.3271,0.4358,0.0,0.4033,0.4634,0.4935,0.4834,0.5338,0.5639,0.5737,0.5238,0.5138,0.5336,0.5138,0.5138,0.5336,0.5138,0.5138,0.5236,0.5138,0.5135,0.5336,0.5336,0.5336,0.5244,2.3587,2.3569,0.0,0.0,2.5127,0.0,2.5022,2.4452,2.3846,2.3148,2.2334,2.1761,2.1698,2.1423,2.1221,2.1221,0.0,0.0,0.0,2.1285,2.1285,2.1388,2.1221,2.1158,2.1221,2.0495,1.9835,1.9299,1.7482,1.6333,1.5876,1.5822,1.584,1.5857,1.6225,1.6461,1.6487,1.6798,1.7158,1.7466,1.7501,1.7929,1.8554,1.8579,1.8811,1.9187,1.9598,1.9744,1.9795,2.0163,2.0292,2.0011,1.9072,1.8696,1.8603,1.8603,1.7296,1.5798,1.5704,1.4573,1.3443,1.3443,1.3152,1.2764,1.2764,1.2764,1.2764,1.2764,1.2764,1.2467,1.1389,1.1194,1.0771,0.9341,0.9096,0.8974,0.8617,0.0,0.0,0.0,0.0,0.0,0.0,0.634,0.5725,0.0,0.0,0.0,0.0,0.0,0.2309,0.2352,0.359,0.413,0.3932,0.4732,0.5031,0.4834,0.4834,0.4834,0.4834,0.4834,0.4834,0.4834,0.4834,0.4834,0.4834,0.4834,0.4834,0.4834,0.4834,0.4834,0.4834,0.4834,0.4834,0.4834,0.0,0.0,2.5105,2.5303,2.5639,2.5656,2.5217,2.4921,2.435,2.31,2.2738,2.2322,2.1526,2.14,2.1336,2.1221,2.1221,2.1221,2.1221,2.1221,2.1221,2.1221,2.0892,2.0903,2.1158,2.07,2.0107,1.9299,1.7482,1.6542,1.6412,1.6286,1.6208,1.6233,1.661,1.679,1.6816,1.7184,1.7389,1.7492,1.7783,1.8006,1.8194,1.8477,1.8648,1.8819,1.9495,1.9744,1.9795,2.0163,1.982,1.9072,1.8588,1.7468,1.625,1.6445,1.6075,1.5317,1.4586,1.3823,1.3147,1.3147,1.2958,1.2764,1.2764,1.2764,1.2764,1.2764,1.2764,1.2467,1.1389,1.1194,1.0771,0.9341,0.9096,0.8974,0.8617,0.8568,0.0,0.0,0.7672,0.7404,0.7139,0.6874,0.6385,0.0,0.0,0.0,0.0,0.1848,0.1953,0.2353,0.2695,0.3026,0.3432,0.4033,0.4433,0.4834,0.4834,0.4834,0.4834,0.4834,0.4834,0.4834,0.4834,0.4834,0.4834,0.4834,0.4834,0.4834,0.4834,0.4834,0.4834,0.4834,0.4834,0.4834,2.4694,2.5278,2.5741,2.5873,2.6044,2.6056,2.5646,2.5314,2.4808,2.3989,2.328,2.2677,2.2002,2.1639,2.1336,2.1221,2.1221,2.1221,2.1221,2.1221,2.1221,2.1221,2.0839,2.07,2.0903,2.0571,1.9966,1.91,1.8095,1.7367,1.6901,1.7007,1.6898,1.6627,1.7004,1.7167,1.7192,1.7569,1.7732,1.7749,1.7954,1.804,1.8057,1.8254,1.834,1.8434,1.9204,1.9478,1.9564,1.9833,1.9637,1.898,1.7762,1.664,1.5609,1.4949,1.4669,1.4382,1.3829,1.3443,1.305,1.2958,1.2856,1.2764,1.2764,1.2764,1.2764,1.2764,1.2565,1.2175,1.1389,1.0998,1.048,0.9247,0.9096,0.8974,0.8617,0.8476,0.0,0.7944,0.7768,0.7588,0.7143,0.6754,0.6009,0.4885,0.0,0.0,0.1667,0.1571,0.1774,0.1988,0.2009,0.2322,0.2826,0.333,0.3732,0.4033,0.4033,0.4234,0.4435,0.4435,0.4533,0.4834,0.4834,0.4834,0.4834,0.4834,0.4834,0.4834,0.4834,0.4834,0.4834,0.4834,0.4834,0.4834,2.5839,2.6017,2.6112,2.6529,2.6418,2.6272,2.6165,2.5701,2.5245,2.5048,2.3989,2.3088,2.2665,2.2002,2.1514,2.1221,2.1221,2.1221,2.1221,2.1221,2.1221,2.1221,2.0775,2.0571,2.0571,2.0314,1.9745,1.9014,1.8993,1.8518,1.7605,1.787,1.7685,1.7173,1.7389,1.7552,1.7578,1.7814,1.7959,1.804,1.804,1.7959,1.7959,1.7959,1.7959,1.8044,1.8836,1.9085,1.9024,1.9404,1.9372,1.8824,1.6828,1.6001,1.5622,1.3919,1.3346,1.3443,1.3443,1.3244,1.305,1.2861,1.2764,1.2764,1.2764,1.2764,1.2764,1.2667,1.2273,1.1785,1.1194,1.0703,1.0099,0.9284,0.9116,0.8982,0.8653,0.0,0.8113,0.7856,0.7499,0.7156,0.6903,0.6111,0.5175,0.4183,0.3408,0.2607,0.0,0.1579,0.159,0.1616,0.1617,0.1818,0.2422,0.2826,0.313,0.323,0.323,0.343,0.3833,0.3833,0.4133,0.4533,0.4533,0.4533,0.4533,0.4533,0.4533,0.4533,0.4533,0.4533,0.4533,0.4634,0.4634,0.4533,2.6248,2.6513,2.6834,2.6922,2.6645,2.6457,2.6457,2.615,2.577,2.5245,2.4865,2.4234,2.298,2.2604,2.2113,2.1451,2.1285,2.1221,2.1221,2.1221,2.1221,2.1221,2.056,2.0302,2.0571,2.0389,2.0201,2.0065,1.9677,1.9387,1.918,1.8638,1.8299,1.8154,1.7615,1.7624,1.7874,1.761,1.7716,1.804,1.804,1.7797,1.7554,1.7878,1.7797,1.7613,1.8445,1.8423,1.8194,1.8853,1.8285,1.7044,1.6188,1.5235,1.4388,1.3244,1.2958,1.2958,1.3147,1.305,1.2861,1.2764,1.2764,1.2764,1.2764,1.2764,1.2662,1.2175,1.2078,1.1688,1.0703,1.0413,1.0143,0.9444,0.9194,0.893,0.8544,0.0,0.8028,0.7591,0.6786,0.6204,0.6045,0.5151,0.4208,0.329,0.3113,0.2558,0.1608,0.161,0.1612,0.1617,0.1617,0.1818,0.2422,0.2522,0.2725,0.323,0.323,0.323,0.3331,0.3331,0.3331,0.343,0.343,0.343,0.343,0.343,0.343,0.343,0.343,0.343,0.3531,0.3934,0.3833,0.3531,2.7218,2.7164,2.7093,2.7003,2.6817,2.6645,2.651,2.6404,2.6136,2.5756,2.537,2.4681,2.3505,2.3027,2.2359,2.1451,2.1336,2.1273,2.1221,2.1221,2.1094,2.0903,2.0366,2.0096,2.0167,2.0297,2.0331,2.0331,2.036,2.0209,1.9925,1.9821,1.9242,1.8311,1.8026,1.7708,1.7302,1.7392,1.7473,1.7716,1.7878,1.7797,1.7392,1.7635,1.7392,1.7114,1.7705,1.7867,1.7854,1.812,1.7879,1.7313,1.6331,1.5425,1.458,1.3624,1.3147,1.2861,1.2953,1.2861,1.2764,1.2764,1.2764,1.2764,1.2764,1.257,1.2273,1.2078,1.1585,1.0998,1.0511,1.0117,0.9857,0.9481,0.9287,0.0,0.0,0.8305,0.7957,0.7514,0.6588,0.5927,0.5804,0.4512,0.3456,0.3031,0.2572,0.21,0.1616,0.1617,0.1617,0.1617,0.1617,0.1718,0.1918,0.2019,0.212,0.2323,0.2323,0.2523,0.2725,0.2725,0.2927,0.323,0.323,0.323,0.323,0.323,0.323,0.323,0.323,0.323,0.323,0.3432,0.343,0.323,2.7969,2.756,2.7181,2.7041,2.6951,2.6779,2.6578,2.651,2.6404,2.6218,2.5756,2.5063,2.4195,2.3505,2.2725,2.1753,2.1514,2.1336,2.1221,2.1221,2.1031,2.0764,2.0412,2.0167,1.9972,2.0358,2.0586,2.0586,2.1041,2.1046,2.0597,2.0785,2.0157,1.8816,1.8336,1.7691,1.6968,1.7066,1.7147,1.7229,1.7546,1.7473,1.7147,1.7229,1.6984,1.6613,1.7119,1.7421,1.7549,1.7527,1.7659,1.7609,1.6546,1.5812,1.5242,1.4382,1.3619,1.305,1.2861,1.2764,1.2764,1.2764,1.2764,1.2764,1.2662,1.2273,1.1883,1.1683,1.0998,1.0314,1.0216,0.992,0.9579,0.9441,0.0,0.0,0.0,0.8276,0.7931,0.7265,0.6159,0.5395,0.5141,0.3655,0.2649,0.2662,0.2002,0.1617,0.1617,0.1617,0.1617,0.1617,0.1617,0.1617,0.1617,0.1617,0.1617,0.1617,0.1617,0.1818,0.222,0.222,0.2423,0.2827,0.2827,0.2827,0.2827,0.2827,0.2827,0.2827,0.2827,0.2827,0.2827,0.2928,0.2826,0.2522,2.783,2.7488,2.735,2.7233,2.7093,2.6951,2.6779,2.6645,2.651,2.6457,2.6204,2.577,2.5175,2.4253,2.3374,2.2592,2.1815,2.1336,2.1221,2.1221,2.1158,2.1158,2.0875,2.0662,2.0358,2.0824,2.1062,2.1062,2.1528,2.1756,2.168,2.1165,2.0712,2.0323,1.8576,1.7772,1.7836,1.6648,1.6417,1.6738,1.6812,1.6574,1.6252,1.6574,1.6492,1.6216,1.6967,1.6947,1.6728,1.7354,1.7311,1.6945,1.639,1.619,1.6001,1.5242,1.4478,1.3715,1.2953,1.2764,1.2764,1.2764,1.2764,1.2662,1.2175,1.2078,1.1683,1.0703,1.0413,1.0216,0.9723,0.9628,0.9624,0.9608,0.0,0.0,0.8656,0.8419,0.775,0.6327,0.5301,0.4298,0.3307,0.2251,0.1682,0.1711,0.1615,0.1617,0.1617,0.1617,0.1617,0.1617,0.1617,0.1617,0.1617,0.1617,0.1617,0.1617,0.1617,0.1617,0.1617,0.1617,0.1718,0.1718,0.1718,0.1718,0.1718,0.1718,0.1718,0.1718,0.1718,0.1718,0.1819,0.2321,0.1716,0.0707,2.8207,2.766,2.735,2.7233,2.7093,2.6951,2.6832,2.6712,2.6645,2.651,2.6326,2.5934,2.5287,2.4794,2.4047,2.2713,2.2298,2.1877,2.1221,2.1221,2.1103,2.0941,2.1239,2.1172,2.0845,2.13,2.1538,2.1538,2.1714,2.1807,2.1807,2.1568,2.1021,2.0148,1.9353,1.8638,1.7917,1.7196,1.696,1.7123,1.6812,1.6492,1.6087,1.6252,1.6217,1.6,1.629,1.6598,1.6803,1.7041,1.7165,1.7079,1.6908,1.6574,1.6096,1.5337,1.4573,1.3806,1.313,1.2851,1.2764,1.237,1.2273,1.2175,1.1585,1.1292,1.0904,1.0511,1.0117,0.9821,0.9628,0.9628,0.9529,0.9335,0.0,0.88,0.7527,0.7273,0.6724,0.5228,0.4225,0.3495,0.3033,0.2182,0.1605,0.1616,0.1617,0.1617,0.1617,0.1617,0.1617,0.1617,0.1617,0.1617,0.1617,0.1617,0.1617,0.1617,0.1617,0.1617,0.1617,0.1617,0.1617,0.1617,0.1617,0.1617,0.1617,0.1617,0.1617,0.1617,0.1617,0.1617,0.1516,0.1313,0.0808,0.0303,2.8304,2.776,2.7386,2.7233,2.713,2.6989,2.6832,2.6779,2.6765,2.6592,2.6433,2.6111,2.5591,2.5216,2.4465,2.3075,2.2774,2.2237,2.1336,2.1521,2.145,2.1046,2.156,2.1691,2.1331,2.1642,2.1807,2.1807,2.1731,2.1731,2.1731,2.1655,2.1098,2.0235,1.9913,1.9274,1.8327,1.7513,1.7188,1.7107,1.6566,1.6162,1.5854,1.6042,1.597,1.5943,1.614,1.6491,1.6872,1.6967,1.715,1.7326,1.7326,1.6958,1.6292,1.5534,1.4675,1.3806,1.3125,1.2651,1.2175,1.1883,1.178,1.159,1.1096,1.0703,1.0314,1.0216,0.9826,0.9628,0.9628,0.9628,0.9529,0.9236,0.9236,0.8594,0.6905,0.6695,0.5981,0.4264,0.343,0.2964,0.2571,0.2004,0.1617,0.1617,0.1617,0.1617,0.1617,0.1617,0.1617,0.1617,0.1617,0.1617,0.1617,0.1617,0.1617,0.1617,0.1617,0.1617,0.1617,0.1617,0.1617,0.1617,0.1617,0.1617,0.1617,0.1617,0.1617,0.1617,0.1314,0.1212,0.1111,0.0303,-0.0101,-0.0505,2.8024,2.7675,2.7524,2.7233,2.7181,2.713,2.6832,2.6779,2.6779,2.6779,2.65,2.6286,2.6286,2.5508,2.4694,2.3859,2.3075,2.2298,2.1451,2.2243,2.2332,2.1559,2.1958,2.2082,2.1797,2.1807,2.1807,2.1807,2.1578,2.1502,2.1502,2.1282,2.1051,2.0829,2.001,1.9529,1.9222,1.7432,1.6698,1.6617,1.5748,1.5431,1.5467,1.5796,1.5921,1.6009,1.663,1.6857,1.6908,1.7223,1.7326,1.7326,1.7326,1.7153,1.6885,1.6021,1.4867,1.3709,1.2948,1.1975,1.1194,1.1194,1.1194,1.1096,1.0511,1.0413,1.0216,0.9727,0.9628,0.9628,0.9628,0.9628,0.9529,0.9236,0.9236,0.8634,0.703,0.6828,0.5927,0.3423,0.3224,0.2722,0.1718,0.1617,0.1617,0.1617,0.1617,0.1617,0.1617,0.1617,0.1617,0.1617,0.1617,0.1617,0.1617,0.1617,0.1617,0.1617,0.1617,0.1617,0.1617,0.1617,0.1617,0.1617,0.1617,0.1617,0.1617,0.1617,0.1617,0.1516,0.0707,0.0404,0.0303,-0.0504,-0.131,-0.2017,2.8479,2.8008,2.764,2.7386,2.7284,2.713,2.6951,2.6846,2.6779,2.6779,2.6592,2.6418,2.6326,2.6002,2.5425,2.4526,2.4021,2.3371,2.2372,2.2585,2.2628,2.2406,2.2604,2.2563,2.2252,2.1949,2.1807,2.1807,2.1731,2.1655,2.1502,2.1436,2.1205,2.0906,2.0664,2.042,2.0167,1.8966,1.8158,1.7513,1.6624,1.6126,1.5782,1.5877,1.6191,1.6601,1.6784,1.6996,1.7201,1.7296,1.7326,1.7239,1.7153,1.7073,1.6885,1.6494,1.5724,1.4669,1.3318,1.2349,1.1575,1.0801,1.0609,1.0511,0.992,0.9821,0.9821,0.9628,0.9628,0.9529,0.9331,0.9331,0.9133,0.8733,0.8634,0.7928,0.5727,0.5425,0.4526,0.2321,0.212,0.1919,0.1617,0.1617,0.1617,0.1617,0.1212,0.1212,0.1617,0.1617,0.1617,0.1617,0.1617,0.1617,0.1617,0.1617,0.1617,0.1617,0.1617,0.1617,0.1617,0.1617,0.1617,0.1617,0.1617,0.1617,0.1617,0.1617,0.1617,0.1516,0.0707,-0.0202,-0.101,-0.1513,-0.1815,-0.2118,2.8639,2.8107,2.764,2.7452,2.7335,2.7196,2.7055,2.6951,2.6846,2.6779,2.6606,2.6365,2.6286,2.6111,2.5646,2.4711,2.3917,2.3304,2.3025,2.2771,2.2926,2.3349,2.3143,2.2777,2.2402,2.2025,2.1807,2.1807,2.1655,2.1502,2.1359,2.1195,2.1041,2.0819,2.0819,2.0731,2.0566,1.9696,1.8975,1.8407,1.718,1.6505,1.6257,1.6132,1.6411,1.6788,1.6912,1.7079,1.7333,1.7239,1.7153,1.7153,1.6878,1.6791,1.6697,1.6501,1.573,1.4765,1.38,1.2635,1.1565,1.089,1.0408,1.0019,0.9628,0.9628,0.9529,0.943,0.943,0.9331,0.913,0.9031,0.8931,0.8432,0.8432,0.7528,0.5125,0.4824,0.4012,0.1899,0.1599,0.1594,0.1582,0.1592,0.1504,0.1313,0.101,0.0808,0.101,0.1212,0.1313,0.1313,0.1313,0.1415,0.1617,0.1617,0.1617,0.1617,0.1617,0.1617,0.1617,0.1617,0.1617,0.1617,0.1617,0.1617,0.1617,0.1617,0.1313,0.0707,-0.0101,-0.1109,-0.2119,-0.2622,-0.2622,-0.2522,2.8685,2.814,2.7575,2.7452,2.7401,2.7299,2.7055,2.7003,2.6951,2.6832,2.65,2.6326,2.6286,2.6056,2.555,2.4694,2.316,2.2594,2.3375,2.3001,2.3133,2.4082,2.3372,2.2777,2.2402,2.2035,2.1807,2.1807,2.1436,2.1205,2.1205,2.0809,2.0644,2.0566,2.0566,2.0566,2.0566,1.9775,1.9381,1.9134,1.7594,1.6929,1.6807,1.66,1.6504,1.6586,1.6872,1.7066,1.7239,1.7066,1.6979,1.6885,1.6683,1.6407,1.6224,1.613,1.5356,1.4394,1.4298,1.2829,1.1268,1.1268,1.04,0.9628,0.9628,0.9628,0.9529,0.9236,0.9137,0.9034,0.8825,0.8726,0.8627,0.8432,0.8333,0.7531,0.5225,0.4918,0.409,0.2065,0.1667,0.1556,0.1529,0.1553,0.1385,0.0906,0.0808,0.0505,0.0,0.0505,0.0707,0.0707,0.0808,0.101,0.1617,0.1617,0.1617,0.1617,0.1617,0.1617,0.1617,0.1617,0.1516,0.1313,0.1414,0.1313,0.1212,0.1212,0.0605,-0.0504,-0.1409,-0.2315,-0.3122,-0.383,-0.3732,-0.323,2.9021,2.8352,2.769,2.7452,2.7284,2.7181,2.7003,2.6899,2.6832,2.6779,2.6592,2.6418,2.6326,2.5948,2.5633,2.5313,2.4163,2.3417,2.3472,2.3021,2.2959,2.3254,2.2777,2.2402,2.2176,2.1959,2.1807,2.1807,2.1578,2.1359,2.1205,2.0974,2.0741,2.0566,2.0566,2.0566,2.0566,2.0411,1.9932,1.9301,1.8895,1.8161,1.7226,1.7129,1.7004,1.6886,1.6756,1.6878,1.7066,1.6777,1.6683,1.6683,1.6407,1.6224,1.613,1.5927,1.5737,1.5255,1.449,1.3318,1.2145,1.1365,1.04,0.9628,0.9628,0.943,0.9232,0.9236,0.9031,0.8829,0.8531,0.8531,0.8432,0.8137,0.8038,0.7637,0.6234,0.5864,0.5118,0.3529,0.2227,0.1534,0.1527,0.1553,0.1574,0.1482,0.0601,0.0101,0.0,0.0101,0.0202,0.0202,0.0606,0.101,0.1617,0.1617,0.1617,0.1617,0.1617,0.1617,0.1617,0.1617,0.0808,-0.0504,-0.0101,-0.0605,-0.1511,-0.1511,-0.1309,-0.1107,-0.2614,-0.3823,-0.4836,-0.4634,-0.4332,-0.3732,2.8573,2.8136,2.764,2.7452,2.735,2.7248,2.7055,2.6899,2.6779,2.6659,2.6418,2.6258,2.6218,2.5948,2.5674,2.5313,2.4176,2.3491,2.3526,2.3021,2.2808,2.2957,2.2628,2.2327,2.2101,2.1807,2.1578,2.1502,2.1282,2.1138,2.1061,2.0819,2.0731,2.0566,2.0566,2.0566,2.0566,2.0566,2.0323,1.9854,1.9371,1.8616,1.766,1.7319,1.695,1.6602,1.6501,1.6501,1.6602,1.6501,1.6407,1.64,1.6123,1.6028,1.6021,1.5832,1.5832,1.5737,1.5159,1.3896,1.2533,1.2047,1.0694,0.943,0.943,0.9331,0.9133,0.8832,0.873,0.8531,0.8237,0.8237,0.8137,0.8038,0.8038,0.7537,0.6334,0.6044,0.5273,0.3678,0.2757,0.1879,0.1222,0.134,0.1555,0.157,0.06,0.0,0.0,0.0,0.0,0.0,0.0303,0.0505,0.0808,0.1314,0.1617,0.1617,0.1314,0.0808,0.0101,0.0101,-0.0605,-0.1713,-0.1914,-0.2215,-0.2416,-0.292,-0.2919,-0.2716,-0.3621,-0.463,-0.5438,-0.5236,-0.4634,-0.3934,2.8176,2.7966,2.7625,2.7386,2.735,2.7248,2.7003,2.6899,2.6712,2.651,2.6258,2.6111,2.6111,2.5893,2.5508,2.4892,2.3852,2.3294,2.3472,2.2907,2.2705,2.2837,2.251,2.2176,2.1959,2.1655,2.1359,2.1205,2.0984,2.0906,2.0906,2.0654,2.0566,2.0566,2.0566,2.0566,2.0566,2.0566,2.0566,2.0489,1.9608,1.8845,1.8164,1.7391,1.6762,1.6224,1.6123,1.613,1.613,1.613,1.613,1.6123,1.5832,1.5832,1.5832,1.5832,1.5832,1.5832,1.5832,1.4376,1.2926,1.2727,1.1082,0.9422,0.9099,0.9015,0.8935,0.8531,0.8333,0.8233,0.8038,0.8038,0.8038,0.8038,0.7942,0.7537,0.6431,0.6121,0.5521,0.4009,0.2986,0.1931,0.0736,0.0938,0.1243,0.1366,0.0497,0.0,0.0,0.0,0.0,0.0,0.0,0.0,0.0,0.0909,0.1415,0.1617,0.0202,-0.111,-0.2422,-0.2117,-0.2418,-0.3122,-0.3627,-0.3626,-0.3119,-0.3927,-0.4431,-0.473,-0.473,-0.5131,-0.5734,-0.5636,-0.5035,-0.4234,2.8885,2.8497,2.7845,2.7321,2.7144,2.7003,2.6846,2.6779,2.6712,2.651,2.6379,2.6233,2.6111,2.5508,2.4892,2.4287,2.3949,2.3644,2.335,2.2952,2.2512,2.2263,2.203,2.1731,2.1359,2.1282,2.1205,2.1205,2.0984,2.0906,2.0906,2.0654,2.0566,2.0566,2.0566,2.0489,2.0342,2.0489,2.0489,2.0342,2.0177,1.9353,1.8156,1.7889,1.7101,1.613,1.5933,1.5832,1.5832,1.5832,1.5832,1.5832,1.5832,1.5832,1.5832,1.5832,1.5832,1.5832,1.5832,1.4962,1.3806,1.263,1.1463,1.0156,0.8657,0.8441,0.8531,0.8432,0.8237,0.8038,0.8038,0.8038,0.8038,0.8038,0.7842,0.7543,0.7444,0.6937,0.659,0.6395,0.2859,0.0271,0.009,0.0184,0.0187,0.0191,0.0097,0.0,0.0,0.0,0.0,0.0,0.0,0.0,0.0,0.0101,0.0707,0.1516,-0.3132,-0.5571,-0.5672,-0.4239,-0.4336,-0.5751,-0.4734,-0.4931,-0.5832,-0.6034,-0.6037,-0.6134,-0.6134,-0.6234,-0.6237,-0.5737,-0.5534,-0.5336,2.8909,2.8544,2.7978,2.763,2.7269,2.6951,2.6832,2.6621,2.65,2.6379,2.6218,2.6016,2.5812,2.5174,2.4593,2.4376,2.3982,2.3619,2.3315,2.2503,2.1991,2.1937,2.1533,2.1181,2.1051,2.1128,2.1128,2.0886,2.0809,2.0731,2.0731,2.0498,2.0489,2.0566,2.0489,2.0411,2.0342,2.042,2.0342,2.0264,2.0029,1.9147,1.7973,1.7825,1.6899,1.5805,1.5772,1.5832,1.5832,1.5832,1.5832,1.5832,1.5832,1.5832,1.5832,1.5832,1.5832,1.5832,1.5832,1.4962,1.3806,1.2635,1.1279,0.9925,0.8512,0.816,0.8105,0.8105,0.8076,0.7939,0.7842,0.7743,0.7743,0.754,0.7441,0.7341,0.7144,0.6921,0.662,0.6308,0.2542,0.0,0.0,0.0,0.0,0.0,0.0,0.0,0.0,0.0,0.0,0.0,0.0,0.0,0.0,0.0,-0.101,-0.2929,-0.4041,-0.5258,-0.6382,-0.5555,-0.5648,-0.6348,-0.5737,-0.5834,-0.6437,-0.6437,-0.6437,-0.6437,-0.6437,-0.6437,-0.6337,-0.6134,-0.5837,-0.5534]}]]